GFSMA_con_lsi_000.txt.gz
Lid_Strength_Index
13 14 14 15 15 15 15 16 15 15 15 15 15 15 15 15 15 14 14 9 7 5 4 3 2 2 1 1 1 1 0 0 0 -0 -0 -0 -0 -0 -0 -1 -2 -1 -1
13 14 15 15 16 16 16 16 16 16 16 16 16 16 15 15 15 15 14 14 8 7 5 4 4 3 2 2 2 1 1 -0 0 0 1 0 -0 -1 -1 -1 -2 -2 -2
14 14 14 16 16 16 16 16 16 17 17 16 17 16 16 15 15 15 14 14 13 9 6 5 4 3 3 2 2 2 1 2 2 1 2 2 1 0 -1 -1 -1 -1 -2
14 14 15 16 16 16 16 17 17 17 17 17 17 17 16 16 15 15 15 15 14 13 10 8 7 5 4 3 3 2 3 1 1 2 3 3 2 2 2 1 -0 -0 -1
14 14 15 16 16 17 17 17 18 18 18 18 17 17 17 16 16 15 16 15 15 15 15 11 10 9 7 6 5 4 3 2 3 4 3 2 2 3 2 2 1 1 1
15 15 15 16 16 17 17 18 18 18 18 18 17 17 17 17 17 17 16 15 16 15 15 15 15 13 9 8 7 6 5 4 4 4 4 4 4 3 2 2 1 2 2
15 15 16 16 17 17 18 18 18 18 18 18 18 18 18 17 17 17 17 17 16 16 16 16 15 15 14 10 8 6 5 5 5 5 5 5 4 4 4 3 3 2 2
15 15 16 16 17 18 18 18 18 18 18 19 19 19 19 19 18 17 17 17 17 17 16 16 16 15 15 15 11 8 6 6 5 5 6 6 5 5 4 4 3 3 2
16 16 16 16 17 17 18 18 18 18 19 19 19 18 20 20 20 18 18 17 18 17 17 17 16 15 15 15 13 11 9 8 8 7 7 7 6 6 5 5 4 4 3
16 16 16 17 17 18 18 18 18 19 18 19 18 18 19 19 20 21 19 18 18 18 18 17 17 16 15 15 12 11 11 10 10 9 9 8 7 7 6 5 5 4 4
16 16 17 17 18 17 18 18 19 19 19 19 19 19 20 20 20 20 21 20 19 19 18 18 17 17 16 15 14 13 12 12 11 11 10 10 9 8 7 6 5 5 4
17 17 17 17 17 18 18 18 18 19 19 19 19 19 19 20 20 20 21 21 21 19 19 18 18 17 16 16 15 14 13 13 12 12 11 11 10 10 9 8 7 6 5
17 17 17 17 18 18 18 18 18 19 19 19 19 20 19 20 19 19 20 21 21 19 19 19 18 17 16 17 17 15 15 14 14 13 12 12 11 11 10 9 8 7 6
16 17 17 18 18 18 18 18 18 19 19 19 19 19 19 19 19 19 19 20 21 20 19 19 18 18 18 18 17 16 18 16 14 13 13 12 12 11 11 10 9 8 8
16 17 17 18 18 18 18 18 18 19 19 19 19 19 19 19 19 19 19 19 20 22 21 20 19 18 18 18 17 18 18 17 15 14 13 13 12 11 11 10 10 9 8
17 18 18 18 18 18 18 18 19 19 19 19 19 19 19 19 19 19 19 19 20 22 23 20 19 19 19 18 17 18 18 16 16 15 14 13 12 11 11 10 10 10 9
17 18 17 18 18 18 18 18 19 19 19 20 20 20 20 20 21 21 21 21 21 21 23 21 20 20 20 20 19 18 18 18 17 14 13 12 11 11 11 11 10 10 10
17 17 17 18 18 18 18 18 19 19 20 20 20 20 21 21 22 22 22 22 22 22 23 24 22 21 21 21 20 20 18 17 17 15 13 11 11 11 11 11 11 10 10
17 17 17 18 18 18 18 18 19 19 20 20 20 20 21 21 23 23 23 23 23 22 22 23 23 21 21 20 20 19 18 17 16 14 13 13 12 12 11 11 11 11 11
17 17 17 17 17 18 18 18 19 19 20 19 19 20 21 21 22 23 23 23 23 24 23 23 23 22 21 19 19 18 18 17 17 15 14 14 13 12 12 11 12 12 12
16 17 17 17 18 18 18 18 19 19 20 20 20 20 21 21 20 21 22 23 23 24 23 23 22 21 20 19 19 18 18 18 17 16 16 15 14 14 14 12 13 12 12
17 17 17 17 18 18 15 15 17 19 19 20 21 21 21 20 19 18 18 19 21 25 28 26 21 20 19 19 18 18 18 18 19 15 16 17 15 16 15 14 12 11 10
17 17 17 18 18 18 15 14 15 19 19 20 20 21 21 21 20 19 17 17 18 17 19 20 19 18 19 18 18 18 17 17 18 17 18 19 17 18 15 14 12 11 11
17 18 17 17 17 18 15 14 15 18 19 20 21 21 21 21 21 20 19 18 18 18 17 17 18 18 18 17 17 16 17 19 19 18 17 21 18 19 16 15 12 11 11
18 17 17 17 17 18 15 13 15 19 19 20 20 20 20 21 19 17 20 21 20 19 17 15 15 14 14 14 15 19 24 25 23 21 18 20 19 19 17 16 15 12 12
17 17 18 17 18 18 15 14 15 19 20 21 20 20 19 19 17 16 20 21 23 20 19 20 18 18 18 18 17 18 22 28 24 25 17 20 19 18 20 17 15 15 15

GFSMA_con_lsi_003.txt.gz
Lid_Strength_Index
8 8 9 10 11 11 11 12 12 12 12 12 12 12 12 12 11 11 10 7 5 4 2 2 2 1 1 1 1 0 -1 -1 -0 0 0 -0 0 -1 -0 -2 -2 -2 -2
9 9 11 12 12 12 12 12 12 12 12 12 13 13 13 12 12 11 11 8 6 5 4 3 3 2 2 2 1 2 1 2 1 1 2 1 1 0 -0 -1 -1 -1 -1
10 10 11 12 12 12 12 13 13 13 13 13 13 13 13 12 12 12 11 11 8 5 5 4 4 3 2 3 2 1 2 1 1 2 3 2 2 2 1 1 0 0 -1
10 11 11 12 12 13 12 13 13 14 14 13 14 14 13 12 12 12 12 12 11 12 10 8 6 4 5 4 4 4 2 2 3 3 2 2 2 2 2 2 1 1 1
11 11 12 12 13 13 13 14 14 14 14 14 14 13 13 12 13 13 13 13 13 13 12 10 9 8 7 7 5 4 4 4 4 4 4 3 3 2 2 1 1 1 2
11 11 12 13 13 14 14 14 14 14 14 14 15 14 13 14 13 13 13 14 13 13 13 13 12 11 9 7 6 5 4 4 4 4 4 3 3 3 3 3 2 2 2
11 11 12 13 14 14 14 14 14 14 15 15 14 14 14 14 14 13 13 14 14 14 14 13 13 12 11 8 7 5 4 4 4 5 5 5 4 4 4 4 3 3 3
12 12 13 14 14 14 15 15 14 15 15 15 14 14 15 14 14 14 14 14 15 14 14 14 13 13 12 11 8 7 7 6 6 6 6 6 6 5 5 4 4 4 3
13 13 13 14 15 15 15 15 14 14 15 16 15 13 16 14 15 15 15 14 15 15 14 14 14 14 13 11 10 10 9 9 8 8 7 7 6 6 5 5 5 4 4
13 13 13 14 14 15 15 15 15 14 14 15 15 16 16 15 15 16 16 15 15 15 15 15 14 14 13 11 12 11 11 11 10 10 9 8 8 7 6 6 5 5 5
13 14 14 14 15 15 14 15 16 16 15 14 15 16 16 16 16 16 16 16 16 15 15 15 14 13 12 13 13 12 12 12 11 11 10 10 9 8 7 7 6 6 5
14 14 14 14 14 15 15 15 15 15 15 15 15 15 16 16 17 16 17 17 17 16 16 15 14 13 14 14 14 15 14 13 13 12 11 11 10 9 9 8 7 6 6
15 15 15 15 15 15 15 15 15 15 15 16 15 15 16 16 16 16 16 17 17 17 16 15 15 14 15 15 16 16 16 15 14 12 12 12 11 10 9 9 8 7 6
14 14 15 15 15 15 15 15 15 15 16 16 16 16 16 16 16 16 16 17 18 18 17 17 15 15 16 16 17 17 17 17 14 13 13 12 11 10 10 9 8 8 7
14 14 15 15 16 16 16 16 16 16 16 16 16 16 16 16 16 16 16 16 15 18 18 17 17 16 16 17 17 17 18 18 16 15 14 13 12 11 10 10 9 8 7
15 16 15 15 16 16 16 16 16 16 17 17 17 17 17 17 17 16 16 16 17 16 18 18 17 17 17 18 17 17 18 17 17 16 15 13 12 11 10 9 9 8 7
15 16 16 16 16 17 17 17 16 17 17 17 17 17 17 17 17 17 17 17 17 18 18 20 19 18 18 18 18 18 18 17 17 16 14 13 11 11 10 10 9 8 8
15 15 16 16 16 17 17 17 17 17 17 18 18 18 18 18 18 18 18 18 18 18 19 19 20 19 19 19 19 19 18 17 16 15 13 12 12 11 11 10 10 9 9
15 15 16 16 16 16 16 16 16 17 17 17 18 18 18 19 20 19 19 20 20 20 19 20 20 20 20 19 19 18 17 16 16 14 13 13 12 12 11 11 10 10 10
15 15 16 16 16 16 16 16 17 17 17 17 17 18 18 19 19 20 20 20 21 21 21 21 21 21 21 19 19 18 17 16 16 15 14 14 13 13 12 11 11 11 11
14 14 15 15 15 16 16 16 17 17 17 18 18 18 18 18 18 19 20 21 21 21 21 22 22 21 20 20 19 18 18 17 15 14 15 14 14 14 14 13 13 12 11
13 14 14 15 16 16 14 14 16 17 17 18 19 18 18 18 17 17 17 18 19 22 22 21 21 21 20 19 18 18 18 17 17 14 16 16 15 15 14 14 13 12 11
13 14 14 15 16 15 13 13 13 16 17 17 18 19 19 19 18 18 17 17 17 17 19 20 20 19 19 18 18 18 17 17 18 16 17 18 15 16 14 14 13 12 12
14 14 14 14 15 15 13 12 13 15 17 17 18 18 19 20 19 19 18 18 19 18 19 18 18 18 17 17 17 16 17 18 18 18 17 19 16 17 16 15 13 12 12
15 14 14 14 15 15 13 12 12 15 17 17 18 18 18 19 18 17 18 19 19 19 16 16 15 15 15 15 15 18 20 21 21 19 18 19 18 18 17 16 14 13 12
16 15 15 15 15 15 13 12 11 13 17 18 18 19 18 19 17 16 18 19 20 19 18 17 17 15 15 17 17 18 19 22 21 22 18 19 19 18 20 17 15 15 15

GFSMA_con_lsi_009.txt.gz
Lid_Strength_Index
-0 0 1 0 0 2 3 4 6 7 7 8 8 8 8 8 8 7 6 5 4 3 3 2 2 1 0 0 -1 -1 0 0 1 2 1 1 1 0 -0 -0 -1 -1 -1
-0 1 1 1 1 2 4 6 6 7 7 7 8 9 9 8 8 8 7 6 4 3 3 3 2 2 1 1 1 2 1 1 2 3 2 2 2 2 1 1 0 1 0
0 1 2 2 2 3 5 6 7 7 8 8 8 9 9 8 9 9 7 6 5 5 4 3 3 2 2 2 2 2 1 2 3 3 2 3 3 2 2 2 1 1 1
1 2 3 3 3 5 6 7 8 8 8 9 9 9 8 8 9 9 8 7 7 7 6 5 4 4 3 4 4 2 2 3 2 3 3 3 2 2 2 2 2 2 1
2 3 3 3 4 6 7 8 8 8 8 9 9 9 9 8 9 10 9 9 10 8 8 8 7 7 7 5 4 3 3 4 4 4 3 4 4 3 3 3 3 3 2
2 4 4 5 6 7 8 7 8 8 8 9 11 10 9 9 9 9 10 10 10 10 9 9 8 8 6 5 4 4 3 4 5 5 5 5 5 4 4 4 3 3 3
3 4 5 5 7 8 8 8 8 9 8 9 10 10 11 10 10 9 9 10 11 11 10 10 9 8 7 6 5 4 4 5 6 6 6 6 6 5 5 5 4 4 4
3 5 6 6 7 8 8 8 9 10 9 10 9 10 12 12 11 11 10 11 11 11 11 11 10 10 8 7 7 6 7 7 7 7 7 7 7 6 6 5 5 4 4
4 5 6 7 7 8 8 8 9 10 11 11 9 9 11 12 12 11 11 11 12 12 12 12 11 11 9 9 9 10 10 9 9 9 8 8 7 7 6 6 5 5 5
5 6 7 7 8 8 9 9 9 9 9 12 11 11 10 9 12 14 11 11 12 12 12 12 12 11 9 10 11 12 12 11 11 10 10 9 8 7 7 7 6 6 5
6 6 7 8 8 9 9 9 10 9 9 10 12 11 12 11 10 10 13 13 12 12 12 12 12 12 10 11 12 13 13 12 12 12 11 11 10 9 8 7 7 6 6
7 7 7 8 8 9 9 9 9 10 10 10 10 11 12 12 12 11 11 13 14 13 13 13 12 12 11 12 14 14 14 14 13 13 12 12 11 10 9 8 7 7 7
8 8 8 9 9 9 9 9 10 10 10 10 10 10 11 11 11 11 11 12 13 14 14 13 12 12 12 12 14 14 15 15 14 14 13 13 12 11 11 10 9 9 8
9 8 9 9 9 9 9 10 10 11 11 11 11 10 11 11 11 11 11 13 14 15 14 14 13 12 12 13 13 15 15 16 15 14 14 13 13 12 11 11 10 10 9
10 10 10 10 10 10 10 10 10 11 11 11 11 11 11 11 11 11 11 11 12 16 16 14 15 12 13 13 15 15 15 15 16 15 14 14 13 12 12 12 11 10 10
11 11 11 11 11 11 11 11 11 11 11 12 12 12 12 12 12 11 11 11 11 12 14 14 14 13 13 14 15 15 15 16 16 15 15 14 13 13 12 12 11 11 11
11 11 11 12 12 12 12 12 12 12 13 12 13 13 13 12 12 12 12 12 13 12 12 16 14 14 14 15 16 17 16 17 16 15 15 14 14 13 13 13 12 12 12
12 11 12 12 12 12 12 12 13 13 13 13 13 13 13 13 13 13 13 14 14 14 13 17 16 16 15 16 17 18 18 17 17 15 14 14 13 13 13 13 13 13 13
13 12 12 12 12 13 12 12 13 13 13 13 13 13 13 13 14 14 14 15 15 16 15 16 17 16 17 16 17 18 18 18 18 16 14 14 14 13 13 13 13 13 13
12 12 12 12 12 12 13 13 13 14 13 13 13 13 13 14 14 14 14 15 15 15 15 15 18 18 18 18 18 19 19 18 18 17 16 15 15 14 14 14 14 13 13
12 11 12 12 12 12 13 13 13 14 14 14 14 14 13 13 14 13 14 14 14 15 15 16 17 18 19 19 19 18 18 18 17 16 17 17 16 16 15 14 14 14 13
11 11 12 12 12 12 11 11 12 13 14 14 14 14 14 14 14 13 12 12 13 14 15 16 17 18 18 18 18 18 18 18 19 15 16 16 16 17 16 16 14 13 13
12 12 12 12 13 12 10 10 10 12 13 14 14 14 14 14 14 15 13 11 12 11 12 14 16 16 17 18 17 17 18 17 17 16 16 18 17 18 16 16 14 13 13
14 13 13 12 12 13 11 10 10 11 12 13 13 14 14 14 14 15 15 14 14 14 13 13 14 15 16 16 16 16 17 16 17 18 17 19 17 18 16 16 14 13 13
15 15 14 14 13 12 11 11 10 11 12 12 13 13 13 14 13 13 15 15 15 14 13 12 13 13 13 13 14 15 17 18 19 19 18 19 18 18 17 18 16 14 13
15 15 16 15 15 14 11 10 10 11 12 12 12 12 12 12 12 11 14 14 15 15 16 15 16 15 14 14 13 15 16 18 19 20 18 19 19 19 20 17 16 15 15

GFSMA_con_lsi_012.txt.gz
Lid_Strength_Index
4 4 3 2 2 4 5 6 9 9 9 10 10 10 10 10 10 10 9 5 3 2 2 2 1 1 0 0 -0 -1 0 0 1 1 1 1 1 -0 0 -0 -0 0 -0
4 4 3 3 3 3 5 8 9 9 10 10 10 10 11 11 10 10 8 7 3 2 3 3 2 1 1 1 1 1 0 1 3 2 2 2 2 2 1 1 1 1 1
4 4 4 4 4 5 7 9 9 9 10 10 11 11 11 10 11 10 10 8 7 4 3 2 2 2 1 2 2 2 1 2 3 1 3 3 2 2 1 1 2 2 1
4 5 4 4 5 6 9 10 10 11 11 11 12 12 11 11 11 10 10 9 9 8 6 4 3 3 2 2 3 1 2 3 3 3 3 2 3 3 3 3 2 2 2
4 4 5 5 6 8 10 10 11 11 12 12 11 12 12 12 12 11 11 11 12 10 9 7 6 6 6 4 3 3 3 3 4 4 4 4 4 4 4 3 3 3 3
3 5 6 6 7 9 10 10 11 11 11 12 11 11 12 12 12 13 12 12 12 12 11 11 11 9 5 5 4 3 3 4 5 5 5 5 5 5 5 4 4 3 3
4 6 7 7 9 9 10 10 11 12 12 12 12 13 13 13 13 13 13 13 13 12 12 12 12 10 9 5 4 3 3 4 6 6 6 6 6 6 5 5 4 4 4
5 6 7 8 10 11 11 11 11 12 12 12 13 14 16 15 13 13 13 13 14 14 13 12 12 11 10 9 7 4 4 5 6 7 7 7 7 6 6 5 5 5 4
5 7 8 9 10 11 11 11 12 12 14 13 11 12 15 16 16 15 14 14 14 14 14 14 12 12 11 10 10 9 7 7 8 8 8 8 7 7 6 6 6 5 5
6 7 8 9 11 11 12 11 11 11 13 13 13 11 12 13 15 18 15 15 15 14 15 14 14 13 11 12 12 11 10 10 10 9 9 9 8 7 7 7 6 6 6
8 8 8 9 10 11 12 12 13 12 12 13 13 14 14 14 14 16 18 17 16 15 15 14 14 13 11 13 14 13 11 11 11 11 10 10 9 9 8 7 7 7 6
10 9 9 10 10 11 12 12 13 13 13 13 13 14 14 15 16 15 16 18 18 17 16 15 14 14 12 13 13 12 12 11 11 11 11 11 10 10 9 8 8 8 7
12 11 11 11 11 11 11 12 13 13 13 13 13 12 13 13 14 14 15 17 18 17 17 16 15 14 12 14 15 14 13 12 12 12 12 12 11 11 10 10 9 9 9
13 13 12 12 11 11 11 12 13 14 14 13 14 14 13 13 14 14 14 16 18 19 18 17 15 14 13 14 15 14 16 13 12 12 12 12 12 11 11 11 11 10 10
12 13 13 13 13 13 13 13 14 14 14 14 14 14 14 14 14 14 14 15 16 19 18 17 17 14 13 14 15 16 17 14 13 13 12 12 12 11 11 11 11 11 11
13 13 13 13 13 13 14 14 15 14 15 15 14 14 15 15 14 14 14 15 15 15 18 17 16 15 13 14 14 17 17 15 14 13 13 13 12 12 11 12 12 11 11
14 13 13 14 14 14 14 14 14 14 15 15 14 14 14 14 15 15 15 15 15 15 16 18 17 15 15 15 16 17 17 17 17 14 13 13 13 12 12 12 12 12 12
13 13 14 14 14 14 14 15 15 15 15 15 15 15 14 14 15 15 14 15 15 16 17 19 17 17 17 16 17 18 18 18 18 15 14 13 13 13 12 12 13 13 13
14 14 14 14 14 14 14 13 14 14 14 15 14 14 14 15 14 14 15 14 15 14 15 18 18 18 18 16 19 19 19 19 18 16 13 13 13 13 12 13 13 13 13
14 15 14 14 14 13 13 13 14 14 13 13 13 14 13 14 14 14 14 14 14 14 14 18 19 18 19 18 17 19 20 19 19 18 16 15 14 13 13 13 13 13 13
13 14 14 14 13 13 13 13 14 13 13 13 13 13 13 13 13 13 14 13 14 14 14 15 19 20 19 19 18 18 19 19 19 18 18 18 17 17 16 14 14 14 14
14 14 14 14 13 13 11 10 9 11 12 13 13 13 13 13 13 11 11 11 12 14 14 15 15 17 18 18 17 19 18 19 20 17 18 18 17 18 17 16 15 14 14
13 14 15 14 14 14 11 11 10 11 11 11 11 12 12 12 12 13 12 11 11 11 11 14 14 15 17 18 17 18 18 17 18 17 17 18 17 17 16 16 14 14 14
14 14 15 15 15 15 12 11 11 11 12 11 11 11 11 12 11 12 13 14 13 13 12 12 13 13 14 16 16 16 16 16 18 17 16 19 17 18 17 17 14 14 14
15 15 15 15 16 16 13 13 13 13 13 12 12 11 11 11 11 9 11 13 14 14 12 11 11 11 11 13 14 15 17 18 22 20 18 19 19 18 17 17 16 14 14
17 17 17 17 17 17 15 14 14 15 15 14 13 12 11 10 9 9 11 12 14 14 14 14 13 12 12 13 13 15 16 18 19 23 18 19 19 19 20 17 17 17 15

GFSMA_con_lsi_015.txt.gz
Lid_Strength_Index
4 4 5 5 4 4 5 6 7 9 10 10 10 11 11 11 11 9 9 4 2 2 1 1 1 0 0 0 -0 -1 -1 0 1 1 1 1 0 0 0 -1 0 0 0
4 5 5 5 4 4 5 7 9 10 10 11 11 11 11 11 11 10 9 6 2 2 2 2 1 0 0 -0 -0 0 -0 1 3 2 2 3 2 2 1 1 2 2 1
3 5 6 5 4 4 6 8 9 10 11 11 11 11 11 11 11 11 9 8 6 3 2 2 2 1 0 1 1 2 0 2 3 2 3 3 2 1 1 2 2 1 1
3 5 6 6 5 5 7 9 10 11 11 12 12 12 12 11 11 11 11 9 9 8 5 3 2 1 1 1 2 0 1 1 2 4 3 3 3 3 3 3 3 3 2
5 5 6 7 7 7 9 9 11 11 12 13 12 13 12 12 12 11 11 12 12 10 9 6 6 5 4 2 2 1 1 2 3 3 4 4 4 4 4 4 3 4 3
4 6 6 7 7 9 10 11 11 12 12 13 12 12 13 12 12 13 12 12 12 11 10 11 11 9 5 4 2 2 2 3 3 5 5 5 5 5 5 4 4 4 4
3 5 6 7 9 9 10 11 12 12 13 13 13 14 14 13 13 13 13 13 13 12 12 12 12 11 9 4 3 2 2 2 4 5 5 6 6 6 5 5 5 4 4
4 5 7 7 9 10 11 12 12 13 13 13 14 15 16 15 14 13 13 13 14 13 13 12 13 11 10 9 6 2 2 3 4 5 6 6 6 6 6 5 5 5 5
5 6 7 8 9 10 11 11 12 12 13 13 13 14 17 17 16 14 14 14 14 15 14 14 13 12 10 10 8 6 3 4 5 6 6 7 6 6 6 6 6 5 5
7 7 7 8 9 10 11 12 12 12 13 14 14 12 14 15 17 17 15 15 14 14 15 15 14 13 11 11 11 9 6 6 7 7 7 7 7 6 6 6 6 6 5
11 9 9 8 9 10 11 11 12 13 14 14 14 15 15 15 15 17 18 17 16 15 14 15 15 15 13 12 13 11 8 8 8 9 9 8 8 7 7 6 6 6 6
13 12 12 11 11 10 11 12 12 12 12 14 14 15 15 15 16 16 17 18 17 16 16 15 15 14 14 13 13 11 9 9 9 9 10 9 9 8 8 7 7 7 7
14 13 14 13 13 12 12 12 13 13 13 12 12 13 13 14 15 15 16 17 18 17 17 16 14 14 13 13 14 12 10 10 9 9 10 10 9 9 8 8 8 8 8
14 14 14 13 13 13 13 12 13 14 14 14 13 13 12 13 14 15 15 17 19 18 18 17 16 14 14 13 13 12 13 10 10 9 10 10 10 10 9 9 9 9 9
13 13 13 13 13 13 14 14 14 15 15 15 14 14 13 12 13 14 15 16 16 18 18 18 18 15 14 14 14 13 15 12 11 10 10 10 10 10 10 9 9 9 9
14 13 13 12 13 14 14 15 15 15 15 15 15 15 15 13 13 12 13 15 16 14 16 16 17 17 14 13 14 14 16 13 12 11 11 10 10 10 10 10 10 10 10
14 14 14 14 13 12 14 15 15 15 15 15 15 16 15 15 14 13 15 14 14 16 14 15 17 17 15 14 15 15 15 15 15 12 11 11 11 11 11 10 11 10 10
15 15 14 14 14 13 13 13 14 13 15 15 14 15 15 14 15 14 14 14 13 14 13 14 18 17 16 15 15 16 16 16 16 13 12 11 11 11 11 11 11 11 11
14 15 15 15 14 13 13 13 12 13 13 13 13 13 13 14 15 14 15 14 13 14 15 16 17 18 17 16 18 16 17 17 17 15 12 12 12 12 12 11 12 12 12
14 14 14 13 13 13 13 13 12 12 12 12 13 13 13 14 13 14 14 14 14 14 14 15 18 18 18 18 16 17 19 18 17 17 14 13 13 12 12 11 12 12 13
13 13 14 14 14 14 13 13 13 13 12 12 12 12 12 13 12 12 13 13 13 14 14 14 15 19 19 18 18 17 16 17 17 17 17 17 16 15 14 12 13 12 12
12 12 13 13 14 14 12 11 11 13 13 13 13 12 12 12 11 10 10 10 11 13 13 13 14 15 16 16 16 17 16 18 19 17 18 18 17 17 16 15 12 12 12
13 13 13 13 14 14 11 11 11 13 14 14 13 13 12 11 11 11 10 9 10 10 10 12 13 13 14 15 16 16 16 16 16 17 16 18 18 18 17 16 13 12 12
14 14 14 14 15 15 12 12 12 13 14 14 14 13 13 12 12 11 11 11 11 10 11 11 11 12 12 14 14 14 15 15 16 17 16 18 18 19 17 17 13 12 12
17 17 17 17 18 17 14 14 14 15 15 16 15 15 14 14 12 10 11 12 11 11 9 9 9 9 9 10 13 14 16 17 18 18 17 17 18 17 18 18 16 12 12
19 19 19 19 20 21 17 16 16 17 18 17 16 15 14 14 12 11 12 11 12 12 11 10 10 9 9 10 10 14 14 17 16 19 17 18 19 19 20 18 17 15 14

GFSMA_con_lsi_021.txt.gz
Lid_Strength_Index
2 2 3 3 3 4 5 7 7 7 9 11 11 12 12 12 12 10 10 5 3 1 1 -0 -0 -1 -1 -1 -1 -1 -0 0 1 1 1 1 -0 1 0 -0 -0 -0 -0
3 2 3 4 4 4 5 7 7 7 10 11 11 12 12 12 12 10 10 8 3 1 0 0 -0 -1 -1 -1 -1 -1 -2 -0 1 2 2 2 1 2 1 1 2 2 1
2 2 3 4 4 5 6 7 8 10 10 11 12 12 12 12 12 11 9 9 7 4 1 1 0 -0 -1 -1 -1 -2 -1 1 2 2 3 2 2 2 1 2 3 2 2
2 3 4 4 4 5 6 7 8 10 11 12 13 13 13 12 12 12 11 9 8 7 5 2 2 1 -1 -1 -1 -0 0 0 2 2 3 3 3 2 3 3 3 3 3
3 3 4 4 5 6 6 7 9 9 11 12 12 13 13 13 12 11 12 11 9 8 8 6 4 5 3 0 -1 -1 -1 -0 0 2 3 3 3 3 3 3 3 3 3
3 3 4 4 5 6 7 8 9 11 11 12 12 13 14 13 13 13 13 12 11 11 10 9 9 8 5 3 0 -0 -1 -1 1 2 2 3 3 3 4 3 3 3 3
4 4 5 5 6 6 7 8 10 10 11 12 14 14 14 13 13 13 13 13 13 12 12 11 10 10 9 4 2 0 -0 -1 1 2 2 3 3 3 4 4 3 3 3
10 7 7 7 7 8 8 9 10 11 11 12 13 14 15 14 14 14 14 13 13 13 13 13 12 11 11 9 7 2 -0 -0 0 1 2 3 3 3 3 3 3 3 3
12 12 11 10 9 9 9 9 10 11 11 12 13 12 14 16 16 15 15 14 14 14 14 14 13 12 12 11 8 6 2 1 -0 0 1 3 3 4 4 3 3 3 3
14 13 13 13 12 11 10 10 10 11 12 12 12 12 13 14 15 15 15 15 15 14 14 14 14 13 13 12 9 7 6 3 1 0 1 2 3 3 4 4 3 3 4
14 14 14 14 14 13 13 13 12 11 11 12 12 13 14 14 15 15 16 16 16 15 14 14 14 14 13 13 12 9 6 4 2 2 2 4 4 4 4 4 4 3 3
15 14 14 15 15 15 14 14 14 13 13 12 12 13 13 14 14 15 16 16 16 16 16 15 15 14 14 14 12 9 7 5 3 3 4 4 5 5 5 4 4 4 3
16 16 14 14 14 15 15 15 15 15 15 15 14 13 12 12 13 13 14 14 15 17 17 17 16 15 14 14 13 10 9 6 4 4 4 5 5 6 6 5 5 4 4
15 15 15 14 15 15 15 15 16 16 16 16 16 16 15 14 13 13 13 14 15 14 14 17 17 16 15 14 13 11 11 8 6 4 5 5 6 6 6 6 5 5 5
14 15 15 15 15 15 15 15 16 16 16 16 16 15 15 14 14 14 14 14 14 16 15 13 17 16 15 15 14 13 13 11 8 6 5 6 6 7 7 6 6 5 5
15 15 15 15 15 15 15 15 15 15 16 16 15 15 15 15 14 13 14 14 15 15 16 15 13 16 15 15 14 14 13 11 10 7 7 6 7 7 7 7 6 6 6
14 14 14 15 15 15 15 16 16 16 16 15 15 16 15 14 14 14 14 14 13 14 16 15 14 15 16 16 15 14 14 13 13 9 8 7 7 7 7 7 7 7 7
14 14 14 14 15 15 15 16 16 16 16 16 15 15 15 14 15 14 14 14 14 13 14 16 14 14 16 16 15 15 14 14 14 12 9 8 7 8 8 8 8 7 7
14 15 14 15 15 15 15 15 16 16 16 15 15 15 15 15 15 14 14 14 13 12 13 14 14 13 13 15 16 15 15 14 14 12 10 9 8 8 8 8 8 8 8
15 15 15 15 15 15 15 15 15 15 15 15 15 15 15 15 15 14 14 14 13 13 13 13 14 14 13 13 14 14 15 15 15 15 13 11 10 9 8 8 8 9 9
15 15 15 15 15 15 14 14 14 15 15 15 15 15 15 15 13 13 14 14 14 14 14 14 14 14 14 16 14 13 13 13 14 14 15 15 13 12 11 9 10 10 9
14 14 15 15 15 14 12 12 12 14 14 15 16 15 15 15 14 13 13 12 13 14 14 13 13 14 13 13 13 12 12 13 15 14 14 15 14 14 13 12 10 9 9
15 16 16 16 16 16 14 12 13 14 15 16 16 16 16 15 16 16 14 13 13 13 12 12 12 12 12 11 11 13 12 12 12 13 13 15 14 15 13 13 10 9 9
17 17 17 17 17 17 14 14 14 15 16 16 17 17 17 17 16 16 16 16 15 15 14 13 13 12 11 10 9 10 11 11 11 11 11 15 14 15 14 13 11 10 9
19 19 18 18 19 19 16 15 15 16 17 17 17 17 17 17 15 14 15 16 16 15 12 11 11 10 10 9 8 9 10 11 12 12 13 12 13 14 15 14 14 11 10
19 19 19 19 20 21 17 15 15 16 18 17 16 16 14 15 13 12 14 15 17 16 15 15 14 12 11 11 9 8 9 10 11 12 11 13 12 15 17 15 14 14 12

GFSMA_con_lsi_024.txt.gz
Lid_Strength_Index
2 2 2 3 3 3 3 4 5 7 8 10 11 11 12 12 12 11 10 7 3 1 -0 -0 -1 -1 -1 -1 -1 -1 -1 -1 1 1 1 1 1 1 -0 -0 -0 -0 -1
4 3 3 4 3 3 4 5 5 7 8 11 11 11 12 12 12 12 10 9 4 2 0 -1 -1 -1 -1 -1 -1 -1 -1 -1 0 1 2 2 1 1 1 0 1 1 1
3 3 3 3 3 4 5 6 7 8 9 11 11 12 12 12 12 12 11 10 8 4 2 0 -0 -1 -1 -2 -1 -2 -2 -1 0 1 2 2 2 1 1 2 2 2 2
2 2 3 4 4 4 5 6 7 8 8 10 11 12 13 13 12 12 12 11 9 8 6 3 1 1 -0 -2 -1 -1 -1 -1 1 1 2 2 2 2 2 2 3 2 2
3 3 3 4 4 5 5 6 8 8 9 9 10 11 13 13 13 12 12 12 11 9 9 6 4 4 2 0 -1 -2 -1 -1 -0 0 2 2 2 3 2 3 3 3 3
5 4 4 5 5 5 6 7 8 9 10 11 11 12 13 13 13 13 13 12 12 11 11 10 9 8 5 2 0 -1 -2 -1 -1 0 2 2 2 3 3 3 3 3 3
10 8 7 7 7 7 7 8 9 10 10 12 12 11 12 13 14 13 13 13 13 12 12 12 11 11 10 5 3 0 -2 -1 -1 -0 1 2 2 3 3 3 3 3 3
12 12 11 10 10 9 10 10 11 11 11 12 12 13 14 13 14 14 14 14 14 14 13 13 13 12 12 11 8 3 1 -1 -1 -1 0 1 2 2 3 3 3 2 2
14 13 13 13 13 12 12 11 11 11 11 12 12 12 14 15 16 14 15 15 14 14 14 14 13 13 13 12 10 8 4 2 0 -1 -1 0 1 2 3 3 3 3 2
15 15 15 14 14 13 14 13 12 12 13 13 12 12 13 14 15 16 15 14 15 14 14 14 14 14 14 13 11 9 7 5 4 2 0 -0 0 1 2 2 3 3 3
16 15 15 15 15 15 15 14 13 13 13 13 13 13 13 14 14 15 15 15 14 14 14 14 14 14 14 13 13 12 8 7 5 4 3 2 0 1 2 2 3 2 2
16 16 16 16 16 16 16 15 15 14 14 13 13 14 14 14 14 14 15 14 14 14 15 15 15 15 14 14 13 10 9 8 6 5 3 2 1 2 2 3 3 3 3
17 17 16 16 16 17 16 16 17 16 16 15 15 14 13 14 14 14 15 15 15 15 15 15 15 15 14 15 14 12 10 8 7 6 4 3 2 3 3 3 3 4 4
17 17 17 16 16 16 16 17 17 16 16 16 16 15 14 14 13 14 15 16 17 15 14 14 16 15 15 15 14 12 13 10 9 7 5 4 4 4 4 4 4 4 4
16 16 16 16 16 16 16 17 17 16 16 16 16 15 15 15 14 14 14 14 16 18 17 15 16 15 15 15 14 14 14 12 10 9 7 4 4 4 4 4 4 4 4
15 15 15 15 16 15 16 16 16 16 16 16 15 16 15 15 15 15 14 14 14 15 18 14 13 15 14 13 14 14 14 12 11 10 8 7 5 5 5 5 5 5 5
15 15 15 15 15 16 16 16 16 16 16 16 16 16 15 15 15 15 15 15 15 15 17 16 14 12 14 14 13 14 14 14 14 11 10 8 7 6 5 6 6 6 6
15 15 15 15 15 15 15 16 16 16 16 16 16 16 16 15 16 15 15 15 15 15 16 17 15 14 13 12 13 14 13 14 14 12 10 9 8 7 7 6 6 6 6
15 15 15 16 16 16 16 16 15 15 15 15 15 15 15 15 16 16 16 15 15 14 15 16 16 14 13 13 13 13 13 13 13 11 10 10 9 8 7 7 7 7 7
16 16 16 16 16 16 16 15 15 15 15 15 15 15 15 15 15 16 16 16 15 15 15 15 16 15 15 13 14 14 13 13 13 12 11 10 10 9 8 7 8 9 8
16 16 16 16 16 15 14 14 14 14 14 14 14 14 14 14 13 14 15 16 15 16 16 16 16 16 15 15 15 13 14 13 12 12 13 13 12 11 10 8 9 9 8
16 16 16 16 16 15 12 11 11 13 14 15 15 15 15 15 15 14 13 13 14 16 17 16 16 16 15 14 13 14 13 13 14 13 12 13 13 13 11 10 8 8 8
16 16 16 17 17 17 13 12 12 13 14 15 15 16 16 15 16 16 15 14 14 14 13 15 17 17 16 15 14 14 13 13 13 12 13 13 13 14 12 11 8 7 7
17 18 18 18 17 17 13 13 12 14 15 16 16 16 16 16 16 16 16 16 15 15 14 14 15 16 15 15 15 15 14 13 13 12 12 14 13 12 11 11 9 8 7
19 19 18 19 19 19 15 13 14 15 16 16 16 16 16 16 15 13 14 15 15 14 12 12 12 11 11 11 11 12 14 15 16 14 11 12 12 12 12 11 11 8 8
19 18 19 19 19 20 16 14 13 15 17 16 16 15 13 13 12 12 13 15 16 15 14 15 14 13 12 13 11 13 14 16 15 15 11 12 12 12 15 13 11 11 10

GFSMA_con_lsi_027.txt.gz
Lid_Strength_Index
2 2 1 1 1 2 2 3 4 4 4 6 8 8 8 8 8 8 7 7 4 2 0 -1 -1 -1 -1 -1 -1 -1 -1 -1 0 1 1 1 0 0 -1 -0 -0 -0 -1
1 2 2 2 2 1 1 3 4 4 5 6 7 8 8 8 8 8 8 7 5 3 1 -1 -1 -1 -1 -1 -1 -1 -1 -2 -1 1 1 1 1 1 1 0 1 1 1
1 2 2 2 2 2 3 4 5 5 6 7 7 8 8 8 8 8 8 7 6 5 4 1 -0 -1 -2 -2 -2 -1 -2 -1 -1 0 2 2 1 1 1 1 2 2 2
3 3 3 3 3 3 4 5 6 6 6 7 7 7 8 8 8 8 8 8 7 7 5 4 2 1 0 -1 -2 -2 -1 -1 -0 0 0 2 2 1 1 2 2 2 2
4 5 5 5 4 5 5 6 7 7 7 8 9 8 9 8 8 9 8 9 8 7 7 6 5 5 3 1 -0 -1 -2 -2 -1 -1 1 2 2 2 2 2 2 2 2
7 7 7 6 6 6 6 6 7 8 9 10 10 10 9 9 9 9 9 9 9 9 8 8 7 6 6 4 2 -0 -1 -2 -2 -1 -1 1 2 2 2 2 2 2 2
10 9 9 9 8 8 9 8 8 8 9 9 9 8 8 9 10 10 10 10 10 10 9 9 8 8 8 6 5 3 0 -1 -2 -2 -1 -0 1 1 2 2 2 2 2
12 11 11 11 11 10 10 10 10 9 9 10 10 10 10 9 10 10 10 11 11 11 10 10 10 10 9 8 8 5 4 1 -0 -1 -2 -1 -0 1 1 2 2 2 2
13 13 13 13 12 12 12 11 11 11 11 10 10 11 11 12 12 10 10 10 10 10 10 11 10 10 10 9 9 8 7 5 3 1 0 -1 -1 -0 1 1 2 2 2
14 14 13 14 14 13 14 13 12 12 10 12 10 10 10 12 13 13 10 9 10 10 10 9 10 10 10 10 10 9 8 7 6 5 3 1 0 -1 -1 1 1 2 2
14 14 14 14 14 14 14 14 14 14 13 13 12 11 11 11 12 13 13 12 10 9 9 10 10 10 10 10 10 10 9 8 7 6 5 4 3 1 -1 -0 1 1 2
15 15 15 14 15 15 15 14 14 15 15 15 14 14 14 13 14 13 14 13 13 11 10 10 10 10 10 10 10 10 9 8 7 7 6 5 4 3 2 -0 0 1 2
16 16 15 15 15 15 15 14 14 15 15 15 14 14 14 14 13 13 13 14 14 13 12 10 10 9 11 10 11 12 11 10 9 8 7 6 5 4 2 0 1 1 2
15 15 15 16 15 15 15 14 14 14 14 14 14 14 13 13 13 13 14 14 15 14 13 12 10 9 9 10 11 11 10 11 10 9 8 7 6 4 2 1 1 2 2
15 15 15 15 15 14 14 14 14 15 14 14 14 14 14 13 13 13 13 13 15 17 16 13 12 9 9 9 9 10 10 11 10 9 9 8 7 6 3 2 3 3 3
14 14 14 14 14 14 14 14 15 15 15 15 14 15 14 14 14 13 13 13 13 15 17 14 13 12 10 10 10 10 10 11 10 10 9 9 8 7 5 4 4 4 3
14 14 14 14 14 15 14 15 15 15 15 15 14 14 14 14 14 14 14 14 14 14 16 15 14 12 12 12 11 10 9 10 11 11 10 9 9 8 7 6 5 4 4
14 14 14 15 15 15 15 15 15 15 15 15 14 14 14 14 14 14 14 14 14 14 15 17 15 14 13 12 12 12 11 10 10 10 10 10 9 9 8 7 6 5 5
14 15 15 15 15 15 15 15 15 15 15 15 15 15 15 15 15 14 14 15 14 14 14 15 16 14 14 13 13 12 11 11 10 9 8 9 9 9 9 8 7 7 7
15 15 15 16 16 16 16 15 14 14 14 14 14 14 14 14 15 14 14 14 14 14 14 15 15 15 15 14 13 13 13 11 11 11 10 9 9 9 9 9 8 8 7
16 16 16 16 16 16 14 13 13 13 13 13 13 13 13 13 12 13 13 14 14 14 15 15 16 15 15 15 15 13 13 12 11 10 11 10 10 10 9 9 9 9 7
17 17 17 17 17 15 13 11 11 12 13 14 14 14 14 14 13 13 12 12 13 14 16 16 16 16 16 16 15 16 15 15 16 10 11 11 10 10 10 9 9 8 7
17 17 17 16 16 16 13 11 11 12 13 14 14 14 15 14 14 15 14 13 13 13 12 14 15 15 15 15 15 16 17 17 17 15 13 14 10 11 10 10 9 8 7
17 17 17 17 16 16 13 12 11 13 14 14 14 14 15 15 15 14 14 14 14 14 13 13 14 14 13 13 13 13 14 15 15 14 13 16 12 12 10 9 9 8 7
17 18 16 17 18 18 14 12 12 13 14 14 14 14 14 14 13 12 12 13 13 12 11 10 10 10 9 9 10 12 14 15 17 15 13 14 13 13 12 11 9 9 8
17 17 18 18 18 19 16 13 12 13 14 14 13 13 12 11 10 10 11 12 13 13 12 13 12 11 11 11 10 11 12 15 16 17 13 14 14 13 14 10 10 9 9

GFSMA_con_lsi_030.txt.gz
Lid_Strength_Index
-1 -1 -0 0 -0 0 -0 1 2 3 2 2 4 5 5 5 5 5 5 5 5 3 1 -1 -2 -2 -1 -1 -1 -1 -1 -1 -0 0 1 1 0 -0 -0 -1 -0 -0 -0
0 0 1 -0 0 1 1 2 3 4 4 5 3 4 4 5 5 5 5 4 6 4 3 1 -1 -2 -2 -2 -2 -1 -2 -2 -2 -0 1 1 1 1 1 0 0 1 1
1 1 2 3 2 2 3 3 4 4 4 4 5 5 4 4 4 5 5 5 5 4 4 3 2 -0 -1 -1 -2 -2 -2 -2 -1 -0 1 1 1 1 0 0 1 1 1
3 3 3 4 4 4 5 5 5 5 5 4 3 4 6 5 5 5 5 5 5 5 4 4 3 2 1 0 -0 -1 -2 -2 -2 -1 -1 0 2 1 1 1 1 1 1
5 5 4 4 4 5 4 5 5 6 6 6 7 7 7 7 5 5 5 6 6 6 6 5 6 5 4 3 1 -0 -1 -2 -2 -2 -1 0 1 2 2 2 1 1 1
6 5 6 5 5 4 5 4 5 5 6 6 7 7 4 5 5 5 6 7 7 7 7 7 6 6 6 5 3 2 1 -0 -2 -2 -2 -1 -0 1 1 1 2 2 1
7 6 6 6 6 6 6 6 5 6 7 7 5 5 5 6 7 6 6 7 7 7 7 7 7 7 7 7 6 4 3 2 1 -1 -2 -2 -1 -0 0 1 1 2 2
9 9 8 8 8 8 8 7 7 6 7 7 8 7 7 6 7 6 7 8 7 7 7 7 7 7 7 6 6 6 5 4 3 2 1 -1 -2 -2 -1 0 1 1 1
11 11 11 11 10 10 10 9 8 8 8 7 8 8 9 9 9 7 8 7 8 7 7 7 7 7 7 6 6 6 7 6 5 4 4 3 1 -1 -1 -1 -0 1 1
12 11 11 12 11 11 11 11 11 10 10 11 9 9 8 9 10 11 8 8 9 10 10 8 9 8 7 7 7 7 8 8 7 6 5 4 3 3 1 -1 -1 -0 1
12 12 11 12 12 12 11 12 11 12 12 12 12 12 11 11 10 13 14 13 12 11 9 10 9 9 8 7 7 7 8 8 7 7 6 6 5 4 3 2 -0 -1 -0
12 12 12 12 12 12 12 12 12 12 12 12 12 11 12 13 13 13 14 14 14 12 11 11 10 9 8 7 8 9 9 8 7 7 7 7 6 5 4 3 2 0 -1
12 13 12 13 13 13 12 12 12 12 12 13 13 12 12 11 11 11 12 13 14 12 11 10 9 8 8 7 7 9 10 9 9 8 8 7 6 6 5 4 3 2 -0
12 12 13 13 13 12 13 13 13 12 12 12 12 12 12 11 11 12 12 13 14 13 12 11 9 8 7 6 8 8 9 9 10 9 9 9 7 7 6 5 4 3 0
12 12 11 12 12 12 12 11 12 12 12 12 12 12 12 11 11 11 11 12 13 16 14 12 11 9 9 9 9 9 9 8 8 9 10 9 9 8 7 6 5 4 2
11 11 11 11 11 11 11 11 11 11 12 11 11 12 11 11 11 11 11 12 12 13 15 12 11 10 10 10 10 10 10 9 8 8 8 9 9 9 8 7 7 5 4
11 11 11 12 12 12 12 12 12 12 12 12 12 12 12 12 12 12 11 12 12 12 14 13 12 11 12 12 11 10 10 10 9 9 9 8 8 9 9 9 8 7 6
11 11 12 12 12 12 12 13 13 12 13 13 12 12 13 12 13 12 12 13 13 13 14 15 13 13 12 12 11 11 11 11 10 9 9 8 8 8 8 8 8 8 7
11 12 12 13 13 13 13 13 12 12 12 12 12 13 13 13 13 13 13 13 13 13 13 14 15 14 13 12 12 12 12 11 10 10 9 9 9 8 8 8 8 7 8
12 12 13 13 13 13 13 13 13 12 12 12 12 12 12 12 12 12 12 12 12 12 12 13 13 13 14 13 13 14 13 12 12 11 9 9 8 9 9 8 8 8 8
12 13 13 14 14 14 13 12 12 12 12 12 11 12 11 11 12 12 12 12 12 13 13 13 14 14 14 14 15 14 15 14 13 13 13 11 9 8 8 8 9 8 8
13 14 14 14 14 14 14 12 11 11 11 12 12 12 12 12 12 11 11 11 11 13 14 14 14 15 14 13 13 13 15 15 17 13 14 15 13 13 11 8 8 8 8
14 14 14 14 14 13 13 11 11 11 11 11 12 12 12 12 12 12 12 11 11 11 11 12 13 13 14 13 13 14 14 14 15 13 13 15 13 14 12 11 10 8 8
14 14 13 14 13 13 13 12 11 11 11 11 12 12 12 12 12 12 12 12 12 11 11 11 11 11 11 11 11 11 12 13 12 12 11 15 12 13 12 12 11 10 9
13 13 13 14 14 14 13 12 11 11 11 12 11 11 11 12 11 10 10 11 11 10 9 8 8 8 8 7 8 10 11 12 13 12 11 13 12 13 13 13 12 11 9
14 14 14 14 15 15 14 12 11 11 11 11 11 10 9 10 9 9 10 10 11 10 9 8 8 8 8 9 8 9 11 13 13 14 11 13 12 12 15 12 11 11 11

GFSMA_con_lsi_033.txt.gz
Lid_Strength_Index
-1 -1 -1 -1 -0 -1 -1 -0 1 2 2 2 2 3 4 4 4 4 4 5 4 3 2 0 -2 -2 -2 -2 -1 -1 -2 -1 -1 -0 0 0 -0 -0 -0 -0 -1 -1 -1
1 1 1 1 1 1 1 2 3 3 4 3 3 3 3 3 4 4 4 3 4 4 4 2 1 -1 -2 -2 -2 -2 -2 -2 -2 -2 0 1 1 0 0 0 0 0 0
1 2 3 3 3 3 3 3 4 4 3 3 3 3 3 3 3 4 4 4 4 3 4 3 3 2 1 -1 -1 -2 -2 -2 -2 -1 -1 0 1 1 1 0 0 1 1
3 2 3 4 4 4 4 5 5 5 5 5 5 4 5 5 4 4 4 4 4 6 4 5 5 4 3 2 1 -0 -1 -2 -2 -1 -2 -1 1 1 2 1 1 1 1
5 4 4 4 5 5 4 4 4 4 4 4 5 5 5 5 4 4 5 6 6 6 6 5 5 5 5 4 3 2 1 0 -1 -2 -2 -2 -1 0 1 1 1 1 1
4 4 4 4 3 4 4 3 3 4 5 6 6 4 3 3 4 5 6 6 6 6 6 6 6 6 5 5 4 3 3 2 2 1 -1 -2 -2 -1 -0 0 1 1 1
6 6 6 5 5 6 6 5 4 5 6 6 5 5 4 5 6 5 6 6 6 6 6 6 6 6 6 5 5 4 3 3 3 3 2 1 -1 -2 -1 -1 -0 1 1
9 9 8 8 8 8 8 7 7 6 6 6 8 6 6 6 6 6 6 6 7 9 8 9 8 8 7 6 6 4 4 4 3 3 3 3 3 1 -1 -2 -1 -1 -0
11 10 10 10 10 9 10 10 9 9 9 8 8 8 9 9 9 6 7 8 9 10 9 9 10 9 8 7 6 6 6 6 5 5 4 4 3 3 3 1 -1 -2 -1
11 11 11 10 10 10 10 10 10 10 10 11 9 10 9 9 11 13 10 9 11 11 11 10 11 9 9 8 7 7 8 7 7 6 6 5 5 4 3 3 2 0 -1
12 12 11 11 11 11 11 11 10 10 10 11 11 10 10 11 10 13 14 13 12 11 10 11 11 10 9 9 7 8 9 9 9 8 7 7 5 5 4 3 3 3 2
12 12 12 11 12 12 11 11 10 11 11 11 10 11 11 12 13 13 14 13 13 11 11 10 8 9 8 10 8 9 9 9 9 9 8 8 7 6 5 4 4 3 3
13 12 12 12 12 12 12 11 11 11 11 11 11 11 11 11 11 12 12 13 13 12 10 9 9 8 8 6 7 9 9 9 9 9 9 8 8 8 7 5 4 4 4
13 12 12 12 12 12 12 11 11 11 10 10 11 10 11 10 10 11 12 13 14 13 12 11 9 9 8 8 9 8 9 8 8 8 8 8 8 7 8 7 6 5 4
12 12 12 12 12 11 11 11 11 11 10 10 10 10 10 10 10 10 11 11 13 15 15 12 12 9 9 9 9 10 10 9 9 8 8 7 7 7 7 7 7 7 5
12 12 12 12 11 11 11 10 10 10 11 10 10 11 10 10 11 10 10 11 11 13 15 12 11 11 10 10 10 10 10 9 9 9 8 8 8 7 7 7 7 6 7
12 12 11 11 11 11 11 11 11 11 11 11 11 11 11 11 11 11 11 11 11 12 14 13 12 11 12 12 11 11 11 11 11 10 9 9 8 8 8 7 7 6 6
11 12 11 11 11 12 11 12 12 11 12 12 11 12 12 11 12 11 11 12 12 12 13 15 13 13 13 12 12 12 11 11 11 10 9 8 8 8 8 8 8 7 7
11 12 12 12 12 12 12 12 12 12 11 11 11 12 12 12 12 12 12 12 12 11 12 13 14 12 12 12 13 13 13 13 11 10 10 10 10 9 9 8 8 8 8
11 12 12 12 12 12 12 12 12 11 11 11 10 11 11 11 11 11 12 12 12 12 12 13 13 13 13 12 12 14 14 13 14 12 12 12 11 10 9 9 9 8 8
11 11 12 12 12 13 12 12 11 11 11 11 10 10 10 10 10 11 11 11 12 12 13 13 14 14 14 14 14 13 14 14 13 13 13 13 14 14 13 12 11 11 10
12 13 13 13 13 13 12 12 11 11 10 11 11 10 10 10 10 10 10 9 10 12 13 13 14 14 14 13 13 13 13 15 16 12 13 14 13 14 14 13 11 10 10
12 13 13 13 13 13 11 11 10 11 11 10 11 11 11 11 10 11 10 9 9 9 9 11 13 13 13 12 12 13 13 13 14 12 12 14 12 13 12 12 11 11 11
13 13 13 13 13 12 11 11 10 11 10 10 10 11 11 11 10 10 11 10 10 10 10 10 10 11 11 10 11 11 12 12 11 10 10 14 11 13 12 12 10 10 11
13 13 13 13 13 12 11 11 11 11 11 10 10 10 10 10 9 8 9 11 10 10 8 7 7 7 7 7 7 9 11 12 13 12 10 12 12 13 12 12 12 10 10
13 13 12 12 13 14 12 11 10 11 11 11 10 10 8 8 8 7 8 9 11 11 11 11 10 10 9 9 8 9 11 13 13 14 11 12 13 13 15 12 12 12 12

GFSMA_con_lsi_036.txt.gz
Lid_Strength_Index
1 0 0 0 0 1 1 1 2 4 5 3 4 5 6 7 7 8 8 5 4 4 2 0 -1 -2 -2 -2 -2 -2 -2 -2 -2 -1 -0 0 0 -0 -0 -0 -1 -1 -0
2 2 3 2 3 2 2 3 4 4 5 4 4 4 5 5 6 7 7 7 5 4 4 2 2 0 -0 -1 -2 -2 -2 -2 -2 -2 -1 -0 1 1 0 0 0 -0 0
2 3 4 4 4 4 4 4 4 4 5 4 4 4 4 5 5 6 6 7 7 5 4 4 4 3 3 2 1 -0 -1 -2 -2 -2 -1 -1 -0 1 1 1 1 1 1
4 4 5 5 4 4 4 5 5 5 4 5 5 5 5 5 5 5 6 7 8 8 7 5 5 4 4 3 3 2 1 0 -0 -1 -2 -2 -1 -0 0 1 1 0 0
5 5 5 5 4 4 4 4 5 6 7 8 7 7 6 7 6 7 8 8 8 8 9 6 5 5 4 3 3 3 2 2 2 1 1 -1 -2 -2 -1 -0 -0 0 0
6 6 6 6 6 7 7 7 7 7 8 9 7 6 6 7 7 8 8 7 8 9 9 8 8 8 5 5 3 3 2 2 2 2 2 1 1 -0 -2 -2 -1 -0 -0
8 9 9 9 9 10 10 9 7 8 9 10 8 8 8 8 8 8 8 9 11 11 10 10 11 11 9 6 5 4 3 3 3 3 3 3 2 1 0 -1 -2 -2 -1
11 11 11 12 12 12 12 12 12 10 10 11 11 9 10 9 9 8 10 10 12 12 11 11 12 11 10 9 7 5 5 5 5 5 4 3 3 3 2 1 0 -0 -2
12 12 13 13 13 13 13 14 14 13 14 12 12 11 12 13 12 9 12 12 13 13 13 11 12 11 11 9 8 8 7 7 7 7 6 6 5 4 3 3 2 1 1
13 13 13 13 13 13 14 14 13 14 13 14 13 12 13 13 15 16 13 13 12 11 12 12 13 11 11 10 9 7 7 7 7 8 7 7 6 6 5 4 3 3 2
14 14 14 14 14 14 14 14 14 14 14 14 14 14 14 14 15 16 17 16 14 13 12 12 12 11 11 10 11 8 7 7 8 8 8 8 7 6 6 6 5 3 3
15 15 14 15 15 15 14 14 14 14 14 14 14 14 14 15 15 15 16 16 16 14 11 11 11 10 10 9 7 7 8 7 7 8 8 8 7 7 6 6 6 5 4
16 16 15 16 16 15 15 14 15 15 15 15 14 14 13 13 13 13 14 15 16 14 13 11 11 10 9 9 9 8 8 8 8 7 7 7 7 7 7 6 6 6 6
16 16 16 15 15 15 15 15 15 15 15 15 14 14 13 13 12 13 13 15 16 15 15 14 11 11 10 10 9 8 10 9 8 7 8 8 7 6 6 6 7 6 6
15 15 15 16 15 15 15 15 15 15 14 14 14 13 13 13 12 13 12 13 14 17 16 15 14 12 11 11 10 11 11 10 9 8 8 8 8 7 7 6 6 6 5
16 16 16 16 16 16 16 15 15 14 14 14 13 14 14 13 13 13 13 13 13 15 16 14 13 13 12 11 11 11 12 10 10 9 9 8 8 8 7 7 7 6 6
16 16 16 16 16 16 16 15 15 14 14 14 14 14 13 13 14 13 13 13 13 14 15 14 13 13 13 13 12 12 12 13 12 10 10 9 8 8 8 7 7 7 7
16 16 16 16 16 16 15 15 15 14 14 14 13 13 13 12 14 13 13 13 13 13 14 15 13 13 13 13 13 13 12 12 12 11 9 9 9 9 9 9 9 8 8
16 16 16 16 16 15 15 15 14 14 13 13 13 13 13 13 13 13 13 13 13 12 13 13 14 13 13 13 13 13 12 12 11 10 10 10 10 10 10 9 9 9 9
17 17 16 16 15 15 15 14 14 13 13 13 12 12 12 12 12 13 12 13 12 13 13 13 14 14 14 13 13 14 14 13 13 11 11 10 10 10 10 10 10 10 10
16 16 16 16 15 15 14 14 13 13 13 13 12 12 11 11 9 10 11 12 12 13 13 14 14 14 14 14 14 13 14 14 13 13 13 13 12 12 12 11 12 11 10
16 16 16 16 16 14 12 12 12 13 12 12 12 11 11 11 11 9 9 9 9 12 15 14 14 14 13 12 12 12 13 14 16 11 13 13 12 12 12 12 10 10 10
16 16 16 16 15 15 12 11 11 12 12 12 11 11 11 11 11 11 10 9 9 9 8 10 12 12 13 12 12 13 13 13 13 12 11 13 11 12 11 10 9 9 9
16 16 16 15 15 15 11 11 11 12 12 11 11 11 11 11 11 10 11 11 11 10 9 9 9 9 9 9 9 10 10 11 11 10 10 14 11 12 11 10 8 8 9
16 16 16 16 16 16 11 10 10 12 12 11 10 10 10 10 9 7 9 11 10 9 7 7 7 7 7 7 8 11 13 14 14 13 10 12 12 12 11 11 10 8 8
15 15 15 16 16 18 11 10 10 12 16 12 11 9 8 8 7 6 8 9 12 11 10 10 10 11 10 10 9 11 12 14 14 14 10 12 12 12 13 12 11 10 11

GFSMA_con_lsi_039.txt.gz
Lid_Strength_Index
0 0 0 1 1 2 1 3 3 4 5 4 4 5 5 6 7 7 8 4 2 2 1 1 2 1 1 0 -1 -2 -2 -2 -2 -2 -1 -1 -0 0 0 -0 -0 -0 -0
2 3 3 3 3 3 3 4 4 5 5 4 4 4 4 4 5 6 7 6 3 3 2 2 2 2 2 2 1 1 0 -1 -2 -2 -2 -1 -1 -0 0 0 0 0 -0
4 4 4 4 3 4 4 4 4 4 4 4 5 5 5 4 4 6 7 7 7 4 3 2 2 2 2 1 2 2 1 1 1 1 -1 -2 -2 -1 -1 -0 -0 0 0
4 5 5 5 4 4 5 6 5 6 7 8 7 7 6 6 7 7 7 7 8 8 6 7 5 4 3 2 1 1 1 2 1 1 1 1 -0 -1 -2 -1 -1 -1 -0
5 5 6 6 6 7 6 6 8 9 10 9 8 8 7 8 9 8 9 10 10 10 9 8 8 6 4 3 2 1 1 2 2 2 2 2 1 1 -0 -1 -2 -2 -1
7 8 8 9 9 9 9 8 9 10 11 11 7 8 9 9 9 9 10 11 11 11 11 11 12 10 6 4 3 2 2 2 3 4 4 3 2 2 1 1 -0 -1 -2
10 10 10 11 12 12 12 10 9 13 13 13 10 9 9 9 10 10 12 12 12 11 12 11 12 11 10 5 4 4 4 4 4 5 5 5 5 4 3 2 1 0 -0
12 12 13 13 14 14 14 14 13 13 14 14 12 11 12 10 11 11 12 13 13 12 12 11 12 11 11 9 8 5 4 4 4 5 6 6 5 5 5 4 3 2 1
13 13 14 14 14 14 15 15 15 15 15 14 14 12 15 15 14 11 14 14 14 13 13 12 12 11 10 10 8 6 6 5 5 5 6 6 6 5 5 5 4 4 2
14 14 14 14 15 15 15 15 15 15 15 16 15 14 15 14 17 18 15 15 14 13 14 13 13 11 10 10 8 7 7 6 7 7 7 6 6 5 5 5 4 5 5
15 15 15 15 15 15 16 16 16 16 16 16 16 16 16 16 17 18 19 17 15 13 13 13 12 12 10 9 9 9 7 7 7 7 8 7 7 6 5 5 5 5 4
16 16 16 16 16 16 16 16 16 16 16 16 16 16 16 17 17 18 18 17 16 15 13 12 12 12 11 11 9 8 7 7 7 7 7 7 7 6 6 5 5 5 5
17 17 17 17 16 16 16 16 17 16 17 17 17 17 16 16 15 15 15 16 17 15 13 13 12 11 10 11 10 9 9 8 7 7 7 7 7 6 6 6 5 5 5
17 17 17 17 17 16 16 17 17 16 17 17 17 16 16 15 14 14 14 15 16 16 15 14 13 12 12 11 10 9 11 9 8 8 8 7 7 7 7 6 6 5 5
17 17 17 17 17 17 16 17 17 17 17 17 17 16 15 15 14 14 14 14 15 17 17 15 14 12 12 11 11 11 12 10 9 9 8 8 8 7 6 6 6 5 5
17 17 17 17 17 17 17 17 17 17 17 17 16 16 16 15 15 15 14 14 14 15 17 14 14 13 13 12 11 11 12 10 10 9 9 9 8 8 8 7 7 7 6
18 17 17 17 17 18 17 18 18 17 17 17 16 16 15 15 15 15 15 14 14 15 16 15 14 12 13 13 12 12 11 12 12 10 9 9 8 8 9 9 8 8 7
17 17 17 17 18 18 17 18 17 17 17 16 15 15 15 13 15 15 15 15 15 14 15 15 13 13 13 12 12 13 11 11 12 10 8 8 8 9 9 9 9 9 9
18 18 18 18 18 18 18 17 17 16 16 15 14 14 14 14 14 14 15 15 14 13 13 13 14 12 12 12 13 12 12 12 11 9 9 8 8 8 8 9 9 9 10
18 18 18 18 18 18 17 17 17 16 15 14 13 13 13 14 14 14 14 13 12 13 13 13 13 13 13 12 12 13 13 12 12 11 10 10 9 9 8 8 9 10 10
18 18 18 18 18 18 17 17 16 15 15 14 14 13 13 13 11 10 11 12 12 13 13 13 13 13 13 12 13 12 13 12 12 11 12 11 11 11 11 9 10 9 9
18 18 18 18 19 17 14 13 14 14 13 13 14 13 13 12 11 9 8 8 8 12 19 17 12 12 12 12 11 12 12 13 14 10 11 11 10 11 10 11 9 8 8
18 19 19 18 18 17 12 11 11 13 13 13 13 13 12 11 11 11 10 8 8 7 7 8 10 11 11 10 10 11 11 12 13 11 12 14 11 12 11 10 8 8 8
19 19 18 18 17 16 12 11 10 13 13 13 13 12 12 11 11 11 10 10 10 9 9 8 8 9 9 8 9 11 12 13 13 12 11 15 12 13 11 10 8 8 7
19 19 18 18 17 17 11 10 10 13 13 13 12 12 11 11 9 7 9 11 9 9 7 6 6 6 6 6 8 11 14 15 16 14 10 13 12 13 12 12 10 8 7
17 17 17 17 17 18 12 10 10 13 17 14 13 11 9 9 7 6 8 11 11 11 10 12 12 11 9 10 9 10 12 16 15 17 12 15 14 14 16 12 11 11 11

GFSMA_con_lsi_042.txt.gz
Lid_Strength_Index
1 1 2 1 2 1 2 4 4 4 5 4 5 5 6 7 7 7 6 3 2 1 0 -0 -0 -0 -0 0 0 -0 -0 -1 -0 -1 -1 -1 -2 -2 -1 -1 -1 -1 -1
2 3 3 3 3 2 3 4 4 5 4 5 5 5 5 6 7 8 8 7 3 5 3 2 1 0 -0 -1 -0 -0 -0 0 0 0 0 0 -0 -1 -2 -1 -1 -1 -1
4 4 4 4 4 4 4 4 5 5 6 5 6 5 6 8 8 8 8 9 9 7 6 5 4 2 1 0 -0 -0 -0 0 1 1 1 1 1 -0 -1 -1 -2 -1 -1
4 4 4 4 4 4 4 6 7 9 9 9 8 8 9 9 9 11 11 11 12 10 10 7 6 4 3 2 0 -0 -0 -0 1 2 2 2 2 2 1 -0 -1 -1 -2
6 6 7 7 7 7 8 9 10 10 10 9 8 9 10 10 11 12 12 12 13 13 13 10 8 7 4 3 2 2 1 2 2 3 3 3 3 3 3 2 1 -0 -1
8 9 10 10 9 9 10 11 13 13 12 10 9 10 10 11 12 14 14 13 14 13 13 14 13 11 7 5 4 3 2 2 3 3 4 4 4 4 4 3 3 2 1
10 11 12 12 12 11 11 11 13 14 14 13 10 11 12 12 13 14 15 15 14 14 13 14 13 13 11 7 5 3 3 3 3 4 4 4 4 4 4 4 3 3 2
13 13 14 14 14 14 15 14 14 14 15 15 12 12 13 12 14 15 15 15 16 15 14 14 14 13 12 11 7 5 5 4 4 4 4 4 5 4 4 3 3 3 3
14 14 15 15 15 15 16 16 15 15 16 16 16 13 16 16 15 13 16 16 16 16 16 15 14 13 12 11 10 9 6 6 5 4 4 4 4 4 4 4 4 4 4
15 15 15 15 15 15 16 16 16 16 16 17 16 15 17 16 18 19 17 17 16 16 16 15 15 13 12 12 10 9 7 7 6 6 5 4 4 4 4 4 4 4 4
16 15 16 16 16 16 16 17 17 17 17 17 17 17 18 18 18 18 20 19 17 16 16 15 15 13 12 12 11 10 8 7 7 7 6 5 5 4 4 4 4 4 4
17 17 16 17 17 17 17 17 17 17 17 17 17 17 17 19 19 19 19 19 19 17 16 15 14 13 13 12 11 9 8 8 7 7 6 6 6 5 4 4 4 4 5
18 18 17 17 17 17 17 18 18 18 18 18 18 18 17 17 17 17 18 19 19 18 16 15 14 13 12 13 12 10 10 9 8 7 7 7 6 6 5 5 4 4 4
18 18 18 18 18 18 18 18 18 18 18 18 18 17 17 17 16 16 17 18 19 19 17 16 14 13 13 13 12 10 12 10 8 7 7 7 6 6 6 5 5 5 5
18 18 18 18 18 18 18 18 18 18 18 18 18 18 17 17 17 17 17 16 17 20 19 16 15 14 13 13 12 12 12 10 8 8 7 7 7 6 6 6 6 6 6
18 19 19 19 18 18 18 18 19 18 18 18 18 18 18 17 17 17 17 16 16 17 18 15 15 15 14 12 11 12 12 9 9 8 7 7 6 6 6 6 6 6 6
19 19 19 19 18 18 18 19 19 18 18 18 18 18 18 17 18 18 17 16 16 16 17 16 15 14 14 13 12 11 11 11 10 8 7 6 6 6 6 6 6 7 7
19 19 19 19 19 19 19 19 19 18 19 18 18 18 18 16 17 17 16 16 16 16 16 17 15 14 13 12 12 12 10 10 10 8 7 6 6 6 6 6 6 7 7
19 19 19 19 19 19 19 18 18 18 18 18 17 17 17 17 16 16 16 16 16 14 15 15 15 13 12 11 11 11 11 10 9 7 7 7 7 7 6 6 7 7 7
18 19 19 19 18 18 18 18 18 18 18 17 17 16 16 16 15 15 15 15 14 14 14 14 14 13 12 10 10 11 12 10 10 9 8 8 7 7 7 7 7 8 8
18 18 18 18 18 18 18 18 18 18 18 17 17 15 15 14 12 12 14 14 14 14 14 13 13 12 12 11 11 11 11 11 11 9 11 10 10 10 10 8 9 9 8
19 18 18 19 19 18 15 14 16 17 17 17 16 15 14 14 12 10 10 9 10 14 22 19 12 11 11 10 10 11 11 12 15 9 11 13 11 12 10 10 8 8 7
18 18 18 19 19 19 14 13 13 17 16 16 15 14 14 13 13 13 11 9 9 8 7 9 10 10 10 9 10 10 12 12 13 11 12 15 12 12 11 10 8 7 8
18 18 19 19 19 18 14 12 12 15 16 15 14 14 14 13 13 13 13 12 12 11 10 9 8 8 8 7 8 10 11 13 12 11 11 16 12 13 11 11 9 8 8
18 19 19 19 19 19 13 12 12 15 14 14 13 13 13 13 11 9 11 13 11 10 7 6 5 6 6 6 8 11 16 15 16 14 12 13 12 14 13 12 10 8 8
17 18 18 19 19 19 13 11 11 14 17 14 14 13 11 12 10 9 10 12 12 11 10 13 12 11 10 11 9 10 12 15 15 17 12 14 14 14 16 12 11 11 11

GFSMA_con_lsi_045.txt.gz
Lid_Strength_Index
1 1 2 1 2 2 3 5 5 5 5 5 5 7 8 8 8 8 6 5 3 2 1 0 -0 -1 -1 -1 -1 -1 -1 -1 -0 -0 -1 -1 -1 -1 -2 -2 -1 -1 -1
2 2 3 3 3 3 3 3 5 4 4 4 5 6 7 8 9 9 9 9 6 5 4 2 1 0 -0 -1 -1 -1 -1 -0 0 1 1 1 0 0 -0 -1 -1 -1 -1
4 4 4 4 4 3 3 4 5 5 6 5 7 8 9 10 11 11 12 11 12 7 6 4 3 2 1 1 1 0 1 1 2 2 2 2 1 1 1 1 0 -0 -0
4 5 4 5 4 5 5 6 7 8 9 8 10 10 11 12 13 13 13 13 13 13 10 7 6 5 4 3 2 2 2 2 2 3 3 3 2 2 2 1 1 1 1
5 5 6 5 5 7 8 10 11 10 9 10 10 11 12 13 14 14 14 14 14 14 14 10 9 8 6 4 2 2 2 3 3 4 4 4 3 3 2 2 2 1 1
7 7 7 8 8 11 12 12 12 12 11 10 11 12 13 14 15 16 16 15 15 15 15 15 14 12 7 6 5 5 4 4 4 4 4 4 3 3 3 2 2 2 2
10 10 10 10 11 12 13 13 13 11 14 13 12 13 14 15 16 16 16 16 16 15 15 15 14 14 13 9 8 6 5 5 5 5 5 5 4 3 3 3 2 2 2
12 12 12 13 13 14 14 14 14 15 16 16 12 13 15 14 15 16 17 16 17 16 16 15 15 14 14 14 12 8 6 6 5 5 5 4 4 3 3 2 2 2 3
14 13 14 14 15 15 16 16 15 16 17 17 16 13 15 14 17 15 17 18 17 17 17 16 15 14 15 15 13 11 8 7 6 5 5 4 4 3 3 2 2 2 2
15 15 15 15 16 16 16 16 16 16 17 18 17 17 18 17 19 20 19 18 17 17 18 17 16 15 16 15 13 11 9 8 7 6 5 4 4 3 3 2 2 2 2
16 15 16 16 16 16 17 17 17 17 17 18 18 19 19 20 20 20 21 19 18 18 18 17 17 17 16 16 15 12 9 8 7 7 6 5 5 4 3 3 2 2 2
17 17 17 17 17 17 17 18 18 18 18 18 19 19 19 20 20 20 21 20 20 18 17 17 17 16 16 16 14 11 9 8 7 7 6 6 5 5 4 3 3 3 2
18 18 18 18 18 18 18 18 18 18 19 19 19 19 19 18 18 18 19 20 20 19 17 17 17 16 15 15 14 11 11 9 8 7 7 6 6 5 4 4 4 3 3
18 18 18 18 18 18 18 19 18 19 19 19 19 19 18 18 18 18 18 19 21 20 19 18 17 16 15 14 12 11 13 11 8 8 7 6 5 5 4 4 4 4 4
17 18 18 19 19 19 19 19 19 19 19 19 19 19 18 18 18 18 18 18 19 21 21 19 18 16 15 14 13 13 13 11 9 8 7 6 5 4 4 4 3 3 3
18 18 19 19 19 19 19 19 19 20 20 20 19 19 19 19 19 18 18 18 18 20 21 18 17 16 15 14 13 13 13 10 10 8 6 5 4 4 4 4 4 3 3
19 19 19 19 19 19 19 19 20 20 19 19 19 19 19 19 19 19 19 19 19 18 20 18 16 16 15 15 14 13 12 12 10 7 6 5 5 5 5 4 4 4 4
19 19 19 19 19 19 19 19 19 19 19 19 19 19 19 18 19 19 19 19 19 18 18 19 17 16 16 14 14 14 12 10 9 7 5 5 5 5 5 5 5 5 5
19 19 19 19 19 19 19 19 19 19 19 19 19 19 19 19 19 19 19 19 18 16 17 17 17 15 14 13 13 12 11 10 8 6 6 6 6 6 6 6 6 6 6
19 19 19 19 19 19 18 18 18 19 19 18 18 18 18 18 18 18 18 18 17 17 16 16 16 15 14 12 12 12 12 10 10 8 8 8 7 7 7 7 7 8 7
19 19 19 19 19 18 18 18 18 18 19 19 18 17 18 17 15 16 17 17 16 16 16 16 15 14 14 13 13 11 11 11 10 9 11 10 11 10 9 8 8 8 7
19 19 19 18 18 18 15 15 17 18 18 18 18 18 18 17 15 13 11 10 12 16 21 20 14 14 13 12 11 11 11 12 13 10 12 12 11 11 10 9 7 6 7
19 19 19 19 18 18 14 14 14 18 18 18 18 18 17 16 16 16 13 10 10 9 9 11 13 11 12 11 10 10 11 12 12 11 12 14 11 12 10 9 7 6 6
19 19 19 18 18 18 14 13 13 17 18 18 18 17 17 16 15 15 15 15 14 13 12 11 11 10 10 8 8 9 11 14 13 12 11 16 12 13 11 10 7 7 6
19 18 18 18 18 18 14 13 13 17 16 17 17 17 16 15 13 11 13 15 14 12 9 7 6 6 6 6 7 11 20 22 17 14 11 13 13 14 12 12 10 7 7
17 18 18 18 18 17 14 12 12 16 18 17 16 15 13 13 11 10 11 15 15 12 12 13 12 11 10 11 9 11 13 20 16 18 11 14 14 14 17 12 11 11 11

GFSMA_con_lsi_051.txt.gz
Lid_Strength_Index
-0 0 1 1 3 3 4 4 4 5 6 6 7 8 9 9 8 8 6 4 2 1 1 0 0 0 0 0 1 2 2 2 3 3 3 2 2 2 2 2 1 1 1
-0 1 1 2 3 4 3 4 5 5 7 8 9 10 11 11 11 10 9 7 5 4 3 1 1 1 1 2 2 2 3 3 3 4 4 4 3 3 3 3 2 2 2
1 2 2 3 4 4 4 4 5 7 9 11 11 11 11 12 12 12 12 11 9 6 4 3 3 3 3 2 3 3 3 3 4 4 4 4 4 4 4 3 3 3 3
2 2 3 3 4 4 4 5 7 9 11 12 12 12 13 13 13 13 13 12 12 10 7 6 6 5 4 4 4 4 4 4 5 5 5 5 4 4 4 4 4 4 3
3 3 4 5 5 6 6 6 8 10 12 13 13 13 13 13 13 14 14 13 13 13 12 10 9 8 6 6 5 5 5 5 5 6 5 5 5 5 5 4 4 4 4
4 5 5 6 6 7 8 8 9 11 11 13 15 15 14 14 14 14 14 14 14 14 14 14 14 12 9 7 7 6 6 6 6 6 6 6 6 5 5 5 5 4 4
6 5 5 7 8 7 8 9 10 12 13 13 14 15 15 15 15 15 14 14 14 14 14 15 15 14 14 10 8 7 7 6 6 6 6 6 6 6 6 5 5 5 5
8 7 8 10 9 9 9 9 10 12 12 12 12 13 15 14 14 16 15 15 15 14 15 15 15 15 15 13 11 9 8 7 7 7 7 7 6 6 6 6 5 5 5
9 8 9 10 10 8 9 9 10 11 13 13 11 10 13 13 14 14 16 16 16 15 15 16 16 16 16 14 13 11 10 9 8 8 7 7 7 6 6 6 5 5 4
10 10 11 11 10 9 9 10 10 11 11 13 15 15 14 11 14 16 16 17 16 16 16 16 16 17 16 15 14 12 11 10 10 9 8 8 7 7 6 6 5 4 3
12 13 13 13 12 11 10 11 12 13 12 14 14 16 16 16 16 16 18 18 17 17 16 16 16 16 16 16 14 14 12 11 10 10 9 9 8 7 6 5 4 4 4
14 14 15 14 13 13 12 12 13 13 14 15 15 15 15 16 17 17 18 18 18 17 16 16 16 16 15 15 15 14 13 12 11 10 10 9 9 7 6 5 5 4 4
16 16 15 16 15 15 15 15 15 15 15 15 15 16 16 16 17 17 17 18 18 17 17 16 15 15 16 15 15 14 15 13 11 10 10 9 8 7 6 6 5 4 4
14 16 16 16 16 16 16 16 15 16 15 15 16 16 16 16 16 16 17 18 19 19 17 17 16 15 15 15 15 15 15 14 11 11 10 9 8 7 6 5 5 4 4
15 16 16 17 17 17 16 16 16 16 15 16 16 17 17 17 17 17 17 17 17 19 18 17 16 15 15 15 15 15 15 14 12 11 10 9 8 7 6 6 5 4 4
17 17 18 17 17 17 17 17 17 17 16 17 17 17 18 17 17 17 17 17 17 17 18 17 16 16 16 16 15 15 14 14 13 11 10 9 7 7 6 6 5 4 4
17 18 18 18 18 18 17 17 17 17 17 18 18 18 18 18 18 18 17 18 18 17 18 17 17 17 17 16 16 15 14 14 13 11 10 8 7 7 7 6 5 4 4
18 18 18 18 18 18 17 17 18 18 18 18 18 19 19 19 18 18 18 18 18 18 18 19 18 18 17 16 15 15 15 14 13 11 9 8 8 7 6 6 5 5 5
18 18 18 18 18 18 18 18 18 18 18 18 18 19 19 18 19 19 19 18 18 18 18 18 18 17 17 16 16 15 14 13 12 11 9 9 8 8 7 6 5 5 6
18 18 18 18 18 18 18 18 18 18 18 18 18 18 18 18 18 18 18 18 18 18 18 19 19 18 17 16 16 16 15 13 12 11 10 10 9 9 8 7 6 7 6
18 18 18 18 18 18 18 18 18 19 19 19 19 18 17 17 16 17 17 18 18 18 18 18 18 18 17 17 17 15 15 13 12 11 12 10 10 10 9 8 8 7 6
18 18 19 19 19 19 16 16 18 19 19 19 19 17 17 16 16 14 14 15 16 17 18 18 17 17 17 16 15 14 14 14 14 11 12 12 11 11 10 9 7 6 6
18 19 19 19 19 18 15 15 16 19 19 18 17 17 17 17 17 16 14 13 13 13 14 16 16 16 15 14 13 13 13 13 13 11 13 13 11 12 10 9 7 6 6
19 19 19 19 19 19 15 15 16 19 18 17 16 17 17 17 17 17 17 17 16 15 14 13 14 13 13 11 11 11 12 13 13 12 12 15 11 12 11 10 8 7 6
18 18 18 19 19 19 15 15 16 18 17 16 16 17 17 17 16 14 16 17 16 15 14 12 11 10 9 8 7 11 13 14 13 12 12 14 13 13 12 11 10 8 7
18 18 19 18 18 19 15 15 14 15 15 16 16 17 15 16 14 13 14 15 16 15 15 14 12 11 9 10 9 10 11 14 14 16 13 14 13 13 15 12 11 11 10

GFSMA_con_lsi_054.txt.gz
Lid_Strength_Index
-1 -0 0 1 3 4 3 3 3 3 4 5 6 6 6 5 4 3 4 3 2 1 0 -0 -0 1 1 2 2 2 3 3 3 3 3 3 4 3 3 3 3 3 2
-1 0 1 0 3 3 4 4 4 5 6 7 8 8 8 7 7 6 5 4 2 2 2 1 2 2 2 2 3 3 3 4 4 4 4 4 4 4 4 4 4 3 3
-0 1 1 2 3 4 5 5 6 8 9 9 9 9 9 9 9 9 8 6 5 4 4 3 3 3 3 3 3 4 4 4 5 5 5 5 5 5 5 4 4 4 4
-0 1 2 3 3 4 6 7 8 10 10 10 10 10 10 10 10 10 10 8 7 7 6 5 5 5 4 4 4 5 5 5 5 6 6 6 6 5 5 5 5 4 4
-0 2 2 3 4 5 6 7 9 9 11 10 10 10 10 11 11 11 11 11 10 9 9 8 8 7 6 5 5 5 5 6 6 7 7 6 6 6 5 5 5 5 5
1 2 3 4 4 5 6 8 10 10 11 11 12 12 11 11 11 11 11 12 11 12 12 11 10 9 8 7 7 6 6 6 7 7 7 7 6 6 6 5 5 5 5
3 3 4 5 5 6 6 9 10 12 12 11 12 13 13 12 12 12 11 12 12 12 12 12 12 12 11 10 8 8 7 7 7 7 7 7 7 6 6 6 5 5 5
4 5 5 6 6 8 7 10 10 12 12 11 11 12 14 14 13 13 12 12 12 12 13 13 13 13 12 12 11 10 9 8 8 8 8 7 7 6 6 6 5 5 5
7 6 6 6 6 7 9 9 10 10 11 11 9 8 12 12 13 14 14 13 13 13 13 14 14 14 13 13 12 12 11 10 9 9 8 7 7 7 6 6 6 5 5
7 7 9 8 8 8 8 8 9 9 9 11 10 10 10 9 11 15 14 14 13 13 13 14 14 14 14 14 14 13 12 11 10 9 9 8 7 7 6 6 6 5 5
8 8 8 9 9 8 8 8 9 8 8 9 10 12 12 12 11 12 15 15 15 14 13 14 14 14 15 14 13 14 13 12 11 10 10 9 8 8 7 6 6 6 6
8 8 10 10 9 8 7 7 7 8 8 9 9 11 12 13 13 13 14 15 15 15 14 14 14 14 14 14 15 15 14 13 12 11 10 10 9 8 7 7 6 6 6
8 9 12 13 12 10 7 7 8 9 9 10 10 12 12 12 12 13 13 15 15 15 15 14 14 14 15 14 14 15 15 14 12 11 11 10 9 9 8 7 7 7 6
8 8 11 13 13 12 9 9 9 9 10 10 11 12 13 13 13 13 14 15 17 17 15 15 14 14 14 14 15 15 14 14 12 12 11 10 10 9 8 8 8 7 6
9 11 12 13 14 14 11 11 10 12 12 12 13 13 13 14 14 14 14 14 15 17 17 15 15 14 13 14 14 14 14 14 13 12 12 10 10 9 9 8 7 6 6
10 12 14 15 15 15 12 12 13 13 13 13 14 14 15 15 15 15 16 16 15 14 16 15 15 14 14 15 14 14 14 14 13 13 12 11 10 9 9 8 7 6 6
12 13 15 16 16 16 15 14 14 14 15 15 15 15 16 15 16 16 16 16 15 15 15 16 15 15 15 14 14 14 14 13 13 12 12 11 10 10 9 7 6 6 6
13 13 16 16 17 17 17 15 15 15 15 16 16 16 17 17 17 17 17 16 15 15 15 16 16 16 15 14 14 14 14 14 13 12 12 11 10 9 8 7 6 6 6
13 14 16 17 17 17 17 16 15 16 15 15 16 16 17 17 18 18 17 16 15 17 16 16 16 15 15 14 14 14 13 13 13 12 12 12 10 9 8 7 6 6 7
14 16 16 17 17 17 17 17 16 16 16 16 16 16 17 18 18 17 16 16 16 16 16 16 16 16 15 15 15 15 14 12 13 12 12 12 10 8 8 7 7 7 7
15 16 17 17 17 18 18 17 17 16 17 17 17 17 17 17 16 15 16 15 16 16 16 16 16 16 15 15 15 14 15 13 13 12 13 11 10 9 8 8 8 7 6
16 17 17 18 18 18 16 15 17 18 17 18 18 18 17 17 16 14 14 14 14 14 15 15 15 16 15 15 14 14 14 15 16 11 12 12 10 10 9 8 7 7 6
17 17 17 17 18 18 15 15 16 18 18 18 18 18 18 17 15 15 13 13 13 13 12 14 15 14 14 13 13 14 14 14 14 11 12 13 10 11 9 8 7 6 6
17 17 17 17 18 18 15 15 16 17 17 17 17 17 16 15 15 16 15 15 14 13 12 12 12 12 11 11 12 13 12 12 11 11 11 15 11 11 10 9 7 7 7
17 17 17 17 18 17 14 14 16 17 17 18 17 15 14 15 15 13 15 15 15 14 13 11 11 10 11 11 11 11 11 13 13 11 10 13 12 11 11 10 9 8 8
16 17 17 17 18 16 14 14 16 17 17 17 15 15 15 14 14 13 13 14 15 14 13 13 13 13 12 11 9 9 9 11 12 12 10 13 11 11 14 10 10 10 10

GFSMA_con_lsi_057.txt.gz
Lid_Strength_Index
-1 -1 -0 2 2 2 2 2 2 3 3 4 4 4 3 2 3 3 3 2 0 -1 -0 0 1 1 2 2 2 3 3 3 4 4 4 4 4 4 4 4 4 4 4
-1 -1 1 2 3 3 2 2 3 3 5 5 6 5 5 4 4 4 3 3 2 1 2 2 2 2 2 2 3 3 3 4 4 5 5 5 5 5 5 5 5 4 4
-1 -0 1 2 2 3 4 5 6 6 6 7 8 8 8 7 6 6 5 4 5 3 3 3 3 3 3 3 3 4 4 5 5 5 6 6 5 5 5 5 5 5 5
-1 1 2 3 4 5 4 7 9 9 8 8 9 9 9 9 9 9 7 6 7 6 5 4 4 4 4 3 4 4 5 5 6 6 6 6 6 6 6 6 5 5 5
-0 1 2 3 4 4 6 8 9 9 9 9 9 9 10 10 10 10 10 8 8 8 7 6 6 6 5 5 5 5 5 6 6 7 6 6 6 6 6 6 6 5 5
-1 1 2 4 5 6 6 8 9 9 10 10 11 11 10 10 10 11 11 11 11 10 10 9 9 8 7 6 6 6 6 6 7 7 7 7 7 7 6 6 6 5 5
-1 1 2 4 5 6 6 8 9 10 10 11 12 12 12 12 12 11 11 11 12 12 11 11 11 10 10 8 7 7 7 7 7 8 8 7 7 7 6 6 5 5 5
0 1 2 4 5 6 7 9 10 11 11 11 11 12 14 14 13 12 12 12 12 12 13 13 12 11 11 11 10 9 9 8 8 8 8 8 7 7 6 6 6 5 5
2 3 3 4 5 6 8 9 11 11 12 11 10 10 13 13 14 13 13 13 13 13 13 13 13 13 12 12 12 12 11 10 10 9 9 8 7 7 7 6 6 6 5
4 4 4 6 6 6 9 9 9 9 11 12 10 9 9 10 13 17 14 14 13 13 13 13 14 13 13 13 13 14 13 12 11 10 10 9 8 7 7 7 6 6 5
5 6 6 5 6 6 7 8 9 9 9 11 10 11 10 10 10 12 16 16 15 14 13 14 13 14 14 14 13 14 14 13 12 11 11 10 9 8 7 7 6 6 6
7 7 7 7 7 7 8 9 9 9 10 10 10 10 11 12 13 13 14 16 16 15 14 14 14 14 14 14 15 15 15 13 12 11 11 10 10 9 8 7 7 6 6
8 8 9 8 8 7 8 8 9 9 10 10 10 11 10 11 12 12 13 15 16 16 15 14 14 14 14 14 14 15 15 15 13 12 11 11 10 9 9 8 7 7 7
6 7 8 8 7 7 7 8 9 9 10 10 10 11 12 13 13 13 14 15 17 17 16 16 14 14 14 14 15 15 14 14 14 12 11 11 10 9 9 8 8 8 7
4 5 7 8 8 9 9 9 9 10 10 10 10 12 13 13 13 14 14 14 15 18 18 15 16 13 13 14 14 14 14 13 13 12 12 11 11 10 9 9 8 8 7
6 6 7 9 11 11 11 11 11 11 12 11 12 13 14 14 14 14 15 15 15 15 17 16 15 14 14 14 14 15 14 14 13 12 12 12 11 10 9 9 8 8 7
7 9 10 11 12 13 12 12 13 13 13 14 14 15 15 15 16 16 16 16 16 16 16 17 15 14 15 15 15 15 14 14 14 12 12 11 11 10 9 9 9 8 8
8 9 10 12 12 14 14 13 14 14 14 15 15 16 16 16 16 16 16 17 16 16 16 17 16 16 16 14 14 15 15 14 14 13 11 11 10 10 10 9 9 8 8
11 11 13 14 14 15 16 15 15 15 15 16 15 16 17 17 17 17 17 17 16 18 17 16 16 16 15 15 15 15 14 13 13 12 11 11 10 10 10 9 8 8 8
12 12 14 14 14 15 16 16 16 16 16 16 16 16 17 17 17 17 17 17 17 17 17 17 16 16 16 15 15 16 15 14 14 13 11 11 11 11 9 8 8 8 8
12 13 15 15 16 16 17 16 16 16 16 17 17 17 17 16 16 16 17 17 17 17 16 16 17 16 16 16 16 15 15 14 13 12 12 13 13 13 11 9 9 8 7
14 15 16 16 17 17 15 14 16 17 17 17 18 18 17 16 15 15 15 15 16 15 15 16 16 16 16 15 15 15 15 15 16 12 14 14 13 13 12 11 8 8 7
14 16 16 16 17 17 15 14 15 17 17 17 18 17 17 16 16 16 15 15 14 13 13 15 16 15 15 14 14 14 14 14 14 13 14 16 13 13 11 11 8 7 6
15 16 16 16 16 17 14 14 15 17 17 17 17 17 16 17 17 17 16 15 14 14 14 14 14 14 14 13 12 13 13 13 13 13 13 16 13 14 12 11 8 7 7
15 16 16 16 17 17 14 14 15 16 17 17 16 16 15 16 15 14 15 16 16 15 13 12 11 11 10 10 10 12 14 15 15 14 11 13 14 14 13 13 11 8 7
15 16 17 16 16 16 14 13 15 16 17 17 16 16 15 15 13 12 15 16 17 16 15 15 14 13 12 12 10 11 12 14 13 13 12 13 14 13 16 13 12 11 11

GFSMA_con_lsi_060.txt.gz
Lid_Strength_Index
1 2 2 4 3 3 2 3 4 5 5 5 5 5 5 4 4 4 5 2 -1 -0 0 0 1 1 1 2 2 2 3 3 3 4 4 4 4 4 4 4 4 4 4
1 1 2 2 3 3 3 3 4 6 7 7 7 6 6 6 6 5 6 6 2 1 1 1 1 1 2 2 2 3 3 3 4 4 4 4 4 4 5 5 5 5 5
1 1 3 3 4 3 3 4 5 7 9 8 9 9 9 8 8 7 7 8 7 3 2 2 2 2 2 2 3 3 4 4 4 5 5 5 5 5 5 5 5 5 5
1 2 3 3 3 4 5 7 7 8 9 11 11 12 12 11 11 10 9 9 9 8 5 4 3 3 3 3 3 4 4 4 5 5 5 5 5 6 6 6 6 6 5
0 2 3 4 5 5 7 8 9 9 10 11 12 12 13 13 13 11 11 11 10 10 10 6 6 5 4 4 4 4 5 5 5 5 6 6 6 6 6 6 6 6 5
1 2 3 5 5 6 8 9 10 9 10 11 12 13 14 14 13 14 14 13 13 12 12 11 11 9 6 6 6 5 6 5 6 6 6 7 7 6 6 6 6 6 6
1 1 3 5 5 7 8 9 10 11 11 12 13 14 15 14 15 15 14 15 15 14 14 14 13 12 11 8 7 7 6 6 6 7 7 7 7 7 6 6 6 6 6
0 1 3 4 5 7 7 9 10 11 12 12 13 14 17 17 16 15 15 14 15 15 15 14 14 13 13 12 11 8 7 7 8 8 8 8 8 7 7 6 6 6 6
2 1 3 4 4 5 7 9 10 11 12 12 12 12 15 17 18 16 16 15 15 16 16 15 15 14 14 14 13 12 10 10 9 9 9 8 8 7 7 6 6 6 6
4 3 3 4 4 4 6 9 9 10 12 13 12 11 11 15 17 20 18 17 16 16 16 16 16 16 15 15 14 13 12 11 11 10 10 9 9 8 7 7 6 6 6
3 4 3 4 3 4 6 8 10 10 11 11 11 12 13 13 14 18 20 19 18 16 16 16 16 16 15 15 15 14 13 13 12 11 11 10 10 9 8 7 7 6 6
4 5 5 4 5 5 6 8 9 9 10 10 10 11 12 13 15 16 19 20 19 18 17 17 16 16 16 16 14 14 14 14 13 12 11 11 10 9 8 8 7 7 7
6 6 6 6 5 5 6 7 8 9 9 10 10 10 11 12 13 14 17 19 20 19 18 17 16 16 15 16 16 15 14 14 14 12 11 11 10 10 9 8 7 7 7
6 6 6 6 6 7 7 7 8 9 9 10 10 11 11 12 14 15 16 18 21 20 19 18 17 16 16 16 15 14 16 13 13 12 11 11 10 9 9 8 8 8 7
6 7 7 8 8 7 7 8 8 9 9 10 10 11 13 14 15 15 15 17 19 21 20 19 18 16 16 15 16 16 17 14 12 12 11 11 10 10 9 8 8 8 7
6 7 8 8 8 8 8 8 9 9 10 10 10 12 14 15 15 16 16 17 17 18 20 18 18 16 15 15 15 16 16 13 13 12 11 11 10 10 9 9 8 8 8
8 8 8 8 10 10 10 9 11 11 11 12 13 14 15 15 16 16 17 17 17 17 19 19 17 17 16 17 16 16 16 15 15 12 12 11 10 10 9 9 9 9 8
9 10 11 12 13 13 12 11 12 11 12 13 14 15 16 15 16 17 17 18 18 17 17 19 18 18 18 16 16 17 16 15 16 13 12 11 10 10 9 9 9 8 8
10 12 12 13 14 13 14 12 12 12 12 13 14 15 15 16 17 17 17 17 17 17 17 17 19 18 17 17 17 17 16 16 15 13 11 10 10 10 9 9 8 8 9
12 13 14 13 14 14 15 14 14 14 14 14 15 15 16 16 17 17 17 17 18 18 18 18 18 18 17 16 16 17 17 16 16 15 13 12 11 10 9 9 9 10 10
13 14 15 15 15 15 15 15 15 15 15 16 16 16 16 16 15 16 17 17 17 18 18 18 18 17 17 17 17 16 17 16 16 15 14 15 15 14 13 11 11 11 9
14 15 15 15 15 15 13 13 14 15 16 16 17 17 16 16 15 14 15 15 16 17 18 17 17 17 17 16 16 16 16 17 18 15 16 16 14 14 14 13 10 9 9
15 16 16 15 16 16 13 13 13 16 16 16 17 17 16 16 15 15 14 14 14 13 14 14 16 16 16 15 15 16 16 16 16 14 15 16 14 15 14 12 10 9 8
16 17 17 16 16 16 14 13 14 16 16 16 16 16 16 16 16 16 16 16 16 15 13 14 15 15 15 14 14 14 15 17 16 14 14 17 15 15 14 13 10 9 8
18 19 16 16 16 16 14 13 15 16 17 17 16 16 15 15 14 14 16 16 16 16 14 12 12 12 11 11 12 14 18 19 16 15 13 14 15 16 16 14 13 10 10
17 16 16 16 16 16 13 13 15 16 17 17 16 16 15 15 13 13 16 16 17 16 16 15 14 13 11 12 11 12 16 15 14 16 15 15 16 16 18 16 14 13 13

GFSMA_con_lsi_063.txt.gz
Lid_Strength_Index
3 4 5 5 5 4 4 4 5 5 6 5 5 5 5 4 4 5 4 1 -1 -0 -0 0 1 1 1 2 2 2 3 3 3 3 3 3 3 4 4 4 4 4 4
2 4 4 4 4 3 3 3 5 6 5 7 6 6 6 5 5 6 6 5 1 1 1 1 1 1 2 2 2 3 3 3 3 3 4 4 4 4 4 4 4 4 5
1 4 4 4 3 3 4 4 5 6 8 7 9 8 8 7 6 7 8 8 7 3 1 2 2 2 2 2 3 3 3 3 4 4 5 5 4 4 5 5 5 5 5
1 3 4 5 4 4 4 5 7 8 9 10 10 11 11 11 10 9 9 9 9 9 5 3 3 3 3 3 3 4 4 5 5 5 5 5 5 5 5 5 6 6 6
1 2 4 5 5 5 5 6 8 8 10 11 12 12 13 14 13 12 12 11 10 10 10 6 5 4 4 4 4 4 5 6 6 5 6 6 5 5 5 6 6 6 6
1 2 3 6 6 6 7 7 8 9 10 12 12 14 13 14 14 15 14 13 12 12 13 12 11 9 5 5 5 5 5 6 6 6 6 7 7 7 6 6 6 6 6
1 2 3 5 6 7 8 8 9 10 12 12 13 15 14 14 15 15 15 15 15 15 14 13 13 12 11 6 6 6 6 6 7 7 7 7 7 7 7 7 6 6 6
1 2 3 4 6 7 8 9 9 11 11 12 13 14 16 15 16 15 16 16 16 16 15 15 15 14 13 13 11 7 7 7 8 8 8 8 8 8 7 7 7 6 6
1 1 2 3 4 6 8 9 10 10 12 12 12 12 16 16 18 15 16 16 17 17 17 16 16 14 14 14 12 11 9 9 9 9 9 9 9 9 8 7 7 7 6
4 2 2 3 5 5 7 9 10 9 10 12 12 12 11 14 16 18 16 17 17 17 18 18 17 16 15 15 14 13 11 11 11 11 11 10 10 9 8 7 7 7 6
6 4 2 3 4 4 5 7 9 8 9 10 11 12 12 14 14 16 19 18 17 18 17 17 17 17 16 15 15 14 12 12 12 12 12 11 10 9 8 8 7 7 6
6 5 4 2 3 3 4 6 8 8 8 9 10 9 11 13 13 16 18 18 18 18 18 17 17 17 17 16 14 14 12 12 12 12 12 11 10 9 9 8 7 7 6
6 4 4 3 3 3 4 5 7 8 8 9 10 9 10 10 12 14 16 18 18 18 17 17 16 16 16 16 15 14 13 13 12 12 12 11 10 10 9 8 7 7 7
6 6 5 4 4 4 5 6 7 8 8 9 9 10 9 10 12 13 15 17 19 19 18 18 16 16 16 16 16 13 16 13 12 12 12 11 10 9 9 8 8 7 7
6 6 6 6 5 6 6 6 7 8 8 9 9 10 10 11 12 13 14 15 15 20 19 18 18 16 15 16 15 15 17 14 12 12 11 11 10 9 9 9 8 7 7
7 7 7 6 6 6 7 7 8 8 9 9 9 10 10 10 11 12 13 14 16 16 18 18 18 16 16 16 15 16 16 14 13 12 11 10 10 10 9 9 8 8 8
7 7 8 7 7 8 8 7 7 8 9 9 9 10 10 10 12 14 15 16 16 16 18 18 17 16 16 17 17 16 16 16 15 12 12 11 10 10 9 9 9 9 8
8 8 9 9 9 8 8 8 9 9 10 10 10 11 11 14 14 15 15 16 15 16 17 18 18 18 18 17 17 17 17 16 16 13 11 11 10 10 10 9 9 9 9
9 10 11 11 11 11 10 9 9 10 10 10 11 12 12 15 15 16 15 16 16 16 17 18 19 18 18 18 18 17 16 16 15 13 11 11 10 10 10 9 9 9 9
10 12 12 12 13 14 12 12 11 11 11 11 11 12 13 15 15 16 16 16 17 17 17 18 18 18 18 18 18 17 17 16 16 15 13 13 12 11 10 9 9 10 10
11 12 13 14 14 14 13 13 13 12 13 13 14 14 14 14 14 14 15 16 16 17 17 18 18 18 18 18 18 17 17 16 16 15 15 15 15 15 14 11 11 10 9
13 14 14 14 15 14 12 12 13 14 14 14 15 16 15 15 14 14 14 14 15 17 17 17 17 17 17 16 17 16 16 17 18 15 17 17 15 16 14 14 10 9 8
14 14 15 15 16 15 13 12 12 15 15 15 16 16 16 15 15 15 13 13 14 13 14 15 16 16 16 16 16 16 16 16 17 16 17 17 15 15 14 12 9 9 9
15 16 17 17 17 16 13 12 13 16 15 15 15 15 15 16 15 15 15 15 15 15 14 14 15 15 15 15 14 14 15 16 17 16 15 19 16 16 14 13 10 9 9
18 18 17 17 15 16 13 13 13 16 16 16 16 15 15 15 14 13 16 16 16 15 13 13 13 12 12 12 13 14 18 17 19 17 14 16 16 16 16 16 14 12 12
17 16 15 15 15 15 13 12 14 16 17 16 16 16 15 14 13 13 15 15 16 16 15 15 14 12 12 12 10 12 14 16 15 16 15 15 17 18 20 18 16 16 16

GFSMA_con_lsi_066.txt.gz
Lid_Strength_Index
3 4 5 5 5 5 4 5 5 5 5 5 4 5 5 5 4 4 3 1 -0 -0 -0 0 1 1 1 2 2 2 2 3 3 3 3 3 4 4 4 4 4 4 4
3 4 5 4 5 5 4 5 5 5 6 6 6 6 6 6 5 5 5 3 0 -0 0 1 1 1 2 2 2 3 3 3 3 4 4 5 5 5 4 4 5 4 4
2 4 5 5 4 4 3 5 5 6 6 7 7 7 7 7 7 7 7 7 5 2 1 1 2 2 3 2 3 3 3 4 4 4 5 5 5 5 4 5 5 5 5
2 3 4 5 5 4 4 5 7 7 8 8 10 10 9 9 9 8 8 8 9 8 5 2 3 3 3 3 3 4 4 4 4 5 5 5 6 6 6 6 6 6 6
1 3 4 5 5 5 5 6 7 7 9 10 11 11 12 11 11 10 10 9 8 10 10 6 5 3 4 4 4 4 4 5 5 5 6 6 6 6 6 6 6 6 6
1 2 4 5 5 6 7 7 8 9 10 11 12 13 13 13 13 11 11 10 10 11 11 11 11 9 4 4 4 5 5 5 6 6 6 7 7 7 7 7 7 7 7
1 2 3 5 5 6 7 8 9 10 13 12 13 13 14 14 14 14 13 12 13 13 13 13 12 12 10 5 5 5 5 5 6 7 7 7 8 8 8 7 7 7 7
1 1 3 5 5 6 7 9 9 11 12 12 12 14 15 14 14 15 15 14 15 14 14 13 14 13 13 13 11 6 5 5 6 7 7 8 9 9 8 8 7 7 7
1 1 2 4 5 5 8 8 9 10 12 14 12 12 15 15 16 16 16 16 16 16 15 14 15 14 14 14 10 8 7 6 7 7 8 9 9 9 9 8 8 7 7
2 1 2 3 5 4 6 8 8 8 9 12 14 11 11 13 15 18 16 15 16 16 15 15 15 15 15 15 12 12 9 8 8 8 9 9 9 9 9 8 8 7 7
5 2 2 3 4 4 4 6 7 8 8 9 11 13 12 14 14 16 17 18 17 15 16 16 15 15 15 15 15 13 10 9 9 10 10 10 10 9 9 8 8 7 7
6 6 4 3 3 3 4 5 7 8 7 8 9 9 11 11 14 15 17 18 18 16 15 16 16 16 15 15 14 13 11 10 10 10 10 10 10 10 9 9 8 7 7
6 5 3 3 3 3 3 4 5 7 7 8 8 9 9 9 11 12 14 17 18 16 16 15 15 15 15 15 14 13 11 11 10 10 11 11 10 9 9 9 8 8 7
5 5 5 4 3 3 3 4 5 6 7 7 8 9 8 9 10 12 13 15 18 18 17 16 15 15 15 15 14 12 15 11 11 11 11 11 10 9 9 9 8 8 7
5 7 6 6 5 4 3 3 5 6 7 7 8 8 8 8 9 10 13 14 11 16 18 17 17 15 15 15 15 14 15 13 11 11 11 10 10 9 9 9 9 8 8
6 7 7 6 6 5 4 4 5 6 7 7 8 8 8 8 9 10 12 13 13 11 13 16 17 16 15 15 15 15 15 14 13 11 11 11 11 10 9 9 9 8 8
7 7 7 6 6 6 6 6 6 6 8 8 8 8 9 9 9 11 11 12 13 13 13 18 17 16 16 15 16 15 15 16 16 12 12 11 10 10 10 9 9 9 9
8 7 8 7 7 6 7 7 7 8 9 9 9 9 9 9 10 10 12 13 13 14 16 18 18 17 17 16 16 16 17 16 17 15 13 11 10 10 10 9 9 9 9
9 9 9 9 8 8 8 8 7 8 9 8 9 9 9 10 11 12 13 13 14 15 16 16 18 17 17 16 17 17 17 17 17 15 12 11 10 10 9 9 9 10 10
9 10 11 9 10 10 9 9 9 9 10 9 10 10 10 11 11 13 14 14 15 15 16 15 17 17 18 17 17 18 18 17 17 16 14 13 12 11 11 10 10 10 10
10 10 11 12 12 13 12 12 12 11 11 11 12 12 12 12 12 13 14 15 15 15 15 16 17 18 18 18 18 17 18 17 17 16 16 15 15 15 14 12 12 11 10
12 12 13 13 14 12 11 10 12 12 13 13 13 14 14 15 13 12 12 13 13 15 16 17 17 18 17 17 17 17 17 18 18 15 16 16 15 15 15 14 12 10 9
13 13 13 14 14 14 11 11 11 13 14 14 14 15 15 15 15 14 13 13 13 12 14 15 17 16 16 15 16 17 16 16 16 16 16 17 15 15 14 14 11 9 9
15 15 16 16 16 15 12 11 11 14 14 14 14 15 15 16 15 15 15 15 15 14 14 14 14 14 14 14 14 14 14 15 16 15 15 18 16 16 14 14 10 10 11
18 18 17 16 15 15 12 11 12 14 15 15 15 15 15 15 14 13 15 16 15 14 12 12 12 12 12 12 12 14 17 17 18 17 15 16 17 17 17 16 15 12 13
17 15 14 14 15 14 13 12 13 15 16 16 15 15 14 14 12 12 15 15 15 15 15 14 14 12 12 12 11 13 14 16 16 17 16 16 18 18 19 18 16 17 17

GFSMA_con_lsi_069.txt.gz
Lid_Strength_Index
4 4 4 4 4 5 5 5 5 5 4 4 4 4 4 3 3 3 1 1 -1 -1 -0 0 1 1 2 2 2 3 3 3 3 3 3 3 3 3 4 4 4 5 5
4 4 5 5 4 4 5 5 5 6 5 5 6 5 5 5 4 4 3 2 -0 -0 0 1 2 2 2 3 3 3 3 3 3 3 4 4 4 4 4 5 5 5 5
3 4 4 4 4 4 4 5 5 6 7 6 6 6 6 7 7 5 5 5 3 1 1 1 2 2 2 3 3 3 4 4 4 4 4 5 5 5 5 5 6 6 6
2 3 4 5 5 5 5 6 6 7 7 7 8 7 7 7 7 7 7 7 6 6 4 1 1 2 2 2 3 3 4 4 5 5 5 5 5 6 6 6 7 7 7
2 3 4 5 5 5 5 7 8 7 8 9 9 10 10 9 9 9 8 8 7 7 8 4 2 2 3 3 3 3 4 4 5 5 5 6 6 6 6 7 7 7 7
2 3 4 4 5 5 6 7 8 9 9 10 10 12 12 12 11 11 10 9 9 8 8 9 9 7 3 3 3 3 3 4 5 5 6 6 6 6 7 7 8 8 7
1 3 3 4 5 6 6 7 9 10 12 12 13 13 14 13 13 13 11 10 10 10 10 11 11 10 8 3 3 3 3 4 5 5 6 6 6 7 7 7 8 8 7
1 2 3 4 5 6 6 7 9 11 12 12 12 13 14 14 14 13 14 13 11 11 12 11 12 11 11 9 8 4 3 4 4 5 5 6 6 7 7 7 8 8 7
1 1 2 4 5 6 7 8 8 8 11 12 11 12 15 13 16 15 15 14 13 14 13 12 13 12 11 11 9 7 4 4 4 5 5 6 7 7 8 8 8 7 7
3 1 2 3 4 4 5 8 8 7 8 12 12 11 11 13 14 15 17 15 15 14 14 14 12 12 12 12 10 9 8 5 5 5 6 6 7 7 8 8 7 7 7
3 2 1 2 3 4 4 6 7 7 6 8 10 12 11 12 13 14 14 17 16 16 14 13 13 13 13 13 12 11 8 7 6 6 7 7 8 8 8 8 8 7 7
6 4 2 2 2 3 4 5 6 7 7 7 8 8 10 11 12 14 15 16 17 15 15 14 14 13 13 14 12 11 9 8 8 8 8 9 9 9 8 8 8 7 7
8 6 3 2 2 3 3 4 6 6 6 6 7 9 8 8 8 10 11 14 16 15 15 14 14 14 14 14 13 12 11 9 9 9 9 9 9 9 9 9 8 8 7
5 5 5 2 1 2 3 3 4 5 5 6 6 6 7 8 8 9 9 11 15 16 16 15 14 14 14 14 13 12 13 11 10 9 9 9 9 10 9 9 8 8 8
6 6 6 6 4 3 2 2 3 4 5 6 6 6 7 7 7 8 9 9 10 10 15 16 15 14 14 14 14 13 13 12 11 10 10 10 10 10 10 9 9 8 8
7 7 7 6 6 6 5 5 4 4 5 5 6 6 7 7 7 8 9 10 9 9 10 13 15 15 14 14 14 14 14 13 12 11 10 10 10 10 10 9 9 8 8
7 7 7 7 7 7 7 5 5 5 6 6 6 7 7 7 8 8 9 10 10 10 10 12 16 15 15 15 15 14 14 14 14 12 11 11 10 11 11 10 9 8 9
8 7 8 8 7 6 6 6 6 6 6 7 7 8 8 8 9 8 10 10 11 11 11 11 17 16 16 15 15 15 15 14 15 13 12 11 11 11 10 10 9 9 9
9 9 9 9 8 7 6 6 6 6 7 7 7 8 8 9 9 9 10 10 11 12 12 14 17 16 17 15 16 15 16 16 16 14 12 12 12 11 10 10 9 9 9
10 10 11 10 10 8 8 7 7 8 8 8 8 8 8 9 9 10 11 12 13 14 15 14 17 17 17 16 16 17 18 17 17 16 14 14 13 12 11 10 10 10 10
11 11 12 12 12 11 9 10 10 10 10 9 11 11 10 10 11 10 12 13 14 14 15 15 16 18 18 18 18 17 17 17 17 16 16 16 15 14 13 12 12 11 11
13 13 13 13 13 12 10 9 10 11 12 12 12 12 12 13 12 10 10 11 12 14 14 15 17 17 18 17 17 17 17 17 18 15 16 16 14 15 14 13 12 11 10
13 13 13 13 14 14 11 10 11 13 13 13 13 13 14 14 14 13 11 11 12 11 12 14 16 16 17 16 16 16 16 16 17 16 16 17 15 15 14 13 11 11 10
15 15 15 15 16 15 11 10 10 13 13 13 13 13 14 14 14 14 14 14 14 14 14 14 14 15 15 14 14 14 15 15 16 15 15 17 16 15 14 14 12 12 12
17 17 16 17 17 13 12 11 11 13 14 14 14 14 14 14 13 12 14 15 14 14 12 12 12 12 11 11 12 14 16 16 17 17 15 15 17 17 17 16 15 13 14
16 16 14 13 13 13 12 11 12 14 15 15 15 15 14 14 12 12 14 14 15 14 14 14 13 12 12 12 11 13 14 16 17 17 16 16 18 18 20 18 17 18 18

GFSMA_con_lsi_072.txt.gz
Lid_Strength_Index
4 4 4 4 4 5 5 5 5 5 4 4 4 4 4 2 1 2 1 1 -1 -1 -0 0 1 1 2 2 2 3 3 3 3 3 3 3 4 4 4 4 4 4 4
4 4 5 5 5 5 5 5 5 5 5 5 5 5 4 4 3 3 3 2 -0 -1 -0 0 1 1 2 2 2 2 2 3 3 3 4 4 4 4 5 5 5 5 5
4 5 5 4 4 4 4 4 5 5 6 6 6 6 6 5 5 4 4 3 2 0 -0 0 1 1 1 1 2 2 3 3 4 4 4 4 5 5 5 6 6 6 6
3 3 3 5 4 4 4 6 6 6 6 6 6 6 6 7 6 6 6 6 5 4 1 -0 1 1 1 1 2 2 2 3 3 4 4 5 5 5 6 6 6 7 7
2 3 4 4 4 5 5 6 7 7 8 8 8 8 8 8 7 7 7 7 7 6 6 2 1 1 1 1 2 2 2 3 3 4 4 5 5 5 6 6 7 7 7
2 3 3 4 5 5 5 6 7 9 8 9 10 11 11 10 10 9 8 8 8 7 6 6 6 5 1 2 2 2 2 3 3 4 4 5 5 5 6 6 7 7 7
1 2 4 4 5 6 6 6 8 9 10 11 11 11 12 12 13 12 10 10 10 9 9 8 7 7 6 2 2 2 2 2 3 4 4 5 5 5 6 6 7 7 7
1 2 2 4 5 5 6 7 8 10 11 11 10 12 11 11 12 12 13 12 10 11 10 10 9 9 8 7 5 2 2 2 3 3 4 4 5 5 6 6 6 7 7
0 1 2 2 4 5 6 7 7 8 10 12 11 9 13 12 14 14 13 12 12 11 10 11 11 10 9 9 6 4 2 3 3 3 3 4 5 5 6 6 6 7 7
2 1 1 2 4 4 4 6 6 7 7 11 11 11 11 11 13 12 15 15 13 13 11 11 11 11 10 10 9 8 6 4 3 3 3 4 4 5 6 6 6 6 7
3 2 1 1 3 4 3 4 6 7 6 8 10 12 11 11 12 13 9 11 15 15 12 12 11 11 11 10 10 9 7 5 5 4 4 5 5 5 6 6 7 7 7
6 5 2 1 2 3 3 4 5 6 6 6 7 8 9 11 11 12 12 11 11 14 14 13 13 11 11 11 10 10 8 6 5 5 6 6 6 7 7 7 7 7 7
8 7 5 2 2 2 3 3 4 5 6 6 6 7 7 6 6 9 10 9 13 13 15 14 14 12 12 11 11 11 9 7 6 6 7 7 7 7 8 8 8 8 8
6 6 6 3 1 1 2 3 3 4 4 5 5 5 6 6 6 6 8 9 11 14 14 15 13 13 12 12 11 10 10 9 7 7 7 8 8 8 8 8 8 8 8
6 6 6 6 5 3 1 2 2 4 4 5 5 5 6 5 6 6 7 8 8 10 9 13 14 13 12 12 12 11 11 10 8 8 8 8 8 8 9 9 9 9 8
7 7 7 7 7 6 5 3 3 3 4 4 5 6 6 5 6 6 7 8 8 8 9 10 13 13 13 13 12 12 12 11 9 9 9 9 9 9 9 9 9 9 8
8 8 8 7 7 7 7 6 5 4 4 5 5 6 6 6 6 6 7 8 8 9 10 8 13 14 14 14 14 13 13 13 12 10 9 10 9 9 9 10 9 9 9
8 8 8 8 8 8 8 8 7 6 6 6 6 6 6 7 7 6 7 8 9 9 9 10 13 16 15 14 14 15 14 13 14 11 10 10 9 10 10 10 10 10 9
9 10 10 10 9 9 8 7 6 6 6 6 6 7 7 8 8 8 8 9 9 9 10 10 11 15 16 15 15 15 15 15 14 12 10 10 11 10 10 10 10 9 9
11 11 11 11 11 10 9 7 7 7 7 7 7 7 8 8 9 9 9 10 10 11 12 12 15 16 16 16 15 16 17 16 16 14 13 12 11 11 10 10 10 10 10
12 12 13 13 13 12 10 9 9 8 9 8 9 10 10 10 10 9 10 11 12 12 14 13 14 16 17 17 17 16 17 17 17 16 16 15 14 14 13 11 12 12 11
13 13 13 13 13 12 10 9 9 11 11 11 10 11 11 12 11 10 9 9 11 12 13 13 14 15 17 16 16 16 17 18 19 15 16 16 15 15 14 14 12 10 10
14 14 14 14 14 14 11 10 9 10 11 11 11 11 12 12 12 12 11 10 10 10 11 13 14 15 16 16 16 17 16 16 16 16 15 16 15 15 14 13 11 10 11
14 15 15 15 16 14 11 10 9 11 11 12 12 12 12 13 13 13 13 13 13 13 13 13 13 14 14 14 14 14 14 15 16 15 15 17 16 16 14 14 12 12 12
16 16 15 16 17 15 10 10 9 11 11 12 13 13 13 13 13 11 13 14 14 14 12 11 11 11 11 11 12 14 15 15 17 17 15 16 17 17 17 17 16 12 13
15 15 15 17 17 13 11 10 10 11 12 13 13 13 13 13 12 11 13 13 14 14 13 13 13 11 11 11 11 13 14 15 16 17 15 16 18 18 20 19 18 18 18

GFSMA_con_lsi_075.txt.gz
Lid_Strength_Index
1 1 0 0 1 2 2 2 2 2 2 2 1 0 0 -0 -1 -1 -1 1 -1 -1 -1 -0 0 1 1 2 2 2 2 2 2 2 3 3 3 3 4 4 4 4 5
2 2 1 1 1 1 2 2 2 2 2 2 2 2 1 1 0 -0 -0 -0 -0 -1 -1 -0 -0 0 1 1 2 2 2 2 2 3 3 3 4 4 4 4 5 5 5
3 3 2 2 2 2 2 3 4 4 3 4 4 3 3 2 1 1 1 1 -0 0 -1 -0 -0 -0 0 1 1 1 1 2 2 3 3 3 4 4 4 5 5 6 6
3 3 3 2 2 2 3 3 4 4 5 5 5 5 5 5 3 3 3 2 1 0 -0 -1 -1 -0 -0 -0 0 1 1 1 2 3 3 3 4 4 4 5 6 6 6
2 2 3 3 3 3 4 4 4 5 6 5 4 6 5 6 6 6 5 4 4 2 1 0 -0 0 -0 -1 -1 0 1 1 2 2 3 3 4 4 4 5 6 6 7
1 1 2 3 4 4 4 5 5 5 5 5 7 8 7 7 8 6 6 7 6 5 4 4 2 1 1 -0 -0 -0 -0 1 1 2 3 3 4 4 4 5 5 6 6
2 2 3 3 4 5 5 5 5 8 8 8 10 8 8 8 8 7 6 6 6 7 7 6 5 4 3 0 0 0 -0 0 0 1 2 3 3 4 4 5 5 5 6
1 2 3 3 3 3 5 6 7 8 7 10 8 10 8 7 8 7 7 8 6 6 6 6 7 6 6 4 2 1 0 -0 0 0 1 2 3 3 3 4 5 5 6
1 1 2 2 3 3 4 5 6 6 7 10 10 8 11 10 9 9 9 9 8 7 6 6 6 7 7 6 4 2 1 1 0 0 1 1 2 3 3 4 4 5 5
1 1 2 2 3 4 4 4 5 6 6 9 10 9 9 9 10 10 11 11 10 10 8 7 7 8 8 8 7 6 4 2 2 1 1 1 2 2 3 4 4 5 5
1 1 1 1 2 3 3 3 5 6 6 5 8 10 9 9 11 11 9 8 13 12 10 9 7 8 8 7 8 7 6 5 3 3 3 2 2 2 2 3 4 5 5
4 3 2 1 1 2 3 3 4 5 5 6 5 7 8 10 10 10 11 9 9 7 10 11 10 9 8 8 8 8 7 5 4 3 3 3 3 3 3 4 4 5 5
5 4 4 3 2 2 2 2 3 4 4 5 5 5 6 6 6 7 8 8 9 9 11 10 10 10 9 9 9 9 8 6 5 4 4 4 4 4 4 5 5 6 6
3 3 3 2 1 0 0 1 1 2 2 4 4 4 4 5 4 5 6 8 9 8 11 10 12 10 10 9 9 9 9 7 6 4 4 4 4 4 5 6 6 7 7
5 4 4 4 4 3 1 1 1 2 3 3 4 4 4 4 5 5 5 6 7 8 7 6 11 11 11 10 10 10 10 9 7 6 5 4 5 5 6 7 7 7 7
6 6 6 5 5 5 4 3 2 1 2 3 3 4 4 4 4 5 5 6 6 7 9 6 9 10 11 11 11 11 11 10 9 7 6 5 6 7 7 7 7 7 8
7 7 7 6 6 6 5 5 4 4 4 4 4 5 5 5 5 5 6 6 7 7 9 7 9 11 13 13 12 12 11 11 11 9 8 6 7 8 8 7 8 8 9
8 8 8 8 7 7 7 7 6 6 6 6 5 5 5 5 6 5 5 6 7 7 8 9 8 13 13 13 13 14 13 12 12 11 9 7 8 8 8 8 9 9 9
10 9 9 9 9 9 8 8 7 7 6 6 6 6 6 6 7 7 7 7 8 8 8 9 9 15 14 14 15 14 14 14 13 12 10 9 9 9 9 9 9 10 9
11 11 11 11 11 10 10 9 8 7 7 6 6 6 6 7 7 7 8 8 8 9 9 9 10 14 15 15 14 15 16 15 15 13 12 11 10 10 9 9 10 10 10
12 12 12 12 11 11 11 10 10 9 9 9 8 8 8 8 9 8 9 8 9 10 10 11 11 15 16 16 16 15 15 15 15 14 13 13 13 12 11 10 11 11 10
13 13 13 13 13 12 10 10 10 11 11 11 10 10 10 11 10 9 8 8 8 10 11 11 11 13 14 15 15 15 15 17 18 14 15 15 12 13 12 11 11 10 10
14 14 14 13 13 13 11 10 10 11 11 10 10 10 10 10 11 10 9 9 9 8 8 11 12 13 14 14 14 15 15 15 15 15 13 15 13 14 12 12 10 10 10
15 15 15 14 14 14 11 10 10 10 10 10 10 10 11 10 10 11 11 12 12 12 12 11 12 12 12 12 12 13 13 14 14 14 13 15 14 14 13 13 10 10 11
15 15 14 15 15 14 11 9 9 11 10 10 11 11 11 11 11 10 11 12 12 12 10 10 10 10 10 10 11 12 14 14 15 15 14 15 16 16 16 16 14 11 12
15 15 14 14 15 15 12 11 10 11 11 11 12 12 12 11 10 10 11 11 12 12 11 11 11 10 10 10 10 11 12 13 15 15 14 16 16 16 18 17 16 16 16

GFSMA_con_lsi_078.txt.gz
Lid_Strength_Index
-1 -1 -1 -1 -1 -1 -1 -1 -1 -1 -1 -0 -1 -1 -1 -1 -1 -1 -1 1 -1 -1 -1 -1 -0 0 1 1 1 1 1 1 2 2 2 2 2 3 3 3 4 4 4
-0 -1 -1 -1 -0 -0 -0 -0 -0 -0 -0 -1 -1 -1 -1 -1 -1 -1 -1 -1 -0 -1 -1 -1 -1 -1 -0 0 0 1 1 1 1 2 2 2 2 3 3 3 4 4 5
0 1 -0 -0 -0 -0 0 0 0 0 0 0 0 0 -0 -1 -1 -1 -1 -1 -1 1 -1 -1 -1 -1 -1 -0 -0 -0 0 0 1 1 2 2 2 3 3 3 4 4 5
0 1 1 0 0 1 -0 0 1 1 1 1 1 1 1 1 0 0 -0 -0 -1 -0 -0 -1 -1 -1 -1 -1 -1 -0 -0 0 1 1 2 2 2 3 3 3 4 4 5
0 1 1 1 1 1 2 2 2 2 2 2 3 2 1 2 1 1 1 0 0 0 -0 -0 -0 -0 -1 -1 -1 -1 -1 -0 0 1 2 2 2 2 3 3 4 4 5
-0 0 -0 -0 2 2 2 3 3 3 3 4 5 4 3 3 2 2 2 1 0 1 1 0 0 1 1 -1 -1 -1 -2 -1 -0 0 1 2 2 2 2 3 3 4 4
-0 -0 1 2 2 2 2 2 4 4 5 4 5 5 4 3 3 3 3 3 2 2 1 2 1 1 1 -1 -1 -1 -2 -2 -1 -0 0 1 1 2 2 2 3 3 4
1 1 2 2 2 3 3 2 3 4 5 6 6 7 7 3 5 4 3 3 3 2 3 2 2 2 1 1 0 -1 -1 -2 -2 -1 -1 0 1 1 1 2 2 3 3
1 1 1 2 2 3 3 3 4 5 4 4 7 7 10 9 5 3 4 4 4 5 3 4 4 3 3 4 3 2 0 -1 -1 -1 -1 -1 -0 1 1 1 2 2 3
-0 0 1 1 1 2 3 3 4 4 5 5 5 7 5 6 7 6 4 6 6 6 5 5 5 5 4 4 5 4 4 2 1 -0 -1 -1 -1 -1 0 1 1 2 2
-0 -0 0 1 2 2 2 3 4 4 4 4 7 7 8 8 8 9 8 5 6 7 7 6 6 4 4 4 3 4 5 4 3 3 1 0 -0 -1 -1 0 1 1 2
0 0 1 1 1 1 2 2 2 3 4 4 4 5 7 9 9 10 10 7 7 4 5 6 5 6 5 4 5 6 5 4 4 3 2 2 1 0 -0 -0 1 1 2
0 0 0 1 1 0 1 1 2 2 3 3 4 3 4 4 3 5 6 6 6 5 7 7 6 5 5 5 5 7 7 5 4 4 3 3 2 1 1 1 1 1 2
0 0 0 0 -0 -0 -0 -0 0 1 1 2 2 2 3 3 3 4 5 6 7 6 6 8 7 8 5 5 5 8 6 7 6 5 4 3 2 2 2 2 1 2 3
4 4 3 2 2 2 1 1 1 1 1 1 1 1 2 2 3 3 4 4 6 8 7 4 8 8 7 7 8 7 7 7 7 6 6 5 4 3 2 2 2 2 4
4 4 4 4 4 3 3 3 2 2 2 1 2 2 3 3 3 3 5 5 5 6 7 4 4 6 7 10 9 9 9 9 9 8 7 6 5 4 3 2 3 4 5
6 6 6 5 5 5 4 4 4 4 4 3 3 3 4 3 4 4 4 5 5 6 7 6 5 6 9 9 10 11 10 10 10 9 8 8 7 6 5 4 6 7 7
7 7 7 7 7 6 6 6 6 5 5 5 5 5 5 5 5 4 4 5 6 6 7 8 6 6 11 11 11 12 11 11 11 10 9 8 8 7 6 7 7 7 7
8 8 9 9 9 8 8 8 7 7 6 6 6 6 6 6 6 6 6 6 6 6 6 8 7 9 12 13 13 13 13 12 12 11 10 9 8 8 8 8 7 8 9
10 9 9 9 9 9 9 9 8 8 7 7 7 6 6 7 7 7 7 7 7 7 8 8 8 8 12 13 13 14 14 13 13 12 12 11 10 9 8 8 8 10 9
10 10 10 10 10 10 9 9 9 9 9 9 9 8 8 8 10 8 8 7 8 8 8 8 8 9 13 15 15 14 14 13 13 12 13 12 12 12 11 9 10 10 9
12 12 11 11 11 10 10 10 10 10 10 10 10 9 8 10 9 8 7 7 7 8 9 9 8 10 10 13 13 13 15 15 15 12 12 12 11 11 12 11 10 10 9
13 13 12 12 12 11 10 10 10 10 9 9 9 9 9 9 9 8 8 8 8 7 7 8 9 10 11 12 12 13 13 13 12 12 11 13 11 12 11 11 10 10 10
13 13 13 12 12 11 10 10 10 9 8 8 8 8 9 9 8 9 10 10 10 9 10 10 10 11 10 11 11 10 11 12 12 12 11 14 12 12 11 11 10 10 9
13 13 13 12 12 12 11 10 10 10 10 9 9 8 9 9 10 9 10 11 11 11 10 9 9 9 9 9 9 11 12 12 13 14 12 13 14 15 15 14 13 9 10
14 13 13 12 12 12 12 11 10 10 11 10 9 9 10 10 10 9 10 11 11 11 11 10 10 9 9 9 9 10 10 12 13 14 13 14 15 15 16 15 14 12 13

GFSMA_con_lsi_081.txt.gz
Lid_Strength_Index
-1 -1 -1 -1 -1 -1 -1 -1 -1 -1 -1 -1 -1 -1 -1 -1 -1 -1 -1 1 -1 -1 -1 -1 -1 -1 -0 0 0 1 1 1 1 1 1 1 1 1 2 2 3 3 3
-1 -1 -1 -1 -1 -1 -0 -1 -1 -1 -1 -1 -1 -1 -1 -1 -1 -1 -1 -1 -0 -1 -2 -2 -2 -1 -1 -1 -0 -0 -0 0 1 1 1 1 1 1 2 2 3 3 3
-0 -0 -0 -1 -1 -1 -1 0 -0 -1 -0 -0 -1 -1 -1 -1 -1 -1 -1 -1 -1 0 -1 -2 -2 -2 -2 -2 -1 -1 -1 -0 0 0 1 1 1 2 2 2 3 3 3
-0 -0 0 -0 -1 -0 -0 -0 0 0 0 0 1 0 0 -0 -0 -1 -1 -1 -1 -1 -0 -1 -2 -2 -2 -2 -2 -2 -2 -1 -1 -0 0 0 1 1 2 2 2 3 3
-1 -0 0 0 -0 -1 -0 -0 0 1 1 1 1 1 1 1 0 1 1 0 -0 -0 -1 -1 -0 -1 -2 -2 -3 -3 -3 -2 -2 -1 -1 -0 0 1 1 2 2 2 3
-1 -1 -1 -1 -0 1 2 2 2 2 3 3 3 3 3 2 2 2 1 1 1 0 0 0 -0 0 1 -1 -2 -3 -3 -3 -2 -2 -2 -1 -0 0 1 1 1 2 2
0 0 -1 -0 0 2 2 2 3 3 3 2 5 4 3 3 2 2 2 2 2 1 0 0 1 1 0 -1 -1 -1 -3 -3 -2 -2 -2 -1 -1 -0 0 0 1 1 1
0 1 1 1 1 2 2 2 3 4 3 2 5 7 7 5 1 2 2 2 2 2 2 1 1 2 1 1 1 -1 -2 -3 -3 -2 -2 -2 -2 -1 -1 -0 0 0 1
0 1 0 1 1 2 3 3 3 3 5 3 6 6 9 8 5 2 2 3 3 3 2 3 3 2 2 2 1 1 -0 -1 -2 -2 -3 -2 -2 -2 -2 -1 -1 -0 0
-0 -1 -1 -0 1 1 2 2 2 3 4 5 5 5 5 4 6 6 2 3 3 4 3 4 4 3 3 3 3 4 3 2 1 -0 -1 -2 -2 -2 -2 -2 -2 -1 -0
-0 -0 -0 -0 0 1 1 2 2 3 3 4 4 5 6 6 7 7 7 5 4 5 4 4 4 4 3 4 3 4 4 3 3 2 1 0 -1 -1 -2 -2 -2 -2 -1
1 0 0 0 1 2 2 1 1 2 3 3 3 3 5 6 7 8 8 6 5 4 3 4 4 4 4 4 5 6 4 3 3 3 3 2 1 0 -1 -1 -2 -2 -2
1 0 0 0 -0 -0 -0 1 1 2 2 2 2 3 2 3 3 3 5 5 5 4 4 5 4 4 5 5 5 7 6 4 4 3 3 3 3 2 1 0 -1 -1 -2
1 1 2 1 1 1 0 -0 0 0 0 1 1 1 1 2 2 2 3 4 6 6 5 5 7 6 6 5 5 7 6 6 5 4 4 4 4 3 3 2 1 0 -1
4 4 3 3 3 2 2 2 2 2 1 1 1 1 2 2 2 2 3 4 5 7 7 5 5 6 6 6 6 6 6 7 5 5 5 5 5 4 3 3 2 1 0
5 5 5 4 4 4 4 3 3 2 3 2 2 2 2 3 3 3 3 4 4 5 7 5 4 5 7 8 8 8 8 9 8 7 7 6 5 5 4 4 4 3 1
6 6 7 6 6 6 5 5 5 5 5 5 4 4 4 4 4 4 4 4 4 5 7 6 5 4 7 8 9 9 9 10 10 9 8 7 6 6 6 5 5 4 3
7 8 8 8 7 7 7 7 7 6 6 6 6 5 6 5 6 5 5 5 5 5 6 7 6 6 7 9 9 10 11 10 10 9 8 7 7 6 7 7 6 5 6
9 9 9 9 9 8 8 8 8 8 7 7 6 6 6 6 7 7 7 7 6 6 6 7 7 6 7 11 12 12 12 11 11 10 9 8 8 7 7 6 6 7 7
10 10 10 10 9 9 9 9 9 9 8 8 8 8 8 8 8 8 7 7 7 7 7 7 7 6 6 12 12 12 12 12 12 11 10 10 9 9 8 7 7 8 8
11 11 11 11 10 10 10 10 10 10 10 10 9 9 8 9 10 8 8 8 8 8 7 7 7 7 8 12 12 11 12 12 12 11 11 11 11 11 10 8 9 8 8
11 11 12 12 12 11 10 10 11 11 11 11 10 10 9 9 8 8 7 7 7 8 9 9 9 9 8 10 12 12 12 13 13 11 11 11 10 11 11 10 8 7 7
12 12 12 12 12 12 11 10 11 12 11 11 10 10 10 9 9 9 8 8 8 8 7 8 10 9 10 10 11 12 12 11 11 11 11 12 11 11 10 9 7 8 8
13 13 13 13 13 13 11 11 11 11 11 10 10 10 10 9 9 9 10 10 10 10 9 9 10 10 10 10 10 10 10 11 11 11 10 13 11 12 11 10 8 9 8
14 14 13 13 14 13 11 11 11 12 12 11 11 10 10 10 9 9 11 11 11 10 9 8 7 8 8 8 8 10 11 11 13 12 11 12 12 14 14 14 11 9 10
14 14 14 13 13 14 11 11 11 12 12 11 10 10 11 10 10 10 11 11 11 10 10 9 9 9 8 8 8 9 9 11 12 13 11 13 13 14 16 15 14 14 14

GFSMA_con_lsi_087.txt.gz
Lid_Strength_Index
1 1 1 1 1 1 1 2 2 1 1 1 1 1 1 1 1 1 2 2 -1 -2 -2 -2 -2 -2 -2 -2 -2 -1 -1 -1 -1 -1 -1 -0 -0 -0 -0 -0 0 0 1
1 1 2 2 2 2 2 2 2 2 2 2 1 1 1 1 1 1 1 1 0 -1 -2 -2 -2 -2 -2 -2 -2 -2 -2 -2 -2 -1 -1 -1 -1 -1 -1 -0 -0 -0 0
2 2 2 2 2 2 2 3 3 2 3 2 2 2 2 1 1 1 1 1 1 1 -0 -2 -2 -2 -2 -3 -2 -2 -2 -2 -2 -2 -2 -2 -1 -1 -1 -1 -1 -1 -0
1 2 2 2 2 2 2 3 3 3 3 3 3 3 3 3 3 3 2 2 2 2 1 -0 -1 -1 -2 -2 -3 -2 -2 -2 -2 -2 -2 -2 -2 -1 -1 -1 -1 -1 -0
1 2 2 3 3 3 3 3 3 3 4 3 3 2 3 4 4 3 3 3 3 2 2 1 1 0 -1 -2 -3 -3 -2 -2 -2 -2 -2 -2 -2 -2 -2 -2 -2 -1 -1
-0 1 2 2 3 3 2 4 3 2 3 3 3 4 4 4 4 5 4 3 3 3 2 2 2 1 1 -1 -2 -2 -3 -2 -2 -2 -2 -2 -2 -2 -2 -2 -2 -2 -2
1 1 1 2 2 2 3 3 3 3 4 4 5 6 5 4 5 4 4 4 4 3 3 3 2 1 1 -1 -1 -2 -2 -2 -2 -2 -2 -2 -2 -2 -2 -2 -2 -2 -2
1 0 1 1 1 2 3 3 4 4 4 5 5 7 6 5 4 3 3 4 4 3 3 3 3 2 2 1 1 -1 -2 -2 -2 -2 -2 -2 -2 -2 -2 -2 -2 -2 -2
0 1 1 1 1 2 3 3 3 3 4 4 4 4 6 7 5 2 3 3 3 4 3 3 3 2 2 2 0 0 -1 -1 -2 -2 -2 -2 -2 -2 -2 -2 -2 -2 -2
0 0 1 1 1 1 2 2 2 3 3 4 3 4 4 4 5 6 3 4 4 3 3 5 4 4 3 3 3 3 3 1 0 -0 -1 -1 -1 -1 -1 -1 -1 -1 -2
0 0 1 1 1 1 1 2 2 2 2 3 3 4 4 4 4 6 6 6 4 4 4 5 3 3 3 4 3 3 3 2 2 1 1 0 0 -0 -0 -0 -1 -1 -1
2 2 1 1 1 0 0 0 1 1 1 1 2 2 3 4 4 6 6 6 6 5 4 3 4 3 3 4 4 5 3 2 2 2 1 1 1 1 0 0 -0 -0 -1
5 5 4 5 5 5 4 4 4 4 4 4 3 2 3 3 3 4 5 6 7 5 5 4 4 3 3 4 4 5 5 3 2 2 2 1 1 1 1 1 0 0 -0
7 7 7 7 6 6 6 6 6 6 6 6 6 6 4 4 4 4 4 5 7 7 6 7 6 6 5 3 4 5 4 4 3 2 2 1 1 1 1 1 0 0 -0
8 8 8 9 8 8 8 8 8 8 8 8 8 8 7 6 6 5 4 5 6 8 9 7 7 6 6 5 5 4 4 5 4 3 2 2 2 2 2 2 1 1 0
9 10 10 10 10 10 9 9 10 9 10 10 9 9 8 8 7 7 6 6 6 7 9 7 7 6 5 5 6 6 5 6 5 3 3 3 3 3 3 3 2 2 2
10 11 11 11 11 11 10 11 11 11 11 11 10 9 9 8 8 7 7 7 7 7 9 9 7 7 7 7 6 6 5 5 5 4 4 4 4 4 4 4 4 3 3
12 12 12 12 11 11 12 12 12 11 11 11 10 10 10 9 9 9 9 9 9 9 9 10 9 9 8 7 6 7 5 6 6 6 5 5 5 5 5 5 5 4 4
13 13 12 12 12 12 13 12 12 12 12 12 11 12 11 11 11 11 11 11 10 10 10 11 11 9 9 7 7 7 8 7 8 7 6 6 7 7 6 5 5 4 3
13 13 13 13 13 14 13 13 12 13 13 13 12 12 12 12 12 12 12 11 11 12 12 11 11 10 9 8 9 9 9 9 9 10 9 8 8 7 7 6 5 5 5
14 14 14 15 15 14 13 13 14 14 14 14 14 13 13 13 12 11 11 12 11 11 11 11 11 11 10 10 10 8 9 8 10 10 10 10 9 9 8 6 6 5 5
15 16 16 16 16 14 13 12 12 14 14 14 14 14 14 14 12 11 11 10 10 11 11 11 11 11 11 10 9 9 9 10 11 10 11 10 9 9 9 7 5 5 5
16 17 17 16 16 16 13 12 12 14 14 14 14 14 14 13 12 12 11 10 10 9 9 10 11 11 11 10 10 11 10 10 11 11 11 12 10 11 9 7 5 4 5
17 17 17 17 17 16 13 12 12 14 14 15 14 13 13 12 12 12 11 11 11 10 11 11 10 10 9 9 9 9 10 11 10 10 10 13 11 13 11 7 5 6 6
18 19 17 19 20 17 14 12 12 14 14 14 14 12 12 12 10 9 10 11 12 11 9 8 8 8 9 9 8 9 11 11 12 11 10 12 12 14 13 14 11 7 8
18 18 17 19 19 19 15 13 12 15 16 14 13 11 10 10 9 9 11 11 11 11 11 10 12 12 11 11 10 11 9 11 12 13 10 12 12 12 15 13 13 13 12

GFSMA_con_lsi_090.txt.gz
Lid_Strength_Index
2 2 2 2 2 2 2 2 2 2 2 2 2 2 1 1 1 1 1 2 -0 -2 -2 -2 -2 -2 -2 -2 -2 -2 -2 -2 -2 -1 -1 -1 -1 -1 -1 -1 -1 -1 -1
2 2 2 2 2 2 2 2 3 2 2 2 2 2 2 2 1 1 1 1 1 -0 -1 -2 -2 -2 -2 -2 -2 -2 -2 -2 -2 -2 -2 -2 -2 -2 -2 -1 -2 -2 -1
2 2 2 2 2 2 2 3 3 3 3 3 3 3 2 2 2 2 2 2 1 1 -0 -1 -2 -2 -2 -3 -2 -2 -2 -2 -2 -2 -2 -2 -2 -2 -2 -1 -1 -1 -1
2 3 3 2 2 3 3 3 3 3 4 4 4 3 3 2 2 3 3 3 3 2 1 0 -1 -2 -2 -3 -3 -2 -2 -2 -2 -2 -2 -2 -2 -2 -2 -2 -2 -2 -2
2 2 3 3 3 3 3 3 4 4 4 3 3 3 3 4 4 3 4 3 3 3 2 1 1 0 -1 -2 -2 -3 -2 -2 -2 -2 -2 -2 -2 -2 -2 -2 -2 -2 -2
-0 1 2 3 3 3 2 3 3 3 3 3 3 4 4 4 4 4 4 4 3 3 3 3 2 2 1 -1 -2 -2 -2 -2 -2 -2 -2 -2 -2 -2 -2 -2 -2 -2 -2
0 1 1 1 2 2 3 3 3 4 4 4 4 5 4 4 4 4 4 4 4 3 4 3 3 2 1 -0 -1 -2 -2 -3 -2 -2 -2 -2 -2 -2 -2 -2 -2 -2 -1
-0 0 1 1 1 2 3 3 4 4 5 4 4 5 6 4 5 3 3 3 3 3 3 3 3 3 2 2 1 -1 -2 -3 -3 -2 -2 -2 -2 -2 -2 -2 -2 -2 -2
0 1 1 1 1 2 2 2 3 3 4 3 3 3 5 6 4 3 3 3 4 4 4 4 4 3 3 3 2 1 -0 -1 -2 -2 -2 -2 -2 -2 -2 -2 -2 -2 -2
0 0 0 1 1 1 2 2 2 2 3 4 3 3 3 3 5 6 5 4 5 5 5 4 5 4 4 3 3 3 2 1 -0 -1 -1 -1 -2 -2 -2 -2 -2 -2 -2
0 0 0 1 1 1 1 1 1 1 1 2 2 3 4 4 5 6 7 6 5 6 6 6 5 4 3 3 3 4 3 1 1 1 0 -0 -1 -1 -1 -1 -2 -2 -2
4 4 4 3 4 4 4 4 3 4 4 3 3 3 4 5 5 6 7 7 8 7 7 5 5 4 4 4 4 4 3 2 1 1 1 1 1 -0 -1 -1 -2 -2 -2
6 6 6 7 7 7 7 6 7 7 7 7 7 6 5 6 5 6 7 8 9 7 7 7 5 5 4 5 5 6 5 3 2 2 2 2 1 1 1 -0 -1 -1 -1
8 8 8 8 8 8 8 8 8 8 9 9 9 9 8 8 7 7 7 8 10 10 10 10 8 7 7 6 5 6 5 5 3 3 2 2 1 1 1 0 -0 -1 -1
10 10 10 10 10 10 10 10 10 10 11 11 10 10 10 10 9 9 8 8 9 12 13 11 11 8 8 7 7 6 6 6 4 3 3 2 2 1 1 1 0 0 -0
11 11 11 11 11 11 11 11 11 11 12 12 11 12 12 11 10 10 9 9 9 9 12 10 9 8 8 8 7 7 7 7 5 4 3 2 2 2 2 2 2 2 1
12 12 12 12 12 13 13 12 12 12 13 13 13 13 12 12 11 11 10 10 10 10 11 11 10 9 10 10 9 8 7 7 6 4 3 3 3 3 3 3 3 3 3
12 13 13 13 13 13 13 13 13 13 14 14 14 13 13 12 12 12 12 12 11 11 12 13 12 12 11 10 9 9 8 7 6 5 4 4 4 4 5 4 4 4 4
14 14 14 14 14 14 14 13 13 14 14 14 14 14 14 14 14 14 13 12 12 11 11 13 13 12 11 10 10 9 8 8 8 7 6 6 6 6 6 5 5 4 3
15 15 15 15 15 15 14 14 14 15 15 14 13 14 14 14 15 14 13 13 13 13 13 13 13 13 11 10 10 10 10 9 9 9 8 8 8 7 6 5 5 5 4
16 15 16 16 15 15 14 15 15 15 15 15 15 14 14 14 13 12 13 13 13 13 13 13 13 12 12 11 11 11 11 10 10 10 10 10 9 9 8 6 5 4 4
16 16 16 16 16 15 14 13 13 15 15 15 15 15 14 14 13 12 11 11 11 12 13 12 12 12 12 12 11 11 11 11 12 11 12 12 10 10 8 6 4 4 4
16 16 16 16 17 17 14 13 13 15 15 15 15 14 14 14 13 14 12 10 10 9 9 10 12 12 12 11 11 10 10 11 11 10 10 13 11 12 8 6 5 5 5
17 17 17 17 17 17 14 13 13 15 15 15 15 15 15 14 13 13 12 12 11 11 11 10 10 10 10 10 10 10 10 10 9 9 9 13 12 13 12 11 5 6 6
18 19 18 20 20 19 14 13 13 15 15 15 14 15 15 13 12 11 12 12 11 10 9 9 9 10 10 10 10 10 10 10 11 11 10 11 12 13 13 13 12 7 7
18 18 18 20 20 20 16 14 13 16 17 15 15 14 13 11 11 10 10 10 11 11 10 16 16 14 12 12 10 11 10 11 11 12 10 11 11 11 14 12 13 13 13

GFSMA_con_lsi_093.txt.gz
Lid_Strength_Index
2 2 2 2 2 2 2 2 2 2 2 2 2 2 2 2 2 1 2 2 0 -1 -2 -2 -2 -2 -2 -2 -2 -2 -2 -2 -2 -2 -2 -2 -1 -1 -2 -2 -2 -2 -2
2 2 2 2 2 2 2 3 3 3 3 3 3 2 2 2 2 2 2 2 1 -0 -1 -2 -2 -2 -2 -2 -2 -2 -2 -2 -2 -2 -2 -2 -1 -1 -2 -2 -2 -2 -2
2 2 3 3 3 3 3 3 3 3 3 3 3 3 3 3 3 3 3 3 3 1 1 -1 -1 -2 -2 -2 -2 -2 -2 -2 -2 -2 -2 -2 -2 -2 -2 -2 -2 -2 -2
2 3 3 3 3 3 3 4 4 4 4 4 4 3 3 3 4 4 4 3 3 3 2 1 -0 -1 -2 -2 -3 -2 -2 -2 -2 -2 -2 -2 -2 -2 -2 -2 -2 -2 -2
2 3 3 3 3 3 4 3 4 4 4 4 3 4 4 4 4 3 3 3 3 2 2 1 1 0 -0 -2 -2 -2 -2 -2 -2 -2 -2 -2 -2 -2 -2 -2 -2 -2 -2
0 1 2 3 3 3 2 3 4 3 3 4 4 3 4 4 4 4 4 3 3 3 3 3 3 2 1 -0 -2 -2 -3 -2 -2 -2 -2 -2 -2 -2 -2 -2 -2 -2 -2
-0 0 1 1 2 2 2 3 3 4 4 4 5 3 4 3 4 4 4 4 3 3 3 3 3 3 3 1 -1 -1 -2 -3 -2 -2 -2 -2 -2 -2 -2 -2 -2 -2 -2
0 0 1 1 1 2 2 3 3 3 4 4 4 4 6 4 4 3 3 3 4 4 4 4 4 4 4 3 2 -0 -1 -2 -2 -2 -2 -2 -2 -2 -2 -2 -2 -2 -2
0 0 1 1 1 2 2 2 2 3 3 3 3 3 5 6 5 4 4 5 5 5 5 5 5 4 4 4 3 2 0 -1 -1 -2 -1 -1 -1 -1 -2 -2 -2 -2 -2
0 0 0 1 1 1 2 2 2 2 2 3 3 4 3 3 6 8 6 5 6 6 5 5 5 4 4 3 3 3 2 1 0 0 -0 -0 -1 -1 -1 -1 -2 -2 -2
1 1 1 1 2 2 2 1 2 3 2 3 3 3 5 5 7 7 9 9 7 7 7 7 6 5 4 4 4 4 3 2 1 1 1 1 1 0 0 -0 -1 -1 -2
5 5 5 5 4 5 5 6 6 6 6 5 6 5 6 7 8 8 9 10 10 10 9 7 7 6 6 6 5 5 4 3 3 3 3 2 2 2 1 1 -0 -1 -1
7 7 6 7 8 8 8 8 8 8 9 9 10 9 9 9 9 9 10 11 12 12 11 9 8 8 7 7 6 6 6 5 4 4 4 3 3 3 3 2 1 0 -1
8 8 9 10 10 10 10 9 10 10 11 11 12 12 11 11 10 10 10 11 14 14 13 13 10 9 9 8 7 7 8 6 6 6 5 5 5 4 3 2 1 1 0
9 11 11 11 11 11 11 11 11 12 12 13 13 13 12 11 11 11 11 11 11 16 15 13 13 11 10 9 9 9 9 8 8 7 6 6 5 4 3 2 2 2 1
11 12 12 12 12 12 12 12 13 13 14 14 13 13 13 13 13 13 12 12 11 12 14 12 12 11 10 10 10 10 10 9 8 7 6 5 4 4 4 3 3 2 2
12 12 12 13 13 14 14 13 14 14 14 14 14 14 14 14 14 14 13 13 13 13 14 13 12 11 12 12 11 10 10 10 9 7 6 5 5 5 5 4 4 3 3
13 13 13 14 15 15 15 14 15 14 15 15 14 15 15 14 15 14 14 14 13 12 13 14 13 13 12 11 11 11 10 9 9 7 6 6 6 6 6 5 4 4 4
14 14 15 16 16 15 15 15 15 15 15 15 15 15 15 15 16 16 14 13 13 13 13 14 14 13 12 12 12 12 11 10 10 8 7 7 7 7 6 5 4 4 4
15 16 16 16 16 16 15 15 15 15 15 15 15 15 15 16 15 14 14 14 13 13 13 13 14 14 13 12 11 12 12 11 11 10 9 9 8 7 5 4 4 4 4
17 17 17 17 17 16 14 15 15 15 16 16 15 15 15 15 13 13 13 13 13 13 13 14 14 14 13 13 13 11 12 12 11 11 12 12 10 7 6 5 5 4 4
17 17 17 17 17 16 13 12 13 15 16 16 16 15 15 15 14 12 12 11 11 13 14 14 13 14 13 12 11 13 13 13 13 10 12 11 9 9 7 6 4 4 4
17 18 18 17 17 17 13 13 13 15 15 16 15 15 15 14 14 13 12 12 12 11 10 12 12 12 12 11 12 14 13 12 12 10 9 12 10 12 11 6 5 5 5
18 18 18 17 17 17 14 14 13 15 16 15 15 15 15 15 14 13 13 13 13 12 11 10 10 10 11 11 12 12 11 12 10 9 8 13 11 13 11 12 6 5 6
19 19 18 20 20 20 15 14 14 16 16 16 15 15 15 15 13 12 13 13 13 11 9 9 9 10 10 11 11 16 14 14 14 11 9 11 11 11 12 12 12 8 6
18 18 18 20 21 23 16 15 15 17 20 17 17 15 14 14 13 12 13 12 12 12 11 12 14 15 14 14 12 14 11 16 14 13 9 10 10 10 13 12 13 13 13

GFSMA_con_lsi_096.txt.gz
Lid_Strength_Index
2 2 3 2 2 2 2 3 3 3 3 2 2 2 2 2 2 2 2 1 1 -1 -2 -2 -2 -2 -2 -2 -2 -2 -2 -2 -2 -2 -2 -2 -2 -2 -2 -1 -1 -2 -2
2 2 3 3 3 3 3 3 3 3 3 3 3 3 3 3 3 3 3 3 1 0 -1 -2 -2 -2 -2 -2 -2 -2 -2 -2 -2 -2 -2 -2 -2 -2 -2 -2 -2 -2 -2
3 3 3 3 3 3 3 3 4 4 4 4 4 3 3 3 4 4 3 3 3 2 1 -1 -2 -2 -2 -2 -2 -2 -2 -2 -2 -2 -2 -2 -2 -2 -2 -2 -2 -2 -2
2 3 3 3 3 3 3 4 4 4 4 4 4 4 4 4 3 3 3 3 3 3 2 0 -1 -1 -2 -2 -3 -2 -2 -2 -2 -2 -2 -2 -2 -2 -2 -2 -2 -2 -2
2 2 3 3 3 3 3 2 3 4 3 3 4 4 4 3 3 3 4 3 3 3 3 2 1 1 0 -1 -1 -2 -2 -2 -2 -2 -2 -2 -2 -2 -2 -2 -2 -2 -2
1 1 2 2 3 3 2 2 4 3 3 3 3 3 3 3 4 4 4 3 4 4 4 4 4 3 2 0 -0 -0 -1 -2 -2 -2 -2 -2 -2 -2 -2 -2 -2 -2 -2
0 1 1 1 2 2 2 2 3 3 4 3 4 3 3 4 4 4 4 4 4 4 4 4 4 4 4 1 1 -0 -1 -1 -1 -1 -1 -1 -1 -1 -2 -2 -2 -2 -2
0 0 1 1 1 2 2 3 3 3 3 3 3 4 6 5 4 4 4 5 5 6 5 5 5 5 5 5 4 0 -1 -1 -1 -1 -0 -0 -0 -0 -0 -1 -1 -1 -2
0 1 0 1 1 1 2 2 2 3 3 2 2 4 7 8 5 5 6 6 7 7 7 6 6 6 6 6 4 3 1 1 1 1 1 1 1 1 0 0 -0 -1 -0
0 0 0 1 1 1 2 2 2 2 2 4 4 4 4 4 7 9 8 7 8 7 7 7 7 6 6 5 5 4 4 4 4 4 3 3 2 2 1 1 0 0 0
1 1 1 2 2 3 3 2 3 4 5 4 4 6 7 8 9 9 11 11 11 10 9 9 8 8 7 7 7 7 6 6 6 6 5 4 4 3 2 1 1 1 1
5 5 5 5 5 5 5 6 7 8 8 8 8 9 10 10 10 11 12 14 14 13 12 11 10 9 9 9 9 8 8 7 7 6 6 6 5 4 4 3 3 2 1
6 7 7 7 7 8 8 9 9 10 11 11 11 12 12 11 11 11 12 14 15 14 13 13 11 11 10 10 10 9 9 8 8 7 7 7 6 6 5 4 3 2 2
7 8 9 9 10 10 10 11 11 12 12 13 14 13 13 13 13 12 13 13 16 16 16 15 13 12 11 11 10 9 10 9 8 8 7 7 7 6 5 4 3 3 3
9 10 10 12 12 11 11 12 13 13 14 14 14 14 14 14 13 13 13 13 14 17 17 16 15 13 11 11 11 11 11 9 8 8 8 7 6 5 5 5 4 4 3
11 11 13 13 13 12 12 13 14 15 15 15 15 15 15 14 14 14 14 14 14 14 17 14 13 12 12 12 11 11 11 10 10 9 8 8 7 6 6 6 5 4 3
12 13 13 14 14 13 13 14 15 15 16 16 15 15 15 15 15 15 15 15 15 14 16 14 13 13 13 13 12 11 11 12 11 10 9 8 7 7 6 6 5 4 2
13 14 14 14 14 14 15 15 16 16 16 16 16 16 16 14 16 16 15 15 15 14 14 16 14 13 13 12 12 12 12 11 12 10 8 8 8 7 5 4 3 3 2
15 15 15 15 15 16 16 16 16 16 16 15 15 16 16 16 17 16 16 16 15 14 13 14 14 13 13 12 13 13 13 13 12 10 9 9 7 6 4 3 2 3 3
15 15 16 16 16 16 16 16 16 16 16 15 15 15 15 16 17 17 16 16 14 14 13 14 14 14 13 13 13 14 14 13 12 11 10 10 8 5 3 3 3 3 3
16 16 16 17 17 16 15 16 15 16 16 16 15 15 15 16 14 14 14 14 14 14 13 14 14 14 14 13 14 13 14 13 14 12 12 11 10 9 5 4 4 4 4
16 17 17 17 18 16 13 13 15 15 15 15 15 16 16 17 15 13 13 12 12 14 14 14 14 14 13 13 13 13 14 13 15 13 12 12 10 11 11 6 4 4 4
17 17 17 18 18 17 13 13 13 15 15 15 16 15 15 15 16 15 13 12 12 12 11 13 14 13 13 13 13 13 15 15 15 12 11 12 10 12 11 8 5 5 5
18 18 18 18 18 16 14 14 13 15 15 15 16 16 16 16 16 15 14 14 14 13 12 12 12 12 12 11 11 12 13 13 15 13 10 14 12 13 11 11 7 5 5
19 19 18 20 20 19 15 13 14 16 16 16 16 16 16 16 15 13 15 18 16 13 12 10 10 10 10 11 10 17 19 19 19 14 11 12 13 12 12 13 12 9 7
19 19 19 21 21 20 15 14 15 16 18 17 17 16 16 15 14 13 16 18 17 14 14 12 12 12 14 14 12 16 14 14 15 16 10 12 11 10 13 12 13 13 13

GFSMA_con_lsi_102.txt.gz
Lid_Strength_Index
-1 -2 -1 -2 -2 -2 -2 -2 -2 -2 -1 -1 -1 -1 -1 -1 -1 -2 -2 1 1 -1 -2 -2 -2 -3 -2 -2 -2 -2 -2 -2 -2 -2 -2 -2 -2 -2 -2 -2 -2 -2 -2
-1 -1 -1 -2 -2 -2 -2 -2 -1 -1 -1 -1 -1 -1 -1 -1 -1 -1 -1 -1 1 1 -1 -1 -0 -1 -1 -1 -1 -1 -1 -1 -1 -1 -1 -1 -1 -1 -2 -2 -2 -2 -2
-1 -1 -1 -1 -2 -2 -2 -2 -2 -1 -1 -1 -1 -1 -1 -1 -1 -1 -0 -0 -0 1 0 1 1 1 1 -0 -0 -0 -0 -0 -0 -0 -0 0 -0 -0 -1 -1 -1 -1 -1
-1 -1 -1 -1 -2 -2 -2 -1 -1 -1 -1 -0 -0 -1 -1 -1 -1 -0 0 -0 0 1 1 3 3 2 2 1 1 0 0 0 1 1 1 2 2 1 1 1 1 0 -0
-0 -1 -1 -1 -1 -1 -1 -1 -1 -0 0 -0 -0 -0 -1 -1 -0 1 0 1 2 2 5 4 3 3 3 2 1 1 2 2 2 3 3 3 3 2 2 2 1 1 0
-0 -0 -0 -0 -1 0 0 -0 -0 -0 -0 0 0 0 -0 -1 -0 1 1 2 3 5 5 5 5 5 4 3 3 3 3 3 3 3 3 3 3 3 2 2 1 1 1
-0 -0 -1 -1 -0 0 -0 1 0 0 0 -0 1 1 -0 0 0 1 2 4 3 7 6 6 6 5 4 4 5 5 4 4 3 4 4 4 3 3 2 2 1 1 1
-0 -0 -0 -1 -1 -0 1 1 1 1 1 -0 2 2 3 2 1 2 1 4 6 7 7 7 6 5 5 7 7 7 5 5 4 4 4 4 3 3 2 2 2 2 2
-0 -0 -0 -0 -1 -0 0 0 1 1 2 0 0 2 4 5 5 2 4 5 8 8 7 7 6 7 7 8 8 8 7 6 5 5 4 4 4 3 3 3 3 3 2
-0 -0 -0 -0 -1 -0 -0 0 0 0 1 2 1 2 2 3 6 7 6 6 8 9 8 8 6 7 8 9 9 9 9 8 7 6 6 5 5 4 4 3 3 3 3
-1 -1 -0 -0 -0 0 1 1 1 1 0 1 2 2 3 4 4 7 10 10 9 9 8 7 7 8 9 9 9 10 9 9 8 8 7 6 6 5 5 4 4 3 3
0 -0 1 1 1 2 2 3 2 2 2 2 4 5 7 7 8 9 10 11 11 10 8 8 9 9 10 10 10 11 10 9 8 8 8 7 7 5 4 4 3 2 3
3 2 2 4 4 5 5 4 4 4 5 6 7 8 8 9 9 9 10 11 11 10 9 8 9 10 10 10 10 11 10 9 9 8 8 8 6 5 5 4 4 3 3
2 3 4 5 6 7 7 6 6 7 7 8 9 9 9 9 9 10 11 11 12 11 10 11 9 10 10 10 10 10 10 10 9 9 8 7 6 6 6 5 5 4 3
5 5 6 7 8 8 8 7 8 9 9 9 9 9 9 10 10 10 10 10 12 13 12 11 12 10 10 10 10 10 10 11 10 9 8 7 7 7 6 6 5 4 3
7 8 9 9 9 9 9 9 9 10 10 10 10 10 10 11 11 11 11 11 11 12 13 11 11 11 10 11 10 10 10 10 10 9 7 7 7 7 7 6 6 5 4
9 10 10 10 11 10 10 10 10 11 11 11 11 10 11 12 12 12 12 12 12 12 13 12 11 11 11 11 10 10 10 10 10 10 9 7 7 7 7 7 6 5 4
11 11 12 12 12 11 11 11 12 11 11 11 11 12 13 13 12 12 12 12 12 12 13 13 12 12 12 11 10 11 11 11 11 11 9 9 8 8 7 7 6 5 4
12 13 13 12 12 11 11 11 12 12 11 11 12 13 13 12 13 13 12 13 13 12 12 13 13 12 11 11 11 11 11 11 10 11 10 10 9 8 8 7 6 5 4
12 14 13 13 12 11 12 12 12 12 12 11 12 13 13 13 13 13 13 13 13 12 12 12 13 12 12 11 12 13 13 11 11 11 11 11 10 9 8 7 6 5 4
13 14 14 13 12 12 12 12 12 12 12 12 13 13 13 14 14 13 13 13 13 13 13 13 13 13 13 13 14 14 14 13 11 11 11 10 10 10 9 6 6 5 5
15 14 14 14 13 13 12 12 12 12 13 14 14 13 14 15 14 14 13 13 13 13 13 13 13 14 14 13 13 14 14 14 14 10 11 10 10 9 9 6 5 4 5
15 15 14 13 13 12 12 12 12 13 14 14 14 14 14 14 15 13 13 13 13 12 12 12 13 13 13 12 13 14 14 14 14 11 11 11 9 9 8 7 6 5 5
16 16 15 13 13 12 11 11 13 14 14 14 14 14 14 15 14 14 13 13 13 13 12 12 12 12 12 11 12 13 13 14 13 11 10 12 8 8 8 7 8 7 6
17 15 16 14 13 12 11 12 14 14 15 15 15 15 15 15 14 14 13 14 13 13 12 12 11 10 10 12 12 13 14 15 13 10 10 10 9 9 7 7 8 9 8
15 17 15 14 14 13 12 13 14 14 15 15 15 16 16 15 14 13 13 13 14 13 13 12 12 11 11 12 13 13 13 14 13 11 10 11 9 9 9 8 9 10 10

GFSMA_con_lsi_105.txt.gz
Lid_Strength_Index
-1 -1 -1 -1 -1 -1 -1 -1 -1 -1 -1 -1 -1 -1 -1 -1 -1 -1 -1 2 -0 -1 -0 1 0 0 0 -0 -0 -1 -1 -1 -0 0 0 0 0 0 0 0 0 -0 -1
-1 -1 -1 -1 -1 -1 -1 -1 -1 -1 -1 -1 -1 -1 -1 -1 -1 -1 -1 1 1 0 2 2 1 1 0 0 -0 -0 -0 0 1 1 2 2 2 2 1 1 1 1 1
-1 -1 -1 -1 -1 -1 -1 -1 -1 -1 -1 -1 -1 -1 -1 -1 -1 -1 -0 -0 1 1 2 3 2 2 1 0 0 1 2 2 2 2 2 2 2 2 2 2 2 1 1
-1 -1 -1 -1 -1 -1 -1 -1 -1 -0 -0 -0 -0 -0 -1 -1 -0 1 1 1 2 4 3 4 3 2 1 1 2 3 3 3 3 3 3 3 3 2 2 2 2 2 1
-1 -1 -1 -1 -1 -1 -1 -1 -0 -0 0 0 0 -0 -1 -1 0 1 1 3 4 5 5 4 4 3 3 4 4 3 3 3 3 3 3 3 3 3 2 2 2 2 1
-1 -1 -1 -1 -1 -1 -0 -0 0 -0 0 0 1 0 -0 -0 0 1 2 4 6 6 5 5 4 4 5 6 5 4 3 3 4 4 4 3 3 3 2 2 2 2 2
-1 -1 -1 -1 -1 -0 -0 -0 0 1 1 -0 1 1 1 0 1 2 2 4 7 6 6 6 5 5 7 7 6 5 4 4 4 4 4 4 3 3 3 2 2 2 2
-1 -1 -1 -0 -1 -0 0 0 0 1 1 0 2 2 4 2 1 3 3 5 7 6 6 6 6 8 8 9 8 7 6 5 4 4 4 4 3 3 3 2 2 2 2
-1 -1 -0 -1 -0 -0 0 0 0 1 2 1 0 2 4 5 5 3 5 6 7 7 7 6 7 8 9 9 9 9 7 6 6 5 5 4 4 3 3 3 2 2 2
-1 -1 -0 -0 -0 -1 0 0 -0 0 1 2 1 2 2 3 7 7 5 6 7 8 8 7 8 9 10 9 10 10 9 8 7 7 6 5 4 3 3 2 2 2 2
-1 -1 -1 -1 -0 -0 -0 1 1 1 0 1 1 2 3 5 5 7 9 8 8 8 8 8 9 10 10 10 10 10 9 8 8 8 7 6 5 4 4 3 3 3 3
-0 -0 -0 -0 -0 0 1 2 2 2 1 1 2 3 5 7 7 9 9 9 10 9 8 8 9 10 10 10 10 10 9 9 8 8 7 6 6 5 5 4 4 3 4
1 0 0 1 2 2 4 4 4 2 2 4 5 7 7 8 8 9 9 10 10 9 9 9 10 10 11 10 10 10 10 10 9 8 7 7 6 6 6 5 5 5 4
1 -0 1 2 3 4 6 5 5 5 5 6 7 8 9 9 9 9 9 10 11 11 10 11 10 10 10 11 11 10 10 10 9 8 7 7 7 7 6 6 6 6 5
1 2 3 4 5 6 7 7 7 8 7 7 8 9 9 10 9 9 9 9 11 12 12 12 12 10 11 10 11 10 11 10 10 9 8 8 7 7 7 7 7 6 6
3 4 5 6 7 8 8 7 8 8 9 9 9 10 10 10 10 9 9 10 11 11 13 12 12 11 11 11 10 10 11 10 11 9 8 8 8 8 8 7 7 7 6
4 5 7 8 8 9 9 9 9 9 10 10 10 10 11 10 11 10 10 11 11 12 13 12 12 11 11 11 11 11 11 11 11 11 10 9 8 8 8 8 8 7 6
5 6 8 10 11 10 10 10 11 10 11 11 11 11 12 11 11 11 11 11 12 12 13 14 12 12 12 11 11 12 12 11 11 11 10 10 9 9 8 8 8 8 7
7 9 11 11 12 11 11 11 11 11 11 11 11 12 12 12 12 11 12 12 12 13 12 13 13 12 12 12 12 12 12 12 11 11 11 11 10 9 8 8 8 8 8
10 11 11 12 12 12 12 11 12 11 11 11 11 11 12 11 11 12 12 12 12 13 13 14 13 13 13 12 13 13 14 13 13 11 11 11 11 10 9 8 8 8 7
10 11 12 13 13 13 13 12 12 12 12 12 12 12 12 12 12 12 12 13 13 13 14 14 14 13 13 14 14 14 14 14 13 13 12 11 12 11 11 9 8 8 7
13 12 14 14 15 14 12 12 13 12 13 13 13 13 12 14 13 13 13 13 12 14 15 14 13 14 14 14 13 14 14 15 16 12 14 12 12 11 11 11 8 8 7
14 14 13 15 14 15 12 12 13 13 13 12 13 13 13 14 14 14 13 13 13 12 12 13 14 14 14 14 15 14 14 14 15 13 12 14 12 12 11 10 9 8 7
14 14 14 15 15 15 12 13 12 13 13 13 13 13 14 15 14 14 14 14 13 13 13 13 13 13 12 12 12 13 14 14 14 13 12 14 12 11 9 11 10 10 8
15 15 15 15 15 13 13 12 13 13 13 14 14 14 14 14 14 14 14 14 14 13 12 11 11 11 10 10 11 13 14 15 16 12 11 12 12 11 10 9 11 11 10
15 16 16 15 14 14 11 13 12 13 15 15 15 15 15 14 14 14 15 14 15 14 13 13 13 12 11 11 11 12 13 15 15 14 12 13 11 11 13 11 11 12 12

GFSMA_con_lsi_108.txt.gz
Lid_Strength_Index
1 1 1 1 1 1 1 1 1 1 1 1 0 1 1 1 1 1 2 2 1 2 1 0 -0 -1 -1 -0 1 1 1 2 2 2 2 2 2 2 2 1 1 1 1
1 1 1 1 1 1 1 1 1 1 1 1 1 1 1 1 1 1 2 2 2 2 2 1 0 -0 -0 1 2 1 1 2 2 2 2 2 2 2 2 2 1 1 1
0 1 1 1 1 1 1 1 1 1 1 0 1 1 -0 1 1 2 2 2 4 3 3 2 1 1 2 2 2 2 2 3 3 3 3 3 3 2 2 2 2 2 1
0 1 1 1 1 1 1 1 1 1 1 1 1 1 1 1 2 3 5 6 8 6 3 3 3 3 3 3 2 2 2 3 3 3 3 3 3 3 2 2 2 2 1
0 1 1 0 0 1 1 1 2 1 2 1 1 2 1 2 3 4 6 8 8 7 7 3 4 5 5 4 3 3 3 3 4 4 4 4 3 3 2 2 1 1 1
0 1 1 1 1 1 1 1 1 1 1 1 1 1 2 3 4 5 7 9 8 8 8 7 7 7 6 5 5 4 4 4 4 4 4 4 3 2 2 2 1 1 1
0 1 1 0 1 1 1 1 1 1 1 0 2 2 3 2 4 5 7 10 9 9 8 8 9 10 9 7 6 5 5 4 4 4 4 3 3 2 2 1 2 1 1
1 1 1 1 1 1 1 1 1 1 1 1 3 4 5 4 5 6 8 10 10 9 8 9 10 10 11 11 10 7 6 5 5 5 4 3 3 3 2 2 2 2 2
1 1 1 1 1 0 0 1 1 1 2 1 2 4 6 7 7 7 9 11 11 11 9 9 10 10 11 11 11 10 8 7 6 5 4 4 4 3 2 3 3 3 3
1 1 1 1 0 0 0 1 1 1 1 2 2 3 4 6 10 10 10 12 11 10 10 9 11 11 11 12 11 10 9 8 7 6 5 5 4 4 3 3 3 3 3
1 0 0 1 1 1 0 1 1 1 1 2 2 4 5 8 8 11 13 12 12 11 10 10 11 12 11 12 13 11 9 8 8 7 6 6 5 5 4 4 4 4 4
1 0 0 1 1 1 1 2 2 2 2 2 3 4 6 9 9 12 13 13 13 12 10 10 12 12 12 13 11 10 10 9 8 7 7 7 6 6 5 5 5 4 5
1 1 1 1 1 1 2 3 3 3 3 3 5 7 9 10 10 11 12 13 13 12 10 11 12 12 11 13 13 11 11 9 8 7 7 7 7 7 6 6 6 5 5
1 1 1 1 1 2 3 4 5 5 5 6 8 10 11 11 11 11 11 13 14 13 12 11 12 12 13 13 12 11 13 10 9 8 8 8 7 7 7 7 6 6 6
2 2 2 3 4 5 5 5 6 8 8 8 9 11 11 12 12 12 11 12 12 14 13 13 14 13 13 13 12 13 13 11 10 9 9 8 8 8 8 7 7 7 7
3 3 3 5 6 6 7 8 9 9 8 9 10 11 12 12 12 12 12 12 12 13 14 13 13 13 13 12 12 13 13 11 11 10 10 9 9 8 8 8 8 8 7
3 4 5 7 7 8 8 9 10 10 10 11 11 12 12 12 13 12 12 12 12 12 13 13 13 13 13 14 13 13 13 13 13 11 11 10 9 9 9 8 8 8 8
4 5 7 8 8 9 10 11 11 11 11 12 12 12 13 12 13 13 13 12 12 12 13 14 13 14 14 14 14 14 13 12 13 11 11 11 10 9 9 9 9 9 9
6 7 7 8 10 10 11 11 12 13 12 12 12 13 13 13 14 14 13 13 12 12 13 14 14 14 14 15 15 15 15 14 12 11 11 11 11 10 9 9 9 9 9
8 9 8 9 9 10 12 12 12 13 13 12 13 13 13 13 14 14 13 13 13 13 13 14 15 15 16 15 16 16 17 16 16 13 11 12 11 11 10 9 9 9 9
9 9 10 10 11 12 12 13 13 14 13 14 13 15 13 13 12 12 13 13 13 14 14 15 15 16 17 16 16 15 15 14 16 17 17 16 16 16 14 12 11 9 8
12 12 12 12 13 12 13 12 14 14 14 14 14 15 15 14 12 10 10 11 12 13 15 15 15 15 15 16 16 16 15 16 17 13 14 14 16 17 15 15 10 9 9
14 13 13 14 14 14 12 12 13 13 14 15 15 15 16 14 14 14 12 11 12 12 13 14 15 15 16 15 16 18 15 15 15 14 14 15 18 17 15 12 11 10 9
14 14 14 14 14 15 11 12 12 14 15 15 15 15 15 15 14 14 14 15 14 14 14 14 14 15 13 13 14 14 14 15 15 14 13 16 16 12 12 13 9 10 10
15 15 15 15 15 14 12 12 13 15 15 14 15 15 14 14 13 13 15 15 15 14 13 12 12 11 11 11 11 14 16 16 17 15 13 13 14 13 14 15 13 11 11
15 15 15 15 14 13 12 12 13 15 15 15 15 15 14 14 13 13 15 15 16 15 14 15 14 13 12 13 10 13 15 16 16 16 16 13 16 15 18 15 13 13 13

GFSMA_con_lsi_111.txt.gz
Lid_Strength_Index
2 2 1 1 1 1 1 2 2 1 1 1 1 1 1 1 2 3 3 3 1 1 0 -0 -1 0 1 1 1 1 1 1 2 2 2 2 2 2 2 2 2 1 1
1 1 1 1 1 1 1 1 1 1 1 1 1 0 0 1 2 3 3 4 2 2 1 -0 1 1 1 1 1 1 1 1 2 2 2 3 3 2 2 1 1 1 1
1 1 1 1 1 1 1 1 1 2 1 -0 1 1 -0 1 2 2 4 5 5 2 2 2 3 2 2 2 2 2 2 2 2 2 3 3 3 2 2 2 2 1 1
1 1 1 2 1 1 1 2 2 2 1 1 1 2 1 2 4 6 7 7 7 6 4 4 4 4 3 2 2 2 2 2 3 3 3 2 3 2 2 2 2 2 2
1 1 1 1 1 1 2 2 2 2 2 2 1 2 1 4 5 7 9 8 7 7 6 6 6 6 5 4 3 2 2 3 3 3 3 3 3 3 2 3 2 2 2
1 1 2 2 1 2 2 2 2 2 2 2 1 1 2 4 6 9 9 8 9 8 8 9 10 9 6 5 4 3 3 3 3 3 4 3 3 3 3 3 2 2 2
0 1 1 2 2 2 2 2 2 2 2 1 3 2 3 4 6 9 10 10 9 9 10 11 11 11 10 7 5 4 3 3 4 4 3 4 3 3 3 3 3 3 3
1 1 1 2 1 2 2 2 2 3 2 1 4 3 5 4 7 9 11 10 10 9 10 11 12 11 12 11 8 6 5 4 4 4 4 4 3 3 3 3 3 3 3
1 1 1 1 1 1 1 2 2 2 2 1 2 4 7 7 7 9 12 11 11 10 12 12 11 11 12 12 10 9 7 6 5 5 5 5 4 4 3 3 3 3 3
1 1 1 1 1 1 1 1 1 2 2 2 2 3 4 7 9 11 11 12 11 10 11 12 12 11 12 12 10 9 8 7 7 6 6 5 5 4 4 4 4 4 4
1 1 1 1 1 1 1 1 1 1 1 2 3 4 5 8 8 11 13 14 12 11 12 13 13 13 12 12 11 10 8 8 8 8 7 7 6 5 5 5 4 4 5
1 1 1 2 1 1 1 1 1 1 2 2 3 4 6 8 9 12 13 14 14 12 12 12 13 13 12 12 10 10 9 8 8 8 8 7 7 6 6 5 5 5 5
1 1 1 2 2 1 1 1 2 2 2 2 3 4 6 8 9 11 13 14 15 13 12 13 13 12 11 12 11 11 10 9 8 8 8 8 7 7 7 6 6 6 6
1 1 1 1 1 1 1 2 2 2 3 4 5 7 8 9 11 11 12 13 15 14 13 12 13 12 12 12 10 11 11 10 9 8 8 8 8 8 8 7 7 7 7
1 1 2 2 2 2 2 3 3 4 4 5 7 9 9 10 11 12 12 12 13 15 14 13 14 12 12 12 11 12 13 11 10 10 9 9 9 8 8 8 8 8 7
2 2 2 2 2 3 4 5 6 7 7 9 9 11 11 11 12 12 12 12 12 13 14 13 13 12 12 11 11 13 13 12 11 11 11 10 10 9 9 9 8 8 8
2 3 3 3 4 5 6 6 6 8 8 10 12 10 12 12 12 13 13 13 13 13 14 14 13 13 13 12 12 13 13 14 14 11 11 11 10 10 9 9 9 9 9
2 3 3 4 5 6 7 7 9 9 9 12 12 13 12 15 14 13 13 13 13 13 13 14 13 13 13 12 12 14 14 13 14 12 11 11 11 10 10 10 10 10 10
3 3 4 5 7 8 8 8 8 10 10 11 11 13 14 14 15 14 13 13 13 12 13 14 14 13 13 13 14 15 15 15 13 12 10 11 11 11 10 10 10 10 10
6 6 5 6 7 8 8 8 9 11 11 11 12 13 13 13 13 14 15 14 13 14 14 14 15 14 14 14 15 15 17 16 16 13 12 12 12 11 11 11 11 10 9
7 8 8 9 9 9 9 9 10 11 12 13 13 13 14 14 13 13 14 14 15 15 14 15 15 15 14 15 15 15 17 15 15 16 16 16 16 15 15 12 12 10 9
10 10 10 10 10 9 10 11 11 12 14 14 14 15 14 15 13 12 12 12 13 14 14 15 14 14 14 15 15 16 17 17 18 15 14 14 16 17 16 16 11 10 10
12 12 12 13 13 12 11 11 12 13 14 14 14 15 15 15 14 13 12 11 12 11 11 13 14 14 15 14 16 19 17 16 16 15 15 16 17 18 17 12 9 10 10
12 13 13 13 13 14 11 11 12 14 14 14 14 15 15 15 14 14 15 14 14 14 13 13 14 14 14 14 15 15 16 16 15 14 14 17 15 17 14 15 9 9 10
14 13 14 13 14 14 11 11 12 14 15 14 14 14 14 15 14 14 15 15 15 15 12 12 12 12 12 11 12 14 18 19 19 16 15 15 15 17 16 16 14 9 10
14 14 14 14 14 14 11 11 13 14 14 15 15 15 14 15 14 13 15 15 16 16 15 15 14 13 12 12 11 12 14 17 18 18 15 15 15 16 18 16 14 13 13

GFSMA_con_lsi_114.txt.gz
Lid_Strength_Index
2 2 2 2 2 2 2 2 2 1 1 1 1 1 2 3 3 4 4 2 1 -0 -1 0 0 1 1 1 1 1 2 2 2 2 2 2 1 1 1 2 1 1 1
2 2 2 2 2 2 2 2 2 2 2 1 0 0 1 2 3 4 5 4 1 -0 1 1 1 1 1 1 1 1 2 2 2 2 2 1 1 1 2 2 2 2 2
2 2 2 2 2 2 2 2 2 2 2 0 0 0 0 2 3 5 6 6 4 2 3 3 2 2 2 1 1 2 2 2 3 2 2 2 2 2 2 2 2 2 2
1 1 1 2 1 2 2 2 2 2 3 3 2 1 2 2 3 5 6 7 6 6 5 5 4 3 3 2 2 2 2 2 2 3 2 2 2 3 3 3 3 2 2
1 1 1 1 2 2 2 2 2 3 3 3 2 1 2 5 8 8 8 7 6 7 8 6 6 6 4 3 3 2 2 3 3 3 3 2 3 3 3 3 3 3 3
1 2 2 2 2 2 2 3 3 2 2 3 2 2 3 5 8 10 9 8 8 8 10 11 11 9 6 4 4 3 3 3 3 3 3 3 3 3 3 3 3 3 3
1 2 2 2 2 3 2 2 3 3 3 2 2 3 3 5 9 10 10 9 9 10 12 12 12 12 11 6 5 4 4 3 3 3 3 3 4 4 4 4 4 4 4
1 1 2 2 2 3 3 3 3 3 3 2 3 4 5 6 8 10 10 9 11 11 12 12 12 13 13 12 8 6 5 4 3 4 4 4 4 4 4 4 4 4 4
1 1 1 1 2 2 2 3 3 3 3 2 2 4 6 6 8 10 12 11 11 12 13 12 12 13 13 12 11 9 6 5 4 5 4 5 4 4 5 4 4 4 4
1 1 1 1 1 2 2 2 2 2 2 3 3 3 4 6 8 11 12 12 11 12 13 13 13 12 13 12 10 8 7 7 6 6 5 5 5 5 5 5 5 5 5
0 1 1 2 2 2 2 2 3 2 1 2 3 4 5 7 8 10 14 15 13 12 13 13 13 13 13 13 12 9 7 7 7 6 6 7 6 6 5 5 5 5 5
1 0 1 1 2 2 2 2 2 2 2 1 2 4 5 6 8 10 12 15 14 13 13 13 13 13 13 13 10 9 8 7 7 7 8 7 8 7 6 6 6 6 6
1 1 1 2 2 2 2 2 2 2 2 1 2 4 5 6 7 9 11 13 15 13 13 13 13 13 12 13 12 10 9 8 8 8 8 8 8 8 7 7 6 6 6
1 1 1 1 1 2 2 3 2 2 2 2 2 4 5 6 9 10 11 14 15 15 13 14 13 13 13 13 12 10 10 9 8 8 8 9 9 8 8 7 7 7 7
1 1 1 1 1 2 3 3 3 3 2 2 3 4 5 7 9 10 10 11 13 16 15 15 16 14 13 12 11 12 12 9 9 9 9 9 9 9 9 8 8 8 8
1 2 2 2 2 2 3 3 3 2 3 3 4 6 8 10 10 11 11 12 14 16 16 14 14 13 13 12 11 13 12 10 10 10 10 10 10 10 9 9 9 9 9
1 2 2 2 2 2 2 3 3 4 5 4 8 8 8 12 12 14 13 14 14 14 15 16 15 14 14 13 13 13 12 12 12 11 11 10 10 10 10 10 10 10 10
2 2 2 2 3 3 3 4 4 5 6 7 9 10 11 13 14 13 13 14 13 14 14 16 15 15 14 13 13 14 13 13 13 12 10 10 10 10 10 10 10 10 10
3 3 3 3 3 3 4 5 4 6 7 7 8 11 12 13 14 14 13 14 14 14 14 16 17 16 14 14 14 14 14 14 13 12 10 10 10 10 10 10 10 10 10
3 3 3 3 4 5 6 6 6 7 8 8 9 9 10 12 12 13 14 14 14 15 15 16 17 16 16 15 15 15 16 15 15 13 12 12 11 11 10 10 10 11 10
6 6 6 7 7 7 7 7 7 7 8 9 10 11 11 12 12 13 14 14 14 15 15 16 16 16 17 16 15 15 15 15 16 15 16 16 15 15 13 11 11 11 10
10 11 11 11 10 8 9 10 9 9 11 11 13 13 14 15 13 12 12 12 14 14 15 16 16 15 16 16 16 15 16 17 18 17 18 17 14 16 16 15 12 10 10
11 11 11 11 11 10 10 10 11 11 12 13 13 14 14 15 13 14 12 12 13 12 13 14 14 15 16 15 15 17 16 17 17 16 16 16 17 16 16 14 11 10 10
12 12 11 11 11 12 10 9 11 12 12 13 13 13 15 14 13 14 14 14 14 14 14 14 14 15 14 14 14 15 15 16 16 15 15 18 16 17 16 15 10 10 10
13 13 14 13 13 13 11 10 11 13 14 14 14 13 13 14 13 12 13 14 14 15 13 12 13 12 12 12 13 15 17 18 18 17 16 17 16 16 16 16 14 10 9
14 14 14 14 13 13 11 10 12 13 14 15 14 14 14 13 12 12 14 14 15 15 15 16 15 13 12 13 12 13 14 17 18 18 15 16 16 15 17 16 15 15 12

GFSMA_con_lsi_117.txt.gz
Lid_Strength_Index
2 3 3 3 3 2 2 2 2 2 2 2 2 2 3 3 4 5 4 2 0 -1 -0 0 1 1 1 1 1 1 1 2 2 2 2 1 2 1 1 1 2 2 2
3 2 2 2 2 2 2 2 2 2 2 2 1 0 1 2 4 5 5 4 0 0 1 1 1 1 1 1 1 1 2 2 2 2 2 2 2 2 2 2 2 2 2
2 2 2 2 2 2 2 2 2 2 2 1 1 0 1 3 5 6 6 5 4 2 2 2 2 2 2 2 2 2 2 2 2 2 2 2 2 2 2 2 3 3 3
2 2 2 2 2 2 2 2 2 3 3 3 2 2 2 3 5 6 6 6 6 6 5 4 4 3 2 2 2 2 2 2 2 2 2 3 2 2 2 2 3 3 3
2 2 2 1 1 2 2 2 3 3 3 3 3 3 3 3 5 6 7 7 7 8 8 5 6 5 4 3 3 3 3 3 3 3 3 3 3 3 3 3 3 4 3
2 2 1 1 2 3 3 3 3 3 3 4 2 4 5 7 8 8 8 7 9 10 11 11 11 9 5 4 3 3 3 3 3 3 3 3 3 3 3 3 4 4 4
1 1 2 2 2 3 3 3 3 4 3 3 4 5 5 7 9 9 9 9 10 12 12 12 13 12 11 6 5 4 3 3 3 4 4 3 3 3 3 3 4 4 4
1 1 2 2 2 3 3 3 4 4 4 3 4 4 6 7 9 10 9 10 12 12 12 12 13 13 12 11 8 5 4 4 4 4 4 4 4 4 3 4 4 4 4
1 1 2 2 2 2 2 3 3 4 4 4 3 4 6 7 9 11 11 10 12 13 13 13 13 13 13 12 11 9 6 5 5 5 5 4 5 5 5 4 4 5 5
0 1 1 2 2 2 2 2 3 3 4 4 3 3 4 5 8 11 12 12 12 13 14 13 13 14 13 12 10 8 7 7 7 6 6 5 5 5 4 4 5 5 5
1 0 1 2 2 1 1 2 4 3 3 3 4 5 5 7 7 10 12 13 12 12 13 13 13 14 13 13 13 11 8 8 7 7 7 6 6 6 5 5 5 5 5
2 1 1 1 1 1 2 2 3 3 3 3 2 4 5 6 8 10 11 13 13 12 12 13 13 14 14 13 11 10 8 7 7 7 7 7 7 7 6 6 6 6 6
2 1 1 1 1 1 2 2 3 3 3 3 2 2 3 4 6 9 10 13 13 13 12 12 13 14 13 14 13 10 10 8 7 8 8 8 8 8 7 7 7 7 7
1 1 1 1 1 1 1 2 2 3 3 3 3 2 2 4 6 9 9 12 15 14 14 13 14 14 14 14 13 11 12 9 8 8 8 8 9 9 8 8 8 8 7
1 1 1 1 1 1 2 2 2 3 3 3 3 2 3 3 6 6 8 10 7 15 15 15 16 15 15 14 14 14 13 10 8 8 8 9 9 9 9 9 8 8 8
1 2 2 1 1 1 1 2 2 2 3 3 3 3 3 3 5 7 10 12 11 9 10 15 15 15 14 14 13 15 14 12 10 9 10 9 9 10 10 10 10 9 9
2 2 2 2 2 2 2 2 2 2 3 3 3 4 4 4 6 9 11 11 13 14 12 16 15 15 15 14 14 14 14 13 13 11 10 10 9 10 10 10 10 10 10
3 3 3 3 3 2 2 2 3 3 3 4 4 6 6 7 8 10 10 11 11 13 14 16 16 16 16 14 15 15 14 13 14 12 10 10 10 10 10 10 10 10 10
3 2 2 3 3 2 2 2 2 3 4 4 4 6 6 8 9 9 11 11 12 13 15 15 16 16 16 16 15 15 15 14 13 12 11 10 10 10 10 10 10 10 10
2 3 3 2 2 2 3 3 3 4 4 5 5 5 6 9 9 10 11 12 13 14 15 15 16 16 16 15 15 16 16 15 15 14 12 12 11 10 10 10 10 10 11
5 5 5 5 6 6 6 6 6 6 7 8 9 9 10 11 12 11 12 13 13 15 15 15 17 16 16 16 16 16 15 15 15 15 15 14 14 14 14 11 11 11 11
9 9 10 10 9 8 10 9 9 9 9 10 11 12 12 14 13 12 11 12 12 14 15 15 16 15 15 15 16 16 16 17 17 16 16 16 15 15 15 15 12 11 10
11 11 11 11 11 10 10 9 10 10 11 10 12 13 14 14 14 13 11 12 12 12 11 13 14 15 14 15 15 17 16 17 17 16 16 17 16 16 16 14 11 11 10
13 12 12 12 11 12 10 9 10 11 11 11 12 12 13 13 13 13 13 13 13 13 12 13 14 14 13 13 13 14 15 16 17 15 16 20 18 17 17 16 12 11 9
14 13 14 14 14 13 11 10 10 13 12 13 13 13 13 13 12 11 13 13 13 13 12 12 12 12 12 12 13 15 18 17 19 17 16 17 17 17 17 16 14 10 9
14 14 13 13 14 13 11 10 11 13 13 14 14 14 13 13 11 11 13 13 14 14 14 14 14 13 12 13 12 15 16 17 18 19 16 17 17 16 18 16 16 15 13

GFSMA_con_lsi_120.txt.gz
Lid_Strength_Index
3 3 3 3 3 3 3 3 3 2 2 2 2 2 2 3 4 5 4 2 -1 -0 0 1 1 1 1 1 1 1 2 2 2 2 2 2 2 2 2 2 2 2 2
3 3 3 3 3 3 2 2 2 2 2 2 2 1 2 3 4 5 5 3 1 0 1 1 1 1 1 1 2 2 2 2 2 2 2 2 2 2 2 2 2 2 2
3 3 3 3 2 2 2 2 2 2 2 2 2 1 2 4 5 5 4 6 5 2 2 2 2 2 2 2 2 2 2 2 2 2 3 2 2 2 2 2 3 3 3
2 3 3 3 2 2 2 3 3 3 3 3 3 3 3 4 5 5 5 7 7 7 5 4 4 3 3 3 3 3 3 3 3 3 3 3 3 2 3 3 3 3 3
2 3 3 2 2 2 3 3 3 3 4 4 3 4 3 5 6 6 6 7 8 9 9 6 6 5 4 3 3 3 3 3 3 3 3 3 3 3 3 4 3 4 4
2 3 3 2 2 2 3 3 3 4 4 4 3 5 7 6 7 7 7 7 10 10 11 11 11 10 5 4 4 3 4 3 4 3 4 4 4 4 4 3 4 4 4
3 3 3 2 2 2 2 3 4 4 4 4 5 6 7 9 8 8 7 8 10 12 12 12 13 12 11 6 4 4 4 3 4 5 4 5 5 4 4 4 4 4 4
2 2 2 2 2 2 3 4 4 5 5 4 5 6 7 8 10 10 8 8 11 12 13 13 13 13 12 11 9 5 4 4 4 5 5 5 4 4 4 4 4 4 4
2 2 2 1 2 2 2 3 4 4 5 5 4 5 6 8 10 11 11 9 11 13 13 13 13 13 12 12 9 9 5 5 5 5 6 6 6 5 5 5 5 4 4
2 1 1 1 2 2 2 2 3 3 4 4 5 4 5 6 9 11 12 11 10 11 12 13 13 14 13 13 11 9 7 6 7 7 7 7 6 5 6 5 5 5 5
2 2 1 1 2 2 2 2 3 3 3 3 4 6 6 7 8 9 10 13 11 10 11 13 12 13 13 14 14 12 8 8 8 8 8 8 7 6 6 5 6 5 5
3 2 2 1 1 1 1 2 2 2 2 3 3 4 5 8 8 10 11 12 12 12 12 13 14 14 16 14 13 11 9 8 8 8 8 8 8 8 7 7 6 6 6
4 3 2 2 2 1 1 1 2 2 3 3 3 3 4 5 7 8 7 9 12 13 14 15 15 15 15 14 13 11 9 8 8 8 8 9 9 9 8 8 7 7 7
2 2 2 2 2 1 2 2 2 2 2 3 3 3 3 4 4 5 6 7 12 15 16 15 15 14 14 15 13 11 12 9 8 8 8 9 9 9 9 8 8 8 8
2 2 2 2 2 2 2 2 2 2 2 2 3 3 3 3 4 5 5 5 6 7 12 14 15 14 14 14 13 13 13 11 9 8 8 8 9 9 9 9 9 9 8
2 3 3 2 2 2 2 2 2 1 2 2 2 3 3 3 3 4 5 5 7 5 6 13 15 15 14 14 13 14 14 12 10 8 9 9 9 9 9 9 10 10 9
3 3 3 3 3 3 3 2 2 2 3 3 2 3 3 3 3 4 6 7 8 8 8 15 16 14 15 15 14 15 14 13 13 10 9 9 9 9 9 9 9 10 10
3 3 3 3 3 3 3 3 3 2 3 3 3 3 3 4 4 4 7 7 8 10 11 14 15 16 15 14 14 14 15 14 14 12 10 10 9 9 9 9 9 10 10
4 4 3 3 3 2 2 2 2 2 3 3 3 3 4 5 6 6 9 9 10 12 13 14 15 14 15 14 15 15 15 15 13 12 11 10 10 9 9 9 9 9 10
4 3 3 2 2 2 2 2 3 3 3 3 4 5 6 7 8 7 10 11 13 13 14 14 15 15 14 15 14 15 16 16 15 14 12 12 11 10 9 9 9 9 10
6 5 5 5 5 5 6 6 6 7 7 7 8 9 10 12 12 10 10 12 13 14 14 14 15 15 16 15 16 15 15 15 15 15 15 14 14 14 13 10 10 10 10
9 10 10 10 10 9 11 10 9 8 9 11 12 12 11 13 11 10 10 10 11 13 13 13 13 15 15 14 14 15 15 16 17 16 17 16 15 15 14 13 11 10 10
12 12 12 12 12 12 10 10 10 10 10 10 11 12 12 13 12 11 10 10 10 9 10 12 13 13 14 14 14 15 16 16 18 17 16 17 17 16 15 14 11 10 9
13 14 14 14 14 14 11 10 11 11 11 12 12 12 12 12 12 12 12 12 13 12 12 12 12 12 12 13 13 14 15 18 18 16 16 20 20 19 18 17 12 10 10
15 14 15 15 15 14 11 10 12 13 13 13 13 12 12 12 12 11 13 13 13 13 11 10 10 10 10 10 12 14 16 17 19 19 17 18 19 19 18 19 17 11 9
15 15 14 14 14 14 11 10 12 13 13 13 13 13 13 13 11 10 13 13 13 13 12 12 12 11 11 11 11 13 15 20 22 22 18 18 19 18 19 18 16 15 14

GFSMA_con_lsi_123.txt.gz
Lid_Strength_Index
0 1 1 1 1 1 0 0 0 0 0 0 -0 0 1 3 3 2 1 1 -1 -0 0 1 1 1 2 2 2 2 2 2 2 2 2 2 2 2 2 2 3 3 3
1 1 1 1 1 1 0 0 0 0 0 0 0 0 0 3 3 2 2 1 0 0 1 2 2 2 2 2 2 2 2 2 2 2 3 2 2 2 2 3 3 3 3
1 1 1 2 1 0 -0 -0 0 0 0 -0 -0 -0 0 3 3 3 3 3 2 2 2 2 3 2 2 2 2 3 2 3 2 3 3 2 3 3 3 3 3 3 3
1 1 1 1 0 0 -0 0 0 0 0 0 0 0 1 3 3 4 4 5 4 3 3 4 4 3 3 3 2 3 3 3 3 3 3 3 3 3 3 3 4 3 3
1 1 1 1 0 0 -0 0 1 1 1 1 1 1 1 3 4 4 5 5 5 5 4 4 5 5 3 3 3 3 3 3 4 3 3 4 3 4 4 4 4 4 4
0 1 1 1 1 1 0 1 1 1 1 1 2 3 2 3 4 4 4 5 6 6 6 6 6 6 5 3 3 3 3 3 4 4 5 4 5 5 4 5 5 5 4
1 1 1 2 2 2 1 1 1 1 2 2 4 4 5 5 5 5 5 5 6 7 7 8 8 7 6 5 4 3 3 4 5 5 5 5 5 5 5 5 5 5 5
1 1 1 2 2 2 2 1 1 2 2 3 4 4 5 5 7 6 6 6 6 8 9 9 9 9 7 7 6 5 4 4 5 5 5 5 6 6 5 5 5 5 5
2 1 1 1 2 2 1 0 1 2 2 3 3 3 6 6 7 8 8 7 7 8 9 10 11 11 10 9 8 7 6 5 4 5 5 6 6 6 6 6 6 6 5
3 2 2 1 1 1 0 0 1 1 1 2 3 3 3 4 6 7 9 9 8 8 9 10 11 11 12 11 10 9 8 6 5 5 6 6 6 6 6 6 6 6 6
3 3 2 2 1 0 0 -0 1 1 1 1 2 3 3 4 6 6 5 8 10 8 8 10 10 12 13 11 12 10 8 7 7 7 7 7 7 7 7 7 7 7 6
3 3 3 2 2 1 0 0 0 1 1 1 1 1 3 5 6 6 8 5 8 9 10 10 11 12 12 12 12 10 8 7 7 8 8 8 8 7 7 7 7 7 7
3 3 3 3 2 2 1 1 1 1 1 1 1 1 1 2 3 7 6 6 9 9 12 11 11 11 12 13 13 11 10 8 8 8 8 8 8 8 8 8 8 8 8
3 3 3 3 2 2 2 1 1 1 1 1 1 1 1 2 2 4 5 5 8 9 11 10 11 12 12 13 13 12 11 9 8 7 8 8 8 8 8 8 8 8 8
2 2 3 3 2 2 2 2 2 2 1 2 2 2 2 2 2 3 3 4 5 6 6 11 12 14 13 13 13 12 12 10 8 7 8 8 8 8 8 8 8 9 8
2 3 3 3 2 2 2 2 1 2 2 2 2 2 2 2 2 2 3 4 4 5 6 12 13 14 13 13 12 12 12 11 9 8 8 7 8 8 8 8 8 9 9
2 3 3 3 2 2 2 2 2 2 3 3 2 3 3 2 3 3 3 3 5 5 7 13 14 14 14 14 13 12 13 12 11 9 8 8 8 8 8 9 8 9 9
2 2 3 3 3 2 2 3 3 3 3 3 3 3 3 3 3 3 4 5 6 7 8 11 15 15 15 13 14 13 13 12 12 11 9 8 8 9 9 8 9 9 9
3 3 3 3 3 3 3 3 2 2 2 3 3 3 3 3 5 4 7 8 9 11 11 12 14 14 14 14 13 13 13 13 12 12 10 9 9 9 9 9 8 8 9
3 3 3 3 3 3 2 2 2 2 2 3 4 6 7 7 7 7 8 9 11 12 12 13 14 14 15 14 13 14 15 13 13 13 12 11 11 10 9 8 8 8 8
7 6 5 5 6 7 8 6 5 6 6 7 8 9 9 11 10 9 10 11 11 12 12 13 14 14 14 15 14 13 13 14 14 12 12 13 12 11 10 9 9 9 8
10 10 10 10 10 10 10 10 8 8 9 9 10 11 11 13 11 9 9 9 9 11 12 12 12 13 13 13 13 13 14 15 15 12 13 13 13 12 11 10 10 9 8
11 11 11 11 11 11 10 10 10 9 10 10 11 11 12 12 11 10 9 9 9 9 10 10 12 12 12 12 12 13 13 13 12 14 13 13 12 12 11 11 10 10 9
12 12 12 12 12 12 11 10 11 10 11 11 11 11 11 11 11 11 11 12 12 12 11 12 11 12 11 11 11 12 12 13 14 14 13 13 14 13 13 12 11 10 9
13 13 13 14 14 14 11 10 12 13 13 13 13 12 11 11 11 11 12 13 13 13 11 10 10 10 10 10 11 12 13 14 14 14 14 13 14 14 13 13 12 11 10
14 14 15 15 15 14 10 11 13 14 14 13 13 13 12 12 11 10 12 13 13 13 12 12 12 11 10 10 11 11 12 13 15 14 14 13 15 14 14 14 14 13 12

GFSMA_con_lsi_129.txt.gz
Lid_Strength_Index
-0 -0 -1 -1 -1 -1 -1 -1 -1 -1 -1 -1 -1 -1 -1 -0 0 0 -0 1 -1 -1 0 1 1 1 2 2 2 2 2 2 3 3 3 4 4 3 4 4 4 4 3
0 0 0 -0 -1 -1 -1 -1 -1 -1 -1 -1 -1 -1 -1 -1 -0 -0 -0 0 -0 -1 0 1 1 1 1 2 2 2 2 2 3 3 4 4 4 4 4 4 4 4 4
0 1 1 0 0 -0 -1 -1 -1 -1 -1 -1 -0 -1 -1 -1 -0 0 -0 -1 0 0 -0 0 1 1 1 1 1 2 2 2 3 4 4 4 4 4 4 5 5 5 4
0 0 1 0 0 0 0 -0 -0 0 0 0 0 0 -0 -0 -1 0 0 -0 -0 0 1 1 1 2 1 1 1 1 2 2 3 4 4 4 5 5 5 5 5 5 5
-0 -0 -0 -0 0 0 1 0 -0 0 1 1 0 0 -0 0 -0 0 0 1 0 0 0 1 2 2 2 2 1 1 2 3 3 4 3 4 4 5 5 6 6 6 5
-1 -1 -1 -1 -1 -0 0 0 0 -0 0 1 2 1 0 -0 -0 -0 1 1 1 1 1 1 3 4 3 3 2 2 2 3 3 4 3 4 4 5 5 6 6 6 6
-0 -1 -0 -0 -1 0 0 0 0 1 1 0 2 2 1 0 0 0 0 1 1 2 2 2 3 3 5 4 4 3 2 2 2 3 3 3 4 5 5 6 6 6 6
-0 0 -0 -0 -0 0 0 0 1 1 1 1 2 3 5 3 1 1 0 1 2 2 3 3 4 4 5 6 6 4 3 2 2 2 3 3 4 4 5 5 5 6 5
-0 0 0 0 -0 -0 1 0 0 1 2 1 1 3 5 6 3 1 2 1 2 2 2 4 5 6 6 6 6 5 4 3 2 2 2 3 4 4 4 5 5 5 5
-0 -0 0 0 0 0 0 0 0 1 1 2 1 1 1 2 5 5 4 3 3 3 4 4 5 6 6 7 7 6 6 4 3 3 3 3 3 4 3 4 4 5 5
-0 -0 -0 0 1 1 1 1 0 1 1 1 2 2 2 2 2 4 5 4 5 5 5 5 5 6 7 8 8 8 7 5 4 5 3 3 4 4 4 4 4 4 5
0 0 -0 0 0 1 1 1 1 1 1 1 1 1 2 3 3 4 4 4 4 4 6 5 5 6 7 8 9 9 7 6 6 5 5 4 4 5 4 4 4 4 5
1 1 1 1 1 1 1 1 1 1 1 1 1 1 1 2 1 2 3 4 4 3 3 5 6 6 7 7 9 10 8 8 7 6 6 5 4 5 4 4 4 4 5
1 0 0 0 0 1 0 0 1 1 1 2 2 1 1 1 1 1 2 3 5 5 5 4 5 6 7 8 9 10 10 8 7 6 6 5 5 5 5 5 5 5 5
1 0 0 0 0 0 0 0 1 1 2 1 2 1 1 1 1 1 1 2 4 6 5 7 7 8 8 9 11 11 10 9 7 6 5 5 5 5 5 5 5 5 5
0 1 1 0 0 0 0 0 1 1 2 2 2 2 2 2 1 1 1 2 3 4 6 5 8 11 12 12 11 11 11 10 8 7 5 5 5 5 5 5 5 6 6
1 1 1 1 1 1 1 1 1 2 2 2 2 3 3 2 2 2 2 3 3 3 5 7 12 12 13 13 12 11 11 10 9 8 6 5 5 5 5 6 6 6 6
1 1 1 1 2 1 1 1 2 2 2 3 3 3 4 3 3 3 3 3 3 4 4 6 13 14 13 13 12 13 12 11 10 8 7 6 6 5 6 6 6 6 6
1 1 1 1 2 2 1 1 2 2 2 3 3 3 3 3 3 3 3 3 4 5 6 8 12 13 14 13 13 13 13 12 11 9 7 6 6 6 6 6 6 6 7
2 2 1 1 1 1 1 1 2 2 2 2 3 3 3 3 3 3 4 5 7 9 10 12 14 14 14 14 14 14 14 13 13 11 10 9 7 7 7 6 6 7 7
2 2 3 2 2 2 2 2 2 2 3 3 5 6 6 8 10 7 7 8 9 11 14 13 14 14 14 14 14 13 13 13 13 12 12 12 11 11 10 8 8 8 8
7 7 7 7 5 7 11 10 7 6 6 7 8 9 10 13 10 10 10 9 8 10 13 13 14 13 13 13 13 13 13 14 15 12 13 12 12 11 11 10 9 8 8
8 10 9 9 10 10 9 10 10 7 8 8 9 11 12 12 12 12 9 9 10 10 10 12 13 12 12 12 12 13 13 13 13 13 12 13 11 12 11 11 9 8 8
10 10 11 10 11 11 10 10 10 9 10 11 11 11 11 12 12 12 11 12 12 13 13 12 12 12 12 12 12 12 12 13 13 13 12 13 11 12 12 12 9 9 9
12 12 12 12 12 12 10 10 11 12 13 13 13 12 12 12 11 11 12 13 14 14 11 10 10 9 10 9 10 12 13 13 13 13 13 13 13 13 13 14 13 10 11
13 13 14 13 14 13 11 11 11 13 13 13 13 13 13 12 11 11 13 13 14 13 12 12 12 11 11 10 10 11 11 12 12 12 13 13 14 14 15 14 14 14 14

GFSMA_con_lsi_132.txt.gz
Lid_Strength_Index
2 2 2 1 1 1 1 1 1 1 1 1 0 1 1 1 2 2 2 1 -1 -1 -1 -0 0 1 1 1 1 2 1 2 2 3 4 4 4 3 4 4 4 4 4
2 2 2 2 2 2 2 1 1 1 1 1 1 0 0 1 1 2 2 1 -0 -1 -1 -1 -0 0 0 1 1 1 2 2 2 3 4 4 4 4 4 4 5 4 5
1 2 3 3 2 2 2 2 2 1 1 1 1 0 0 1 1 2 2 1 1 0 -1 -1 -0 0 0 0 1 1 1 2 3 3 4 4 4 4 4 5 5 5 5
0 2 3 3 3 2 2 3 2 2 2 2 2 1 1 0 1 2 2 2 2 1 0 -1 -0 0 1 1 0 1 1 2 3 3 3 4 4 4 4 5 5 5 5
0 2 2 3 2 3 3 2 2 2 3 2 2 2 2 1 1 2 2 2 2 2 3 1 0 1 1 1 1 1 1 2 2 3 3 3 4 4 4 5 5 5 5
0 1 2 2 2 3 3 3 3 2 2 3 2 2 2 2 1 2 3 2 3 3 3 3 3 4 2 2 2 2 1 1 2 2 2 3 3 4 4 4 5 5 5
0 1 1 1 1 2 3 2 3 2 3 2 3 2 2 2 2 2 2 3 3 3 3 4 4 5 6 3 3 2 1 0 1 1 2 2 3 3 4 4 4 5 4
1 1 1 1 1 1 1 2 2 3 3 2 3 3 5 5 4 2 2 2 3 3 4 4 5 6 7 8 6 3 2 1 0 1 1 2 2 3 3 3 3 4 4
0 1 1 1 1 2 1 1 2 2 3 3 2 4 6 7 5 3 3 3 3 4 4 5 5 6 7 8 6 5 3 2 1 1 1 1 2 3 3 3 3 4 4
0 0 1 1 1 2 2 2 2 2 3 3 3 2 3 4 6 6 5 4 3 3 4 5 6 6 7 8 8 7 6 4 3 2 1 1 1 2 2 2 3 3 3
1 0 1 1 1 2 2 2 2 2 2 3 3 4 4 4 2 4 6 4 6 5 4 4 5 6 7 8 9 8 6 5 4 4 3 2 1 1 2 2 2 2 3
1 1 1 1 1 1 2 3 2 3 3 3 3 3 4 4 4 4 5 4 4 4 5 5 5 5 7 8 8 8 7 6 5 4 4 3 2 1 2 2 2 2 3
1 1 1 1 1 2 2 2 3 3 3 3 3 3 3 3 3 3 3 4 5 4 4 4 5 6 7 8 9 9 8 7 6 6 4 4 2 2 2 3 2 2 2
1 1 1 1 1 1 1 2 2 2 2 3 3 3 3 3 3 3 3 4 5 4 4 3 5 6 7 8 9 10 10 8 7 5 5 5 3 3 3 3 3 3 3
1 1 1 1 1 1 1 1 1 1 1 1 2 3 3 3 3 3 2 2 4 6 5 4 5 7 8 10 10 10 11 9 7 6 5 5 4 4 3 3 3 3 4
1 2 2 2 1 1 1 1 1 1 2 2 2 2 2 2 2 2 2 3 3 4 6 4 6 9 11 11 11 11 11 10 9 7 6 5 5 4 4 4 4 4 4
2 2 2 2 2 2 1 2 1 1 2 2 2 2 2 2 2 2 3 3 3 4 5 5 8 11 12 12 12 12 11 11 11 9 8 6 5 4 4 5 4 4 5
2 2 2 2 2 1 1 1 1 1 2 3 3 3 3 3 3 3 3 3 4 3 5 5 12 14 13 13 13 13 12 12 11 9 7 6 5 5 5 5 5 5 5
2 2 2 2 2 2 2 2 2 2 2 3 3 4 3 3 4 4 4 4 4 4 4 5 10 14 13 13 14 13 14 13 11 10 8 7 6 5 5 5 5 5 6
2 1 1 2 2 2 2 2 2 2 3 3 3 3 3 4 4 4 4 4 5 5 8 10 14 15 15 15 15 15 15 14 13 11 10 9 8 7 6 6 6 6 6
5 5 3 3 2 3 3 3 2 2 3 3 5 5 5 7 10 7 6 6 8 10 14 13 14 15 14 15 15 15 15 14 13 13 13 12 12 11 10 8 8 8 7
7 7 7 8 7 7 10 10 8 5 5 6 7 9 11 13 11 11 10 9 8 9 13 13 14 13 14 14 14 15 15 15 15 13 13 13 12 12 11 11 9 8 7
8 9 9 9 9 9 9 9 10 7 7 8 9 11 12 12 11 11 10 10 11 9 9 11 12 12 13 13 14 14 14 13 13 13 13 13 12 12 11 10 8 8 8
10 10 10 10 10 11 10 9 10 9 10 10 11 11 12 12 12 11 12 13 13 13 12 12 12 12 13 13 13 12 12 13 13 13 13 13 12 12 11 11 8 8 8
11 11 12 13 13 12 10 10 11 12 13 13 13 12 12 12 11 10 13 14 14 14 11 10 10 10 10 11 11 12 13 13 14 14 13 15 15 14 14 16 14 9 9
13 13 13 14 14 13 11 10 11 13 14 14 14 13 13 13 11 11 13 13 14 14 14 14 14 12 12 11 11 12 12 13 13 14 14 16 16 16 17 16 15 14 14

GFSMA_con_lsi_135.txt.gz
Lid_Strength_Index
2 2 2 2 2 2 2 2 1 1 1 1 1 1 1 2 2 2 2 1 -1 -2 -2 -1 -1 -0 0 0 1 1 1 2 2 2 3 3 3 3 4 4 4 4 4
2 2 3 2 3 3 3 3 2 2 2 1 1 1 1 2 2 3 3 2 -0 -2 -2 -2 -1 -1 -1 -0 0 1 1 1 2 3 3 3 3 3 4 4 4 4 5
2 2 2 3 3 3 3 3 2 2 3 2 2 2 1 1 2 3 3 3 2 -0 -2 -2 -1 -1 -1 -1 -0 -0 1 1 1 2 2 2 3 3 3 4 4 5 5
1 2 2 3 2 3 3 4 4 3 3 3 3 2 2 1 1 2 4 3 3 2 0 -1 -1 -1 -1 -1 -0 -0 1 1 1 2 2 2 2 3 3 3 4 4 5
1 1 3 3 3 3 3 3 4 3 3 3 3 3 2 2 1 2 3 4 3 2 3 1 -0 -1 -1 -1 -0 0 1 1 1 1 2 2 2 2 3 3 4 4 5
1 1 2 3 3 3 4 4 4 3 3 3 2 3 3 2 2 2 2 4 4 3 3 3 3 2 1 -0 1 1 0 0 0 1 1 2 2 2 2 3 4 4 4
1 1 1 2 2 3 3 3 4 4 3 3 4 3 4 2 2 2 3 4 4 3 3 3 3 4 3 1 1 1 1 0 -0 0 1 1 2 2 2 3 3 4 4
1 1 1 2 2 2 3 3 3 3 3 3 4 5 6 5 3 2 3 3 3 3 3 3 4 5 5 5 5 2 1 1 -0 -1 -0 1 1 1 1 2 2 3 3
1 1 1 1 2 2 2 2 3 3 3 3 3 4 7 7 6 5 4 3 2 4 3 4 4 4 5 6 5 4 3 2 1 -0 -0 -0 0 1 1 1 2 2 3
1 1 1 1 2 2 2 2 2 3 3 4 4 3 4 6 7 7 7 6 3 4 3 4 4 4 5 5 6 7 6 3 3 2 0 0 0 0 0 0 1 1 2
1 1 1 1 2 2 2 2 2 3 3 3 3 4 4 4 6 7 7 6 7 4 2 3 3 4 5 5 6 6 6 5 4 3 2 1 1 1 -1 -0 0 1 1
1 1 1 1 2 1 2 2 2 2 3 4 4 3 4 5 5 6 7 5 5 4 5 4 4 4 4 5 6 7 7 6 5 4 3 3 2 2 0 -1 -1 0 1
1 1 1 1 1 1 1 2 2 3 3 3 4 4 4 4 5 5 6 7 7 5 5 5 5 5 4 5 6 9 8 6 5 4 4 4 3 3 2 0 -0 0 1
1 1 1 1 1 1 2 1 2 2 2 2 3 3 3 3 3 4 5 6 7 7 7 6 6 5 4 5 7 9 8 8 6 5 5 4 5 4 3 1 1 1 2
1 1 1 1 1 1 2 2 2 2 2 2 2 2 3 2 2 3 3 5 6 6 5 5 5 6 8 8 8 8 9 10 7 6 6 5 5 4 3 2 2 2 2
2 2 2 2 1 1 2 2 2 1 2 1 1 2 2 2 2 2 2 3 3 4 6 5 5 6 9 11 11 10 10 11 9 7 6 6 6 5 4 2 3 3 3
2 2 2 2 2 2 1 2 2 2 1 1 1 1 2 2 2 3 3 3 4 3 4 3 6 10 11 12 12 11 12 11 10 9 8 7 7 5 4 3 3 4 4
2 2 2 2 2 2 2 2 2 2 2 2 2 2 2 2 3 3 3 3 3 3 4 4 9 13 12 13 12 12 13 11 11 10 9 8 8 6 4 4 4 4 4
3 2 2 2 1 2 2 2 2 2 2 2 2 2 3 3 3 3 3 3 4 4 4 4 8 14 14 14 14 14 14 13 12 11 9 8 7 6 5 5 5 5 5
2 2 2 1 2 2 2 2 2 2 2 2 2 2 2 3 3 3 4 4 4 4 5 7 15 15 15 15 15 15 15 14 14 11 10 10 9 7 6 5 5 6 6
5 5 4 4 4 3 3 3 2 2 2 3 4 3 3 5 8 5 4 4 5 6 13 13 14 15 15 15 14 15 14 14 15 13 13 13 13 11 8 6 8 7 6
6 6 6 7 6 6 10 10 9 5 5 5 4 5 9 13 10 10 9 8 7 7 11 12 13 13 13 14 15 14 15 15 14 14 14 14 12 12 12 11 8 7 7
8 8 8 8 8 8 9 9 9 8 7 6 7 10 12 12 12 11 11 11 12 9 9 10 13 13 13 13 13 14 14 14 14 14 14 14 13 13 12 11 8 7 7
10 10 9 9 9 10 9 9 10 8 9 10 10 10 11 12 12 12 12 13 13 13 12 12 12 13 13 13 13 13 13 14 14 14 13 14 13 13 12 11 8 7 7
10 11 11 12 12 11 9 9 10 11 12 12 12 11 11 12 11 10 13 13 14 14 11 11 11 10 11 11 12 13 14 14 15 14 13 14 14 13 14 15 14 8 8
11 12 13 13 13 13 11 10 10 13 13 13 13 13 13 12 11 10 13 13 14 14 14 13 13 12 12 11 11 13 13 13 14 15 15 16 16 16 16 16 15 14 13